<?xml version="1.0" encoding="UTF-8"?>
<gpx version="1.1" creator="https://www.youtrack.es" xsi:schemaLocation="http://www.topografix.com/GPX/1/1 http://www.topografix.com/GPX/1/1/gpx.xsd http://www.garmin.com/xmlschemas/GpxExtensions/v3 http://www.garmin.com/xmlschemas/GpxExtensionsv3.xsd http://www.garmin.com/xmlschemas/TrackPointExtension/v1 http://www.garmin.com/xmlschemas/TrackPointExtensionv1.xsd" xmlns:gpxtpx="http://www.garmin.com/xmlschemas/TrackPointExtension/v1" xmlns:gpxx="http://www.garmin.com/xmlschemas/GpxExtensions/v3" xmlns:xsi="http://www.w3.org/2001/XMLSchema-instance">
  <metadata>
    <link href="https://www.youtrack.es">
      <text>YouTrack.es</text>
    </link>
    <time>2026-05-08T10:46:22Z</time>
  </metadata>
  <trk>
    <src>https://www.youtrack.es</src>
    <link href="https://www.youtrack.es/ruta/9184-porrera-botarell">
      <text>YouTrack.es</text>
    </link>
    <trkseg>
      <trkpt lat="41.18859200" lon="0.857938000">
        <ele>305.00000</ele>
        <time>2010-01-01T00:00:00Z</time>
      </trkpt>
      <trkpt lat="41.18859800" lon="0.858078000">
        <ele>304.00000</ele>
        <time>2010-01-01T00:00:04Z</time>
      </trkpt>
      <trkpt lat="41.18859700" lon="0.858250000">
        <ele>304.00000</ele>
        <time>2010-01-01T00:00:09Z</time>
      </trkpt>
      <trkpt lat="41.18857500" lon="0.858709000">
        <ele>302.00000</ele>
        <time>2010-01-01T00:00:23Z</time>
      </trkpt>
      <trkpt lat="41.18857200" lon="0.858829000">
        <ele>302.00000</ele>
        <time>2010-01-01T00:00:26Z</time>
      </trkpt>
      <trkpt lat="41.18869900" lon="0.859087000">
        <ele>302.00000</ele>
        <time>2010-01-01T00:00:36Z</time>
      </trkpt>
      <trkpt lat="41.18873400" lon="0.859158000">
        <ele>302.00000</ele>
        <time>2010-01-01T00:00:38Z</time>
      </trkpt>
      <trkpt lat="41.18893800" lon="0.859526000">
        <ele>303.00000</ele>
        <time>2010-01-01T00:00:52Z</time>
      </trkpt>
      <trkpt lat="41.18897100" lon="0.859598000">
        <ele>303.00000</ele>
        <time>2010-01-01T00:00:55Z</time>
      </trkpt>
      <trkpt lat="41.18896100" lon="0.859568000">
        <ele>303.00000</ele>
        <time>2010-01-01T00:00:56Z</time>
      </trkpt>
      <trkpt lat="41.18925900" lon="0.860167000">
        <ele>306.00000</ele>
        <time>2010-01-01T00:01:17Z</time>
      </trkpt>
      <trkpt lat="41.18931200" lon="0.860283000">
        <ele>305.00000</ele>
        <time>2010-01-01T00:01:21Z</time>
      </trkpt>
      <trkpt lat="41.18953100" lon="0.860747000">
        <ele>305.00000</ele>
        <time>2010-01-01T00:01:38Z</time>
      </trkpt>
      <trkpt lat="41.18953800" lon="0.860784000">
        <ele>305.00000</ele>
        <time>2010-01-01T00:01:39Z</time>
      </trkpt>
      <trkpt lat="41.18953100" lon="0.860794000">
        <ele>305.00000</ele>
        <time>2010-01-01T00:01:39Z</time>
      </trkpt>
      <trkpt lat="41.18952900" lon="0.860806000">
        <ele>305.00000</ele>
        <time>2010-01-01T00:01:40Z</time>
      </trkpt>
      <trkpt lat="41.18967100" lon="0.861070000">
        <ele>305.00000</ele>
        <time>2010-01-01T00:01:49Z</time>
      </trkpt>
      <trkpt lat="41.18992300" lon="0.861451000">
        <ele>308.00000</ele>
        <time>2010-01-01T00:02:05Z</time>
      </trkpt>
      <trkpt lat="41.18993500" lon="0.861477000">
        <ele>308.00000</ele>
        <time>2010-01-01T00:02:06Z</time>
      </trkpt>
      <trkpt lat="41.19003200" lon="0.861681000">
        <ele>308.00000</ele>
        <time>2010-01-01T00:02:13Z</time>
      </trkpt>
      <trkpt lat="41.19013900" lon="0.862364000">
        <ele>308.00000</ele>
        <time>2010-01-01T00:02:34Z</time>
      </trkpt>
      <trkpt lat="41.19032100" lon="0.863316000">
        <ele>311.00000</ele>
        <time>2010-01-01T00:03:04Z</time>
      </trkpt>
      <trkpt lat="41.19049800" lon="0.864020000">
        <ele>311.00000</ele>
        <time>2010-01-01T00:03:26Z</time>
      </trkpt>
      <trkpt lat="41.19051100" lon="0.864095000">
        <ele>311.00000</ele>
        <time>2010-01-01T00:03:28Z</time>
      </trkpt>
      <trkpt lat="41.19051700" lon="0.864111000">
        <ele>311.00000</ele>
        <time>2010-01-01T00:03:29Z</time>
      </trkpt>
      <trkpt lat="41.19051500" lon="0.864114000">
        <ele>311.00000</ele>
        <time>2010-01-01T00:03:29Z</time>
      </trkpt>
      <trkpt lat="41.19060500" lon="0.864371000">
        <ele>313.00000</ele>
        <time>2010-01-01T00:03:37Z</time>
      </trkpt>
      <trkpt lat="41.19067700" lon="0.864476000">
        <ele>314.00000</ele>
        <time>2010-01-01T00:03:42Z</time>
      </trkpt>
      <trkpt lat="41.19075800" lon="0.864549000">
        <ele>314.00000</ele>
        <time>2010-01-01T00:03:46Z</time>
      </trkpt>
      <trkpt lat="41.19084600" lon="0.864592000">
        <ele>314.00000</ele>
        <time>2010-01-01T00:03:49Z</time>
      </trkpt>
      <trkpt lat="41.19095300" lon="0.864754000">
        <ele>315.00000</ele>
        <time>2010-01-01T00:03:56Z</time>
      </trkpt>
      <trkpt lat="41.19096000" lon="0.864885000">
        <ele>315.00000</ele>
        <time>2010-01-01T00:04:00Z</time>
      </trkpt>
      <trkpt lat="41.19101800" lon="0.865249000">
        <ele>316.00000</ele>
        <time>2010-01-01T00:04:11Z</time>
      </trkpt>
      <trkpt lat="41.19115400" lon="0.865891000">
        <ele>319.00000</ele>
        <time>2010-01-01T00:04:31Z</time>
      </trkpt>
      <trkpt lat="41.19123800" lon="0.866099000">
        <ele>322.00000</ele>
        <time>2010-01-01T00:04:38Z</time>
      </trkpt>
      <trkpt lat="41.19125700" lon="0.866208000">
        <ele>323.00000</ele>
        <time>2010-01-01T00:04:42Z</time>
      </trkpt>
      <trkpt lat="41.19130200" lon="0.866316000">
        <ele>324.00000</ele>
        <time>2010-01-01T00:04:45Z</time>
      </trkpt>
      <trkpt lat="41.19134600" lon="0.866529000">
        <ele>324.00000</ele>
        <time>2010-01-01T00:04:52Z</time>
      </trkpt>
      <trkpt lat="41.19135800" lon="0.866571000">
        <ele>324.00000</ele>
        <time>2010-01-01T00:04:53Z</time>
      </trkpt>
      <trkpt lat="41.19136900" lon="0.866660000">
        <ele>323.00000</ele>
        <time>2010-01-01T00:04:56Z</time>
      </trkpt>
      <trkpt lat="41.19138900" lon="0.866698000">
        <ele>323.00000</ele>
        <time>2010-01-01T00:04:57Z</time>
      </trkpt>
      <trkpt lat="41.19142700" lon="0.866790000">
        <ele>324.00000</ele>
        <time>2010-01-01T00:05:01Z</time>
      </trkpt>
      <trkpt lat="41.19150300" lon="0.866991000">
        <ele>324.00000</ele>
        <time>2010-01-01T00:05:07Z</time>
      </trkpt>
      <trkpt lat="41.19154500" lon="0.867091000">
        <ele>323.00000</ele>
        <time>2010-01-01T00:05:11Z</time>
      </trkpt>
      <trkpt lat="41.19173700" lon="0.867177000">
        <ele>325.00000</ele>
        <time>2010-01-01T00:05:19Z</time>
      </trkpt>
      <trkpt lat="41.19212000" lon="0.867106000">
        <ele>332.00000</ele>
        <time>2010-01-01T00:05:34Z</time>
      </trkpt>
      <trkpt lat="41.19224000" lon="0.867079000">
        <ele>335.00000</ele>
        <time>2010-01-01T00:05:39Z</time>
      </trkpt>
      <trkpt lat="41.19237100" lon="0.867023000">
        <ele>337.00000</ele>
        <time>2010-01-01T00:05:45Z</time>
      </trkpt>
      <trkpt lat="41.19245100" lon="0.866960000">
        <ele>338.00000</ele>
        <time>2010-01-01T00:05:48Z</time>
      </trkpt>
      <trkpt lat="41.19268100" lon="0.866954000">
        <ele>341.00000</ele>
        <time>2010-01-01T00:05:58Z</time>
      </trkpt>
      <trkpt lat="41.19297400" lon="0.867089000">
        <ele>340.00000</ele>
        <time>2010-01-01T00:06:10Z</time>
      </trkpt>
      <trkpt lat="41.19320800" lon="0.867129000">
        <ele>339.00000</ele>
        <time>2010-01-01T00:06:20Z</time>
      </trkpt>
      <trkpt lat="41.19344600" lon="0.867151000">
        <ele>339.00000</ele>
        <time>2010-01-01T00:06:29Z</time>
      </trkpt>
      <trkpt lat="41.19360200" lon="0.867229000">
        <ele>338.00000</ele>
        <time>2010-01-01T00:06:36Z</time>
      </trkpt>
      <trkpt lat="41.19370200" lon="0.867267000">
        <ele>338.00000</ele>
        <time>2010-01-01T00:06:40Z</time>
      </trkpt>
      <trkpt lat="41.19392800" lon="0.867375000">
        <ele>340.00000</ele>
        <time>2010-01-01T00:06:50Z</time>
      </trkpt>
      <trkpt lat="41.19410400" lon="0.867574000">
        <ele>342.00000</ele>
        <time>2010-01-01T00:06:59Z</time>
      </trkpt>
      <trkpt lat="41.19455900" lon="0.867780000">
        <ele>341.00000</ele>
        <time>2010-01-01T00:07:18Z</time>
      </trkpt>
      <trkpt lat="41.19478700" lon="0.867681000">
        <ele>342.00000</ele>
        <time>2010-01-01T00:07:28Z</time>
      </trkpt>
      <trkpt lat="41.19487800" lon="0.867596000">
        <ele>345.00000</ele>
        <time>2010-01-01T00:07:32Z</time>
      </trkpt>
      <trkpt lat="41.19502600" lon="0.867503000">
        <ele>348.00000</ele>
        <time>2010-01-01T00:07:39Z</time>
      </trkpt>
      <trkpt lat="41.19507400" lon="0.867452000">
        <ele>350.00000</ele>
        <time>2010-01-01T00:07:41Z</time>
      </trkpt>
      <trkpt lat="41.19508700" lon="0.867332000">
        <ele>351.00000</ele>
        <time>2010-01-01T00:07:45Z</time>
      </trkpt>
      <trkpt lat="41.19508900" lon="0.867289000">
        <ele>352.00000</ele>
        <time>2010-01-01T00:07:46Z</time>
      </trkpt>
      <trkpt lat="41.19508800" lon="0.866961000">
        <ele>354.00000</ele>
        <time>2010-01-01T00:07:56Z</time>
      </trkpt>
      <trkpt lat="41.19520200" lon="0.866653000">
        <ele>354.00000</ele>
        <time>2010-01-01T00:08:06Z</time>
      </trkpt>
      <trkpt lat="41.19553700" lon="0.866436000">
        <ele>358.00000</ele>
        <time>2010-01-01T00:08:21Z</time>
      </trkpt>
      <trkpt lat="41.19572800" lon="0.866379000">
        <ele>362.00000</ele>
        <time>2010-01-01T00:08:29Z</time>
      </trkpt>
      <trkpt lat="41.19585500" lon="0.866330000">
        <ele>364.00000</ele>
        <time>2010-01-01T00:08:34Z</time>
      </trkpt>
      <trkpt lat="41.19618700" lon="0.866259000">
        <ele>367.00000</ele>
        <time>2010-01-01T00:08:48Z</time>
      </trkpt>
      <trkpt lat="41.19640800" lon="0.866212000">
        <ele>367.00000</ele>
        <time>2010-01-01T00:08:57Z</time>
      </trkpt>
      <trkpt lat="41.19654700" lon="0.866190000">
        <ele>368.00000</ele>
        <time>2010-01-01T00:09:02Z</time>
      </trkpt>
      <trkpt lat="41.19674100" lon="0.866190000">
        <ele>370.00000</ele>
        <time>2010-01-01T00:09:10Z</time>
      </trkpt>
      <trkpt lat="41.19731300" lon="0.866156000">
        <ele>373.00000</ele>
        <time>2010-01-01T00:09:33Z</time>
      </trkpt>
      <trkpt lat="41.19748000" lon="0.866084000">
        <ele>373.00000</ele>
        <time>2010-01-01T00:09:40Z</time>
      </trkpt>
      <trkpt lat="41.19755200" lon="0.866077000">
        <ele>374.00000</ele>
        <time>2010-01-01T00:09:43Z</time>
      </trkpt>
      <trkpt lat="41.19767500" lon="0.866155000">
        <ele>378.00000</ele>
        <time>2010-01-01T00:09:48Z</time>
      </trkpt>
      <trkpt lat="41.19737400" lon="0.866332000">
        <ele>378.00000</ele>
        <time>2010-01-01T00:10:02Z</time>
      </trkpt>
      <trkpt lat="41.19723800" lon="0.866370000">
        <ele>378.00000</ele>
        <time>2010-01-01T00:10:07Z</time>
      </trkpt>
      <trkpt lat="41.19710400" lon="0.866402000">
        <ele>378.00000</ele>
        <time>2010-01-01T00:10:13Z</time>
      </trkpt>
      <trkpt lat="41.19700700" lon="0.866429000">
        <ele>378.00000</ele>
        <time>2010-01-01T00:10:17Z</time>
      </trkpt>
      <trkpt lat="41.19667800" lon="0.866548000">
        <ele>377.00000</ele>
        <time>2010-01-01T00:10:30Z</time>
      </trkpt>
      <trkpt lat="41.19662600" lon="0.866800000">
        <ele>382.00000</ele>
        <time>2010-01-01T00:10:38Z</time>
      </trkpt>
      <trkpt lat="41.19684800" lon="0.867139000">
        <ele>394.00000</ele>
        <time>2010-01-01T00:10:52Z</time>
      </trkpt>
      <trkpt lat="41.19697400" lon="0.867321000">
        <ele>398.00000</ele>
        <time>2010-01-01T00:10:59Z</time>
      </trkpt>
      <trkpt lat="41.19698300" lon="0.867550000">
        <ele>399.00000</ele>
        <time>2010-01-01T00:11:06Z</time>
      </trkpt>
      <trkpt lat="41.19687300" lon="0.867546000">
        <ele>397.00000</ele>
        <time>2010-01-01T00:11:10Z</time>
      </trkpt>
      <trkpt lat="41.19633600" lon="0.867273000">
        <ele>387.00000</ele>
        <time>2010-01-01T00:11:33Z</time>
      </trkpt>
      <trkpt lat="41.19621800" lon="0.867337000">
        <ele>386.00000</ele>
        <time>2010-01-01T00:11:39Z</time>
      </trkpt>
      <trkpt lat="41.19660000" lon="0.867607000">
        <ele>394.00000</ele>
        <time>2010-01-01T00:11:56Z</time>
      </trkpt>
      <trkpt lat="41.19671400" lon="0.867687000">
        <ele>395.00000</ele>
        <time>2010-01-01T00:12:01Z</time>
      </trkpt>
      <trkpt lat="41.19694800" lon="0.867872000">
        <ele>400.00000</ele>
        <time>2010-01-01T00:12:12Z</time>
      </trkpt>
      <trkpt lat="41.19725900" lon="0.867912000">
        <ele>409.00000</ele>
        <time>2010-01-01T00:12:24Z</time>
      </trkpt>
      <trkpt lat="41.19740600" lon="0.867885000">
        <ele>412.00000</ele>
        <time>2010-01-01T00:12:30Z</time>
      </trkpt>
      <trkpt lat="41.19754500" lon="0.867864000">
        <ele>415.00000</ele>
        <time>2010-01-01T00:12:36Z</time>
      </trkpt>
      <trkpt lat="41.19768000" lon="0.867841000">
        <ele>417.00000</ele>
        <time>2010-01-01T00:12:41Z</time>
      </trkpt>
      <trkpt lat="41.19776700" lon="0.867833000">
        <ele>419.00000</ele>
        <time>2010-01-01T00:12:45Z</time>
      </trkpt>
      <trkpt lat="41.19780700" lon="0.867837000">
        <ele>420.00000</ele>
        <time>2010-01-01T00:12:46Z</time>
      </trkpt>
      <trkpt lat="41.19791400" lon="0.867868000">
        <ele>422.00000</ele>
        <time>2010-01-01T00:12:51Z</time>
      </trkpt>
      <trkpt lat="41.19799600" lon="0.867773000">
        <ele>422.00000</ele>
        <time>2010-01-01T00:12:55Z</time>
      </trkpt>
      <trkpt lat="41.19791700" lon="0.867597000">
        <ele>420.00000</ele>
        <time>2010-01-01T00:13:01Z</time>
      </trkpt>
      <trkpt lat="41.19790700" lon="0.867449000">
        <ele>418.00000</ele>
        <time>2010-01-01T00:13:06Z</time>
      </trkpt>
      <trkpt lat="41.19822700" lon="0.867316000">
        <ele>420.00000</ele>
        <time>2010-01-01T00:13:19Z</time>
      </trkpt>
      <trkpt lat="41.19828600" lon="0.867175000">
        <ele>418.00000</ele>
        <time>2010-01-01T00:13:24Z</time>
      </trkpt>
      <trkpt lat="41.19854900" lon="0.867087000">
        <ele>416.00000</ele>
        <time>2010-01-01T00:13:35Z</time>
      </trkpt>
      <trkpt lat="41.19885900" lon="0.867339000">
        <ele>425.00000</ele>
        <time>2010-01-01T00:13:50Z</time>
      </trkpt>
      <trkpt lat="41.19905200" lon="0.867308000">
        <ele>426.00000</ele>
        <time>2010-01-01T00:13:57Z</time>
      </trkpt>
      <trkpt lat="41.19914600" lon="0.867227000">
        <ele>423.00000</ele>
        <time>2010-01-01T00:14:02Z</time>
      </trkpt>
      <trkpt lat="41.19938900" lon="0.867105000">
        <ele>419.00000</ele>
        <time>2010-01-01T00:14:12Z</time>
      </trkpt>
      <trkpt lat="41.19943300" lon="0.867135000">
        <ele>420.00000</ele>
        <time>2010-01-01T00:14:14Z</time>
      </trkpt>
      <trkpt lat="41.19989400" lon="0.867429000">
        <ele>433.00000</ele>
        <time>2010-01-01T00:14:35Z</time>
      </trkpt>
      <trkpt lat="41.20002800" lon="0.867314000">
        <ele>432.00000</ele>
        <time>2010-01-01T00:14:41Z</time>
      </trkpt>
      <trkpt lat="41.20015200" lon="0.866854000">
        <ele>423.00000</ele>
        <time>2010-01-01T00:14:56Z</time>
      </trkpt>
      <trkpt lat="41.20041500" lon="0.866998000">
        <ele>433.00000</ele>
        <time>2010-01-01T00:15:07Z</time>
      </trkpt>
      <trkpt lat="41.20058000" lon="0.866888000">
        <ele>434.00000</ele>
        <time>2010-01-01T00:15:15Z</time>
      </trkpt>
      <trkpt lat="41.20065900" lon="0.866414000">
        <ele>426.00000</ele>
        <time>2010-01-01T00:15:29Z</time>
      </trkpt>
      <trkpt lat="41.20080000" lon="0.866197000">
        <ele>424.00000</ele>
        <time>2010-01-01T00:15:38Z</time>
      </trkpt>
      <trkpt lat="41.20096900" lon="0.866160000">
        <ele>426.00000</ele>
        <time>2010-01-01T00:15:45Z</time>
      </trkpt>
      <trkpt lat="41.20115500" lon="0.866324000">
        <ele>435.00000</ele>
        <time>2010-01-01T00:15:54Z</time>
      </trkpt>
      <trkpt lat="41.20125200" lon="0.866406000">
        <ele>441.00000</ele>
        <time>2010-01-01T00:15:58Z</time>
      </trkpt>
      <trkpt lat="41.20153100" lon="0.866226000">
        <ele>442.00000</ele>
        <time>2010-01-01T00:16:11Z</time>
      </trkpt>
      <trkpt lat="41.20193700" lon="0.866044000">
        <ele>446.00000</ele>
        <time>2010-01-01T00:16:28Z</time>
      </trkpt>
      <trkpt lat="41.20201800" lon="0.865986000">
        <ele>447.00000</ele>
        <time>2010-01-01T00:16:31Z</time>
      </trkpt>
      <trkpt lat="41.20210200" lon="0.865965000">
        <ele>448.00000</ele>
        <time>2010-01-01T00:16:35Z</time>
      </trkpt>
      <trkpt lat="41.20221700" lon="0.865983000">
        <ele>450.00000</ele>
        <time>2010-01-01T00:16:40Z</time>
      </trkpt>
      <trkpt lat="41.20229900" lon="0.865995000">
        <ele>452.00000</ele>
        <time>2010-01-01T00:16:43Z</time>
      </trkpt>
      <trkpt lat="41.20233500" lon="0.865950000">
        <ele>453.00000</ele>
        <time>2010-01-01T00:16:45Z</time>
      </trkpt>
      <trkpt lat="41.20216800" lon="0.865598000">
        <ele>450.00000</ele>
        <time>2010-01-01T00:16:57Z</time>
      </trkpt>
      <trkpt lat="41.20210200" lon="0.865519000">
        <ele>449.00000</ele>
        <time>2010-01-01T00:17:01Z</time>
      </trkpt>
      <trkpt lat="41.20192100" lon="0.865322000">
        <ele>448.00000</ele>
        <time>2010-01-01T00:17:10Z</time>
      </trkpt>
      <trkpt lat="41.20188700" lon="0.865342000">
        <ele>447.00000</ele>
        <time>2010-01-01T00:17:12Z</time>
      </trkpt>
      <trkpt lat="41.20186800" lon="0.865233000">
        <ele>447.00000</ele>
        <time>2010-01-01T00:17:15Z</time>
      </trkpt>
      <trkpt lat="41.20192900" lon="0.865105000">
        <ele>446.00000</ele>
        <time>2010-01-01T00:17:20Z</time>
      </trkpt>
      <trkpt lat="41.20228200" lon="0.865205000">
        <ele>452.00000</ele>
        <time>2010-01-01T00:17:34Z</time>
      </trkpt>
      <trkpt lat="41.20253400" lon="0.865327000">
        <ele>460.00000</ele>
        <time>2010-01-01T00:17:45Z</time>
      </trkpt>
      <trkpt lat="41.20258400" lon="0.865354000">
        <ele>461.00000</ele>
        <time>2010-01-01T00:17:47Z</time>
      </trkpt>
      <trkpt lat="41.20272700" lon="0.865390000">
        <ele>463.00000</ele>
        <time>2010-01-01T00:17:53Z</time>
      </trkpt>
      <trkpt lat="41.20286700" lon="0.865377000">
        <ele>465.00000</ele>
        <time>2010-01-01T00:17:58Z</time>
      </trkpt>
      <trkpt lat="41.20291700" lon="0.865373000">
        <ele>466.00000</ele>
        <time>2010-01-01T00:18:00Z</time>
      </trkpt>
      <trkpt lat="41.20317600" lon="0.865519000">
        <ele>475.00000</ele>
        <time>2010-01-01T00:18:12Z</time>
      </trkpt>
      <trkpt lat="41.20327100" lon="0.865762000">
        <ele>481.00000</ele>
        <time>2010-01-01T00:18:20Z</time>
      </trkpt>
      <trkpt lat="41.20338800" lon="0.866095000">
        <ele>488.00000</ele>
        <time>2010-01-01T00:18:31Z</time>
      </trkpt>
      <trkpt lat="41.20348800" lon="0.866304000">
        <ele>494.00000</ele>
        <time>2010-01-01T00:18:38Z</time>
      </trkpt>
      <trkpt lat="41.20344300" lon="0.866513000">
        <ele>494.00000</ele>
        <time>2010-01-01T00:18:45Z</time>
      </trkpt>
      <trkpt lat="41.20333300" lon="0.866783000">
        <ele>492.00000</ele>
        <time>2010-01-01T00:18:54Z</time>
      </trkpt>
      <trkpt lat="41.20325500" lon="0.866937000">
        <ele>491.00000</ele>
        <time>2010-01-01T00:19:00Z</time>
      </trkpt>
      <trkpt lat="41.20323300" lon="0.867025000">
        <ele>491.00000</ele>
        <time>2010-01-01T00:19:03Z</time>
      </trkpt>
      <trkpt lat="41.20339400" lon="0.867035000">
        <ele>492.00000</ele>
        <time>2010-01-01T00:19:09Z</time>
      </trkpt>
      <trkpt lat="41.20354600" lon="0.866891000">
        <ele>495.00000</ele>
        <time>2010-01-01T00:19:17Z</time>
      </trkpt>
      <trkpt lat="41.20361300" lon="0.866823000">
        <ele>496.00000</ele>
        <time>2010-01-01T00:19:20Z</time>
      </trkpt>
      <trkpt lat="41.20368100" lon="0.866692000">
        <ele>498.00000</ele>
        <time>2010-01-01T00:19:25Z</time>
      </trkpt>
      <trkpt lat="41.20373700" lon="0.866428000">
        <ele>500.00000</ele>
        <time>2010-01-01T00:19:33Z</time>
      </trkpt>
      <trkpt lat="41.20373400" lon="0.866222000">
        <ele>500.00000</ele>
        <time>2010-01-01T00:19:39Z</time>
      </trkpt>
      <trkpt lat="41.20373800" lon="0.866096000">
        <ele>499.00000</ele>
        <time>2010-01-01T00:19:43Z</time>
      </trkpt>
      <trkpt lat="41.20400000" lon="0.865973000">
        <ele>500.00000</ele>
        <time>2010-01-01T00:19:54Z</time>
      </trkpt>
      <trkpt lat="41.20416500" lon="0.866056000">
        <ele>502.00000</ele>
        <time>2010-01-01T00:20:01Z</time>
      </trkpt>
      <trkpt lat="41.20437000" lon="0.866036000">
        <ele>501.00000</ele>
        <time>2010-01-01T00:20:09Z</time>
      </trkpt>
      <trkpt lat="41.20440600" lon="0.866035000">
        <ele>501.00000</ele>
        <time>2010-01-01T00:20:11Z</time>
      </trkpt>
      <trkpt lat="41.20473200" lon="0.866182000">
        <ele>507.00000</ele>
        <time>2010-01-01T00:20:25Z</time>
      </trkpt>
      <trkpt lat="41.20501600" lon="0.866224000">
        <ele>509.00000</ele>
        <time>2010-01-01T00:20:36Z</time>
      </trkpt>
      <trkpt lat="41.20543800" lon="0.866456000">
        <ele>519.00000</ele>
        <time>2010-01-01T00:20:54Z</time>
      </trkpt>
      <trkpt lat="41.20573200" lon="0.866507000">
        <ele>522.00000</ele>
        <time>2010-01-01T00:21:06Z</time>
      </trkpt>
      <trkpt lat="41.20584800" lon="0.866419000">
        <ele>520.00000</ele>
        <time>2010-01-01T00:21:12Z</time>
      </trkpt>
      <trkpt lat="41.20625700" lon="0.866324000">
        <ele>524.00000</ele>
        <time>2010-01-01T00:21:28Z</time>
      </trkpt>
      <trkpt lat="41.20639200" lon="0.866330000">
        <ele>527.00000</ele>
        <time>2010-01-01T00:21:34Z</time>
      </trkpt>
      <trkpt lat="41.20666800" lon="0.866261000">
        <ele>530.00000</ele>
        <time>2010-01-01T00:21:45Z</time>
      </trkpt>
      <trkpt lat="41.20692800" lon="0.866115000">
        <ele>530.00000</ele>
        <time>2010-01-01T00:21:56Z</time>
      </trkpt>
      <trkpt lat="41.20702100" lon="0.865999000">
        <ele>531.00000</ele>
        <time>2010-01-01T00:22:01Z</time>
      </trkpt>
      <trkpt lat="41.20711900" lon="0.865907000">
        <ele>533.00000</ele>
        <time>2010-01-01T00:22:06Z</time>
      </trkpt>
      <trkpt lat="41.20723600" lon="0.865636000">
        <ele>534.00000</ele>
        <time>2010-01-01T00:22:15Z</time>
      </trkpt>
      <trkpt lat="41.20724500" lon="0.865554000">
        <ele>533.00000</ele>
        <time>2010-01-01T00:22:18Z</time>
      </trkpt>
      <trkpt lat="41.20727100" lon="0.865223000">
        <ele>533.00000</ele>
        <time>2010-01-01T00:22:28Z</time>
      </trkpt>
      <trkpt lat="41.20729100" lon="0.865138000">
        <ele>534.00000</ele>
        <time>2010-01-01T00:22:31Z</time>
      </trkpt>
      <trkpt lat="41.20735000" lon="0.864887000">
        <ele>536.00000</ele>
        <time>2010-01-01T00:22:39Z</time>
      </trkpt>
      <trkpt lat="41.20735400" lon="0.864893000">
        <ele>537.00000</ele>
        <time>2010-01-01T00:22:39Z</time>
      </trkpt>
      <trkpt lat="41.20735500" lon="0.864887000">
        <ele>537.00000</ele>
        <time>2010-01-01T00:22:39Z</time>
      </trkpt>
      <trkpt lat="41.20736400" lon="0.864859000">
        <ele>537.00000</ele>
        <time>2010-01-01T00:22:40Z</time>
      </trkpt>
      <trkpt lat="41.20736300" lon="0.864859000">
        <ele>537.00000</ele>
        <time>2010-01-01T00:22:40Z</time>
      </trkpt>
      <trkpt lat="41.20736300" lon="0.864860000">
        <ele>537.00000</ele>
        <time>2010-01-01T00:22:40Z</time>
      </trkpt>
      <trkpt lat="41.20735000" lon="0.864882000">
        <ele>536.00000</ele>
        <time>2010-01-01T00:22:41Z</time>
      </trkpt>
      <trkpt lat="41.20736500" lon="0.864832000">
        <ele>537.00000</ele>
        <time>2010-01-01T00:22:42Z</time>
      </trkpt>
      <trkpt lat="41.20743100" lon="0.864773000">
        <ele>538.00000</ele>
        <time>2010-01-01T00:22:46Z</time>
      </trkpt>
      <trkpt lat="41.20762000" lon="0.864882000">
        <ele>538.00000</ele>
        <time>2010-01-01T00:22:54Z</time>
      </trkpt>
      <trkpt lat="41.20762400" lon="0.864884000">
        <ele>538.00000</ele>
        <time>2010-01-01T00:22:54Z</time>
      </trkpt>
      <trkpt lat="41.20765300" lon="0.864887000">
        <ele>537.00000</ele>
        <time>2010-01-01T00:22:55Z</time>
      </trkpt>
      <trkpt lat="41.20765400" lon="0.864888000">
        <ele>537.00000</ele>
        <time>2010-01-01T00:22:55Z</time>
      </trkpt>
      <trkpt lat="41.20768000" lon="0.864932000">
        <ele>537.00000</ele>
        <time>2010-01-01T00:22:57Z</time>
      </trkpt>
      <trkpt lat="41.20795900" lon="0.865361000">
        <ele>533.00000</ele>
        <time>2010-01-01T00:23:14Z</time>
      </trkpt>
      <trkpt lat="41.20819800" lon="0.865763000">
        <ele>528.00000</ele>
        <time>2010-01-01T00:23:30Z</time>
      </trkpt>
      <trkpt lat="41.20818000" lon="0.866160000">
        <ele>531.00000</ele>
        <time>2010-01-01T00:23:41Z</time>
      </trkpt>
      <trkpt lat="41.20810000" lon="0.866505000">
        <ele>537.00000</ele>
        <time>2010-01-01T00:23:52Z</time>
      </trkpt>
      <trkpt lat="41.20829500" lon="0.866772000">
        <ele>532.00000</ele>
        <time>2010-01-01T00:24:04Z</time>
      </trkpt>
      <trkpt lat="41.20862200" lon="0.867062000">
        <ele>524.00000</ele>
        <time>2010-01-01T00:24:19Z</time>
      </trkpt>
      <trkpt lat="41.20899500" lon="0.867132000">
        <ele>519.00000</ele>
        <time>2010-01-01T00:24:34Z</time>
      </trkpt>
      <trkpt lat="41.20936100" lon="0.867206000">
        <ele>512.00000</ele>
        <time>2010-01-01T00:24:49Z</time>
      </trkpt>
      <trkpt lat="41.20949900" lon="0.867533000">
        <ele>512.00000</ele>
        <time>2010-01-01T00:25:00Z</time>
      </trkpt>
      <trkpt lat="41.20956000" lon="0.867909000">
        <ele>515.00000</ele>
        <time>2010-01-01T00:25:12Z</time>
      </trkpt>
      <trkpt lat="41.20957000" lon="0.867965000">
        <ele>515.00000</ele>
        <time>2010-01-01T00:25:14Z</time>
      </trkpt>
      <trkpt lat="41.20981500" lon="0.868231000">
        <ele>512.00000</ele>
        <time>2010-01-01T00:25:26Z</time>
      </trkpt>
      <trkpt lat="41.21018600" lon="0.868162000">
        <ele>502.00000</ele>
        <time>2010-01-01T00:25:41Z</time>
      </trkpt>
      <trkpt lat="41.21058800" lon="0.868312000">
        <ele>495.00000</ele>
        <time>2010-01-01T00:25:58Z</time>
      </trkpt>
      <trkpt lat="41.21081100" lon="0.868413000">
        <ele>492.00000</ele>
        <time>2010-01-01T00:26:08Z</time>
      </trkpt>
      <trkpt lat="41.21083200" lon="0.868421000">
        <ele>492.00000</ele>
        <time>2010-01-01T00:26:08Z</time>
      </trkpt>
      <trkpt lat="41.21106500" lon="0.868624000">
        <ele>493.00000</ele>
        <time>2010-01-01T00:26:20Z</time>
      </trkpt>
      <trkpt lat="41.21112700" lon="0.868745000">
        <ele>495.00000</ele>
        <time>2010-01-01T00:26:24Z</time>
      </trkpt>
      <trkpt lat="41.21135000" lon="0.868950000">
        <ele>493.00000</ele>
        <time>2010-01-01T00:26:35Z</time>
      </trkpt>
      <trkpt lat="41.21145500" lon="0.868956000">
        <ele>490.00000</ele>
        <time>2010-01-01T00:26:39Z</time>
      </trkpt>
      <trkpt lat="41.21181700" lon="0.868954000">
        <ele>478.00000</ele>
        <time>2010-01-01T00:26:54Z</time>
      </trkpt>
      <trkpt lat="41.21211900" lon="0.869358000">
        <ele>480.00000</ele>
        <time>2010-01-01T00:27:11Z</time>
      </trkpt>
      <trkpt lat="41.21234700" lon="0.869735000">
        <ele>483.00000</ele>
        <time>2010-01-01T00:27:25Z</time>
      </trkpt>
      <trkpt lat="41.21257800" lon="0.869975000">
        <ele>481.00000</ele>
        <time>2010-01-01T00:27:37Z</time>
      </trkpt>
      <trkpt lat="41.21273900" lon="0.870090000">
        <ele>479.00000</ele>
        <time>2010-01-01T00:27:44Z</time>
      </trkpt>
      <trkpt lat="41.21300300" lon="0.870258000">
        <ele>473.00000</ele>
        <time>2010-01-01T00:27:56Z</time>
      </trkpt>
      <trkpt lat="41.21339900" lon="0.870593000">
        <ele>467.00000</ele>
        <time>2010-01-01T00:28:15Z</time>
      </trkpt>
      <trkpt lat="41.21360500" lon="0.870873000">
        <ele>464.00000</ele>
        <time>2010-01-01T00:28:27Z</time>
      </trkpt>
      <trkpt lat="41.21370000" lon="0.871053000">
        <ele>461.00000</ele>
        <time>2010-01-01T00:28:33Z</time>
      </trkpt>
      <trkpt lat="41.21374100" lon="0.871146000">
        <ele>460.00000</ele>
        <time>2010-01-01T00:28:37Z</time>
      </trkpt>
      <trkpt lat="41.21376200" lon="0.871194000">
        <ele>461.00000</ele>
        <time>2010-01-01T00:28:38Z</time>
      </trkpt>
      <trkpt lat="41.21389800" lon="0.871548000">
        <ele>460.00000</ele>
        <time>2010-01-01T00:28:50Z</time>
      </trkpt>
      <trkpt lat="41.21410800" lon="0.872090000">
        <ele>455.00000</ele>
        <time>2010-01-01T00:29:09Z</time>
      </trkpt>
      <trkpt lat="41.21415700" lon="0.872401000">
        <ele>452.00000</ele>
        <time>2010-01-01T00:29:18Z</time>
      </trkpt>
      <trkpt lat="41.21394900" lon="0.872747000">
        <ele>450.00000</ele>
        <time>2010-01-01T00:29:31Z</time>
      </trkpt>
      <trkpt lat="41.21373900" lon="0.872938000">
        <ele>452.00000</ele>
        <time>2010-01-01T00:29:42Z</time>
      </trkpt>
      <trkpt lat="41.21354100" lon="0.873207000">
        <ele>451.00000</ele>
        <time>2010-01-01T00:29:53Z</time>
      </trkpt>
      <trkpt lat="41.21343600" lon="0.873589000">
        <ele>445.00000</ele>
        <time>2010-01-01T00:30:05Z</time>
      </trkpt>
      <trkpt lat="41.21341200" lon="0.873903000">
        <ele>441.00000</ele>
        <time>2010-01-01T00:30:15Z</time>
      </trkpt>
      <trkpt lat="41.21366800" lon="0.874066000">
        <ele>434.00000</ele>
        <time>2010-01-01T00:30:26Z</time>
      </trkpt>
      <trkpt lat="41.21378300" lon="0.873981000">
        <ele>434.00000</ele>
        <time>2010-01-01T00:30:31Z</time>
      </trkpt>
      <trkpt lat="41.21413000" lon="0.873767000">
        <ele>434.00000</ele>
        <time>2010-01-01T00:30:47Z</time>
      </trkpt>
      <trkpt lat="41.21440500" lon="0.873596000">
        <ele>434.00000</ele>
        <time>2010-01-01T00:30:59Z</time>
      </trkpt>
      <trkpt lat="41.21479400" lon="0.873278000">
        <ele>429.00000</ele>
        <time>2010-01-01T00:31:17Z</time>
      </trkpt>
      <trkpt lat="41.21519400" lon="0.872839000">
        <ele>427.00000</ele>
        <time>2010-01-01T00:31:38Z</time>
      </trkpt>
      <trkpt lat="41.21562400" lon="0.872417000">
        <ele>422.00000</ele>
        <time>2010-01-01T00:31:59Z</time>
      </trkpt>
      <trkpt lat="41.21627900" lon="0.872484000">
        <ele>419.00000</ele>
        <time>2010-01-01T00:32:26Z</time>
      </trkpt>
      <trkpt lat="41.21699400" lon="0.872715000">
        <ele>415.00000</ele>
        <time>2010-01-01T00:32:55Z</time>
      </trkpt>
      <trkpt lat="41.21759400" lon="0.872848000">
        <ele>416.00000</ele>
        <time>2010-01-01T00:33:19Z</time>
      </trkpt>
      <trkpt lat="41.21806700" lon="0.872749000">
        <ele>408.00000</ele>
        <time>2010-01-01T00:33:39Z</time>
      </trkpt>
      <trkpt lat="41.21854800" lon="0.872522000">
        <ele>410.00000</ele>
        <time>2010-01-01T00:33:59Z</time>
      </trkpt>
      <trkpt lat="41.21880200" lon="0.872269000">
        <ele>407.00000</ele>
        <time>2010-01-01T00:34:12Z</time>
      </trkpt>
      <trkpt lat="41.21896000" lon="0.872196000">
        <ele>406.00000</ele>
        <time>2010-01-01T00:34:18Z</time>
      </trkpt>
      <trkpt lat="41.21970300" lon="0.872398000">
        <ele>406.00000</ele>
        <time>2010-01-01T00:34:49Z</time>
      </trkpt>
      <trkpt lat="41.22019000" lon="0.872441000">
        <ele>407.00000</ele>
        <time>2010-01-01T00:35:08Z</time>
      </trkpt>
      <trkpt lat="41.22034100" lon="0.872399000">
        <ele>407.00000</ele>
        <time>2010-01-01T00:35:14Z</time>
      </trkpt>
      <trkpt lat="41.22043900" lon="0.872391000">
        <ele>407.00000</ele>
        <time>2010-01-01T00:35:18Z</time>
      </trkpt>
      <trkpt lat="41.22155300" lon="0.872057000">
        <ele>402.00000</ele>
        <time>2010-01-01T00:36:04Z</time>
      </trkpt>
      <trkpt lat="41.22181300" lon="0.872021000">
        <ele>398.00000</ele>
        <time>2010-01-01T00:36:15Z</time>
      </trkpt>
      <trkpt lat="41.22205300" lon="0.872362000">
        <ele>399.00000</ele>
        <time>2010-01-01T00:36:29Z</time>
      </trkpt>
      <trkpt lat="41.22204200" lon="0.872619000">
        <ele>403.00000</ele>
        <time>2010-01-01T00:36:36Z</time>
      </trkpt>
      <trkpt lat="41.22218300" lon="0.873048000">
        <ele>407.00000</ele>
        <time>2010-01-01T00:36:50Z</time>
      </trkpt>
      <trkpt lat="41.22275200" lon="0.873745000">
        <ele>404.00000</ele>
        <time>2010-01-01T00:37:21Z</time>
      </trkpt>
      <trkpt lat="41.22287200" lon="0.874027000">
        <ele>404.00000</ele>
        <time>2010-01-01T00:37:31Z</time>
      </trkpt>
      <trkpt lat="41.22300100" lon="0.874568000">
        <ele>406.00000</ele>
        <time>2010-01-01T00:37:48Z</time>
      </trkpt>
      <trkpt lat="41.22316800" lon="0.874982000">
        <ele>404.00000</ele>
        <time>2010-01-01T00:38:02Z</time>
      </trkpt>
      <trkpt lat="41.22369300" lon="0.875108000">
        <ele>403.00000</ele>
        <time>2010-01-01T00:38:24Z</time>
      </trkpt>
      <trkpt lat="41.22383900" lon="0.875087000">
        <ele>405.00000</ele>
        <time>2010-01-01T00:38:30Z</time>
      </trkpt>
      <trkpt lat="41.22425800" lon="0.875210000">
        <ele>410.00000</ele>
        <time>2010-01-01T00:38:47Z</time>
      </trkpt>
      <trkpt lat="41.22461700" lon="0.875477000">
        <ele>416.00000</ele>
        <time>2010-01-01T00:39:03Z</time>
      </trkpt>
      <trkpt lat="41.22507900" lon="0.875667000">
        <ele>425.00000</ele>
        <time>2010-01-01T00:39:23Z</time>
      </trkpt>
      <trkpt lat="41.22529800" lon="0.875649000">
        <ele>427.00000</ele>
        <time>2010-01-01T00:39:31Z</time>
      </trkpt>
      <trkpt lat="41.22540000" lon="0.875642000">
        <ele>428.00000</ele>
        <time>2010-01-01T00:39:35Z</time>
      </trkpt>
      <trkpt lat="41.22566700" lon="0.875708000">
        <ele>432.00000</ele>
        <time>2010-01-01T00:39:46Z</time>
      </trkpt>
      <trkpt lat="41.22613900" lon="0.876148000">
        <ele>433.00000</ele>
        <time>2010-01-01T00:40:09Z</time>
      </trkpt>
      <trkpt lat="41.22694800" lon="0.877046000">
        <ele>432.00000</ele>
        <time>2010-01-01T00:40:52Z</time>
      </trkpt>
      <trkpt lat="41.22774700" lon="0.877960000">
        <ele>432.00000</ele>
        <time>2010-01-01T00:41:34Z</time>
      </trkpt>
      <trkpt lat="41.22826000" lon="0.878468000">
        <ele>438.00000</ele>
        <time>2010-01-01T00:41:59Z</time>
      </trkpt>
      <trkpt lat="41.22866500" lon="0.878655000">
        <ele>439.00000</ele>
        <time>2010-01-01T00:42:17Z</time>
      </trkpt>
      <trkpt lat="41.22905700" lon="0.878784000">
        <ele>443.00000</ele>
        <time>2010-01-01T00:42:33Z</time>
      </trkpt>
      <trkpt lat="41.22961500" lon="0.879141000">
        <ele>434.00000</ele>
        <time>2010-01-01T00:42:58Z</time>
      </trkpt>
      <trkpt lat="41.22996500" lon="0.879778000">
        <ele>435.00000</ele>
        <time>2010-01-01T00:43:21Z</time>
      </trkpt>
      <trkpt lat="41.23010500" lon="0.880047000">
        <ele>435.00000</ele>
        <time>2010-01-01T00:43:31Z</time>
      </trkpt>
      <trkpt lat="41.23029200" lon="0.880203000">
        <ele>431.00000</ele>
        <time>2010-01-01T00:43:40Z</time>
      </trkpt>
      <trkpt lat="41.23040100" lon="0.880236000">
        <ele>431.00000</ele>
        <time>2010-01-01T00:43:44Z</time>
      </trkpt>
      <trkpt lat="41.23050600" lon="0.880256000">
        <ele>430.00000</ele>
        <time>2010-01-01T00:43:49Z</time>
      </trkpt>
      <trkpt lat="41.23055600" lon="0.880269000">
        <ele>429.00000</ele>
        <time>2010-01-01T00:43:51Z</time>
      </trkpt>
      <trkpt lat="41.23081600" lon="0.880818000">
        <ele>432.00000</ele>
        <time>2010-01-01T00:44:10Z</time>
      </trkpt>
      <trkpt lat="41.23095600" lon="0.881232000">
        <ele>434.00000</ele>
        <time>2010-01-01T00:44:24Z</time>
      </trkpt>
      <trkpt lat="41.23109400" lon="0.881326000">
        <ele>433.00000</ele>
        <time>2010-01-01T00:44:30Z</time>
      </trkpt>
      <trkpt lat="41.23121700" lon="0.881430000">
        <ele>432.00000</ele>
        <time>2010-01-01T00:44:36Z</time>
      </trkpt>
      <trkpt lat="41.23126500" lon="0.881875000">
        <ele>432.00000</ele>
        <time>2010-01-01T00:44:50Z</time>
      </trkpt>
      <trkpt lat="41.23120500" lon="0.881960000">
        <ele>432.00000</ele>
        <time>2010-01-01T00:44:53Z</time>
      </trkpt>
      <trkpt lat="41.23106200" lon="0.882090000">
        <ele>432.00000</ele>
        <time>2010-01-01T00:45:00Z</time>
      </trkpt>
      <trkpt lat="41.23091500" lon="0.882213000">
        <ele>433.00000</ele>
        <time>2010-01-01T00:45:07Z</time>
      </trkpt>
      <trkpt lat="41.23084300" lon="0.882281000">
        <ele>433.00000</ele>
        <time>2010-01-01T00:45:10Z</time>
      </trkpt>
      <trkpt lat="41.23075000" lon="0.882558000">
        <ele>435.00000</ele>
        <time>2010-01-01T00:45:20Z</time>
      </trkpt>
      <trkpt lat="41.23076900" lon="0.882609000">
        <ele>435.00000</ele>
        <time>2010-01-01T00:45:21Z</time>
      </trkpt>
      <trkpt lat="41.23098200" lon="0.883013000">
        <ele>434.00000</ele>
        <time>2010-01-01T00:45:36Z</time>
      </trkpt>
      <trkpt lat="41.23104000" lon="0.882992000">
        <ele>432.00000</ele>
        <time>2010-01-01T00:45:39Z</time>
      </trkpt>
      <trkpt lat="41.23102100" lon="0.883330000">
        <ele>436.00000</ele>
        <time>2010-01-01T00:45:49Z</time>
      </trkpt>
      <trkpt lat="41.23111300" lon="0.883688000">
        <ele>436.00000</ele>
        <time>2010-01-01T00:46:00Z</time>
      </trkpt>
      <trkpt lat="41.23164300" lon="0.884135000">
        <ele>432.00000</ele>
        <time>2010-01-01T00:46:25Z</time>
      </trkpt>
      <trkpt lat="41.23179000" lon="0.884595000">
        <ele>432.00000</ele>
        <time>2010-01-01T00:46:40Z</time>
      </trkpt>
      <trkpt lat="41.23180100" lon="0.885026000">
        <ele>432.00000</ele>
        <time>2010-01-01T00:46:53Z</time>
      </trkpt>
      <trkpt lat="41.23229300" lon="0.885338000">
        <ele>426.00000</ele>
        <time>2010-01-01T00:47:15Z</time>
      </trkpt>
      <trkpt lat="41.23285000" lon="0.885935000">
        <ele>427.00000</ele>
        <time>2010-01-01T00:47:44Z</time>
      </trkpt>
      <trkpt lat="41.23310700" lon="0.886571000">
        <ele>427.00000</ele>
        <time>2010-01-01T00:48:05Z</time>
      </trkpt>
      <trkpt lat="41.23331800" lon="0.886965000">
        <ele>428.00000</ele>
        <time>2010-01-01T00:48:20Z</time>
      </trkpt>
      <trkpt lat="41.23378200" lon="0.887193000">
        <ele>427.00000</ele>
        <time>2010-01-01T00:48:40Z</time>
      </trkpt>
      <trkpt lat="41.23398900" lon="0.887343000">
        <ele>426.00000</ele>
        <time>2010-01-01T00:48:49Z</time>
      </trkpt>
      <trkpt lat="41.23448700" lon="0.887898000">
        <ele>424.00000</ele>
        <time>2010-01-01T00:49:15Z</time>
      </trkpt>
      <trkpt lat="41.23448500" lon="0.888415000">
        <ele>423.00000</ele>
        <time>2010-01-01T00:49:31Z</time>
      </trkpt>
      <trkpt lat="41.23444400" lon="0.888472000">
        <ele>424.00000</ele>
        <time>2010-01-01T00:49:33Z</time>
      </trkpt>
      <trkpt lat="41.23384800" lon="0.888961000">
        <ele>423.00000</ele>
        <time>2010-01-01T00:50:01Z</time>
      </trkpt>
      <trkpt lat="41.23337300" lon="0.889361000">
        <ele>425.00000</ele>
        <time>2010-01-01T00:50:24Z</time>
      </trkpt>
      <trkpt lat="41.23304000" lon="0.889686000">
        <ele>422.00000</ele>
        <time>2010-01-01T00:50:40Z</time>
      </trkpt>
      <trkpt lat="41.23300400" lon="0.889738000">
        <ele>421.00000</ele>
        <time>2010-01-01T00:50:42Z</time>
      </trkpt>
      <trkpt lat="41.23287200" lon="0.889974000">
        <ele>419.00000</ele>
        <time>2010-01-01T00:50:51Z</time>
      </trkpt>
      <trkpt lat="41.23270300" lon="0.890647000">
        <ele>417.00000</ele>
        <time>2010-01-01T00:51:13Z</time>
      </trkpt>
      <trkpt lat="41.23273900" lon="0.891368000">
        <ele>415.00000</ele>
        <time>2010-01-01T00:51:34Z</time>
      </trkpt>
      <trkpt lat="41.23278900" lon="0.891642000">
        <ele>415.00000</ele>
        <time>2010-01-01T00:51:43Z</time>
      </trkpt>
      <trkpt lat="41.23281000" lon="0.892088000">
        <ele>408.00000</ele>
        <time>2010-01-01T00:51:56Z</time>
      </trkpt>
      <trkpt lat="41.23285600" lon="0.892155000">
        <ele>406.00000</ele>
        <time>2010-01-01T00:51:59Z</time>
      </trkpt>
      <trkpt lat="41.23286300" lon="0.892157000">
        <ele>405.00000</ele>
        <time>2010-01-01T00:51:59Z</time>
      </trkpt>
      <trkpt lat="41.23289100" lon="0.892127000">
        <ele>405.00000</ele>
        <time>2010-01-01T00:52:01Z</time>
      </trkpt>
      <trkpt lat="41.23286600" lon="0.892198000">
        <ele>405.00000</ele>
        <time>2010-01-01T00:52:03Z</time>
      </trkpt>
      <trkpt lat="41.23287000" lon="0.892228000">
        <ele>404.00000</ele>
        <time>2010-01-01T00:52:04Z</time>
      </trkpt>
      <trkpt lat="41.23282400" lon="0.892222000">
        <ele>405.00000</ele>
        <time>2010-01-01T00:52:06Z</time>
      </trkpt>
      <trkpt lat="41.23275100" lon="0.892370000">
        <ele>406.00000</ele>
        <time>2010-01-01T00:52:11Z</time>
      </trkpt>
      <trkpt lat="41.23238800" lon="0.892875000">
        <ele>407.00000</ele>
        <time>2010-01-01T00:52:32Z</time>
      </trkpt>
      <trkpt lat="41.23216300" lon="0.893255000">
        <ele>406.00000</ele>
        <time>2010-01-01T00:52:47Z</time>
      </trkpt>
      <trkpt lat="41.23215300" lon="0.893390000">
        <ele>404.00000</ele>
        <time>2010-01-01T00:52:51Z</time>
      </trkpt>
      <trkpt lat="41.23216000" lon="0.893360000">
        <ele>404.00000</ele>
        <time>2010-01-01T00:52:52Z</time>
      </trkpt>
      <trkpt lat="41.23220000" lon="0.893417000">
        <ele>403.00000</ele>
        <time>2010-01-01T00:52:54Z</time>
      </trkpt>
      <trkpt lat="41.23237300" lon="0.893497000">
        <ele>401.00000</ele>
        <time>2010-01-01T00:53:02Z</time>
      </trkpt>
      <trkpt lat="41.23275900" lon="0.893916000">
        <ele>399.00000</ele>
        <time>2010-01-01T00:53:22Z</time>
      </trkpt>
      <trkpt lat="41.23273200" lon="0.894003000">
        <ele>400.00000</ele>
        <time>2010-01-01T00:53:24Z</time>
      </trkpt>
      <trkpt lat="41.23263000" lon="0.894132000">
        <ele>400.00000</ele>
        <time>2010-01-01T00:53:30Z</time>
      </trkpt>
      <trkpt lat="41.23250100" lon="0.894364000">
        <ele>401.00000</ele>
        <time>2010-01-01T00:53:39Z</time>
      </trkpt>
      <trkpt lat="41.23230800" lon="0.894850000">
        <ele>403.00000</ele>
        <time>2010-01-01T00:53:55Z</time>
      </trkpt>
      <trkpt lat="41.23214600" lon="0.895025000">
        <ele>402.00000</ele>
        <time>2010-01-01T00:54:04Z</time>
      </trkpt>
      <trkpt lat="41.23184700" lon="0.895257000">
        <ele>402.00000</ele>
        <time>2010-01-01T00:54:17Z</time>
      </trkpt>
      <trkpt lat="41.23171100" lon="0.895416000">
        <ele>402.00000</ele>
        <time>2010-01-01T00:54:25Z</time>
      </trkpt>
      <trkpt lat="41.23161100" lon="0.896036000">
        <ele>406.00000</ele>
        <time>2010-01-01T00:54:44Z</time>
      </trkpt>
      <trkpt lat="41.23157600" lon="0.896209000">
        <ele>408.00000</ele>
        <time>2010-01-01T00:54:49Z</time>
      </trkpt>
      <trkpt lat="41.23147600" lon="0.896458000">
        <ele>409.00000</ele>
        <time>2010-01-01T00:54:58Z</time>
      </trkpt>
      <trkpt lat="41.23128100" lon="0.896974000">
        <ele>415.00000</ele>
        <time>2010-01-01T00:55:15Z</time>
      </trkpt>
      <trkpt lat="41.23108500" lon="0.897461000">
        <ele>416.00000</ele>
        <time>2010-01-01T00:55:32Z</time>
      </trkpt>
      <trkpt lat="41.23101200" lon="0.897711000">
        <ele>417.00000</ele>
        <time>2010-01-01T00:55:40Z</time>
      </trkpt>
      <trkpt lat="41.23099600" lon="0.897957000">
        <ele>419.00000</ele>
        <time>2010-01-01T00:55:47Z</time>
      </trkpt>
      <trkpt lat="41.23100800" lon="0.898254000">
        <ele>422.00000</ele>
        <time>2010-01-01T00:55:56Z</time>
      </trkpt>
      <trkpt lat="41.23098500" lon="0.898478000">
        <ele>423.00000</ele>
        <time>2010-01-01T00:56:03Z</time>
      </trkpt>
      <trkpt lat="41.23089200" lon="0.898818000">
        <ele>421.00000</ele>
        <time>2010-01-01T00:56:14Z</time>
      </trkpt>
      <trkpt lat="41.23094900" lon="0.898997000">
        <ele>422.00000</ele>
        <time>2010-01-01T00:56:20Z</time>
      </trkpt>
      <trkpt lat="41.23105400" lon="0.899252000">
        <ele>422.00000</ele>
        <time>2010-01-01T00:56:28Z</time>
      </trkpt>
      <trkpt lat="41.23109200" lon="0.899782000">
        <ele>421.00000</ele>
        <time>2010-01-01T00:56:44Z</time>
      </trkpt>
      <trkpt lat="41.23111500" lon="0.899952000">
        <ele>422.00000</ele>
        <time>2010-01-01T00:56:50Z</time>
      </trkpt>
      <trkpt lat="41.23112900" lon="0.900064000">
        <ele>422.00000</ele>
        <time>2010-01-01T00:56:53Z</time>
      </trkpt>
      <trkpt lat="41.23113300" lon="0.900378000">
        <ele>422.00000</ele>
        <time>2010-01-01T00:57:03Z</time>
      </trkpt>
      <trkpt lat="41.23132700" lon="0.901013000">
        <ele>423.00000</ele>
        <time>2010-01-01T00:57:23Z</time>
      </trkpt>
      <trkpt lat="41.23134800" lon="0.901121000">
        <ele>423.00000</ele>
        <time>2010-01-01T00:57:27Z</time>
      </trkpt>
      <trkpt lat="41.23135800" lon="0.901118000">
        <ele>423.00000</ele>
        <time>2010-01-01T00:57:27Z</time>
      </trkpt>
      <trkpt lat="41.23138900" lon="0.901162000">
        <ele>423.00000</ele>
        <time>2010-01-01T00:57:29Z</time>
      </trkpt>
      <trkpt lat="41.23139900" lon="0.901184000">
        <ele>424.00000</ele>
        <time>2010-01-01T00:57:30Z</time>
      </trkpt>
      <trkpt lat="41.23148800" lon="0.901576000">
        <ele>426.00000</ele>
        <time>2010-01-01T00:57:42Z</time>
      </trkpt>
      <trkpt lat="41.23152700" lon="0.901474000">
        <ele>427.00000</ele>
        <time>2010-01-01T00:57:45Z</time>
      </trkpt>
      <trkpt lat="41.23158600" lon="0.901452000">
        <ele>428.00000</ele>
        <time>2010-01-01T00:57:48Z</time>
      </trkpt>
      <trkpt lat="41.23162500" lon="0.901516000">
        <ele>429.00000</ele>
        <time>2010-01-01T00:57:50Z</time>
      </trkpt>
      <trkpt lat="41.23159000" lon="0.901571000">
        <ele>428.00000</ele>
        <time>2010-01-01T00:57:52Z</time>
      </trkpt>
      <trkpt lat="41.23159600" lon="0.901762000">
        <ele>430.00000</ele>
        <time>2010-01-01T00:57:58Z</time>
      </trkpt>
      <trkpt lat="41.23160400" lon="0.902105000">
        <ele>434.00000</ele>
        <time>2010-01-01T00:58:08Z</time>
      </trkpt>
      <trkpt lat="41.23162000" lon="0.902388000">
        <ele>435.00000</ele>
        <time>2010-01-01T00:58:17Z</time>
      </trkpt>
      <trkpt lat="41.23153900" lon="0.902959000">
        <ele>434.00000</ele>
        <time>2010-01-01T00:58:35Z</time>
      </trkpt>
      <trkpt lat="41.23147600" lon="0.903242000">
        <ele>433.00000</ele>
        <time>2010-01-01T00:58:43Z</time>
      </trkpt>
      <trkpt lat="41.23144900" lon="0.903217000">
        <ele>432.00000</ele>
        <time>2010-01-01T00:58:45Z</time>
      </trkpt>
      <trkpt lat="41.23141700" lon="0.903318000">
        <ele>432.00000</ele>
        <time>2010-01-01T00:58:48Z</time>
      </trkpt>
      <trkpt lat="41.23140800" lon="0.903498000">
        <ele>432.00000</ele>
        <time>2010-01-01T00:58:53Z</time>
      </trkpt>
      <trkpt lat="41.23130900" lon="0.903954000">
        <ele>429.00000</ele>
        <time>2010-01-01T00:59:08Z</time>
      </trkpt>
      <trkpt lat="41.23131500" lon="0.904580000">
        <ele>436.00000</ele>
        <time>2010-01-01T00:59:27Z</time>
      </trkpt>
      <trkpt lat="41.23125400" lon="0.904780000">
        <ele>436.00000</ele>
        <time>2010-01-01T00:59:33Z</time>
      </trkpt>
      <trkpt lat="41.23113500" lon="0.905095000">
        <ele>435.00000</ele>
        <time>2010-01-01T00:59:44Z</time>
      </trkpt>
      <trkpt lat="41.23109800" lon="0.905286000">
        <ele>436.00000</ele>
        <time>2010-01-01T00:59:50Z</time>
      </trkpt>
      <trkpt lat="41.23085700" lon="0.906030000">
        <ele>438.00000</ele>
        <time>2010-01-01T01:00:14Z</time>
      </trkpt>
      <trkpt lat="41.23069500" lon="0.906329000">
        <ele>438.00000</ele>
        <time>2010-01-01T01:00:25Z</time>
      </trkpt>
      <trkpt lat="41.23055200" lon="0.906556000">
        <ele>436.00000</ele>
        <time>2010-01-01T01:00:34Z</time>
      </trkpt>
      <trkpt lat="41.23047700" lon="0.906684000">
        <ele>434.00000</ele>
        <time>2010-01-01T01:00:39Z</time>
      </trkpt>
      <trkpt lat="41.23043600" lon="0.907050000">
        <ele>434.00000</ele>
        <time>2010-01-01T01:00:50Z</time>
      </trkpt>
      <trkpt lat="41.23044700" lon="0.907108000">
        <ele>435.00000</ele>
        <time>2010-01-01T01:00:52Z</time>
      </trkpt>
      <trkpt lat="41.23038700" lon="0.907337000">
        <ele>435.00000</ele>
        <time>2010-01-01T01:00:59Z</time>
      </trkpt>
      <trkpt lat="41.23028000" lon="0.907461000">
        <ele>434.00000</ele>
        <time>2010-01-01T01:01:05Z</time>
      </trkpt>
      <trkpt lat="41.23025200" lon="0.907506000">
        <ele>434.00000</ele>
        <time>2010-01-01T01:01:07Z</time>
      </trkpt>
      <trkpt lat="41.23016900" lon="0.907686000">
        <ele>433.00000</ele>
        <time>2010-01-01T01:01:13Z</time>
      </trkpt>
      <trkpt lat="41.23008800" lon="0.908100000">
        <ele>433.00000</ele>
        <time>2010-01-01T01:01:26Z</time>
      </trkpt>
      <trkpt lat="41.23009300" lon="0.908407000">
        <ele>435.00000</ele>
        <time>2010-01-01T01:01:35Z</time>
      </trkpt>
      <trkpt lat="41.23008500" lon="0.908399000">
        <ele>435.00000</ele>
        <time>2010-01-01T01:01:35Z</time>
      </trkpt>
      <trkpt lat="41.23002900" lon="0.908720000">
        <ele>438.00000</ele>
        <time>2010-01-01T01:01:45Z</time>
      </trkpt>
      <trkpt lat="41.22987800" lon="0.909402000">
        <ele>437.00000</ele>
        <time>2010-01-01T01:02:07Z</time>
      </trkpt>
      <trkpt lat="41.22972600" lon="0.910016000">
        <ele>433.00000</ele>
        <time>2010-01-01T01:02:26Z</time>
      </trkpt>
      <trkpt lat="41.22957600" lon="0.910449000">
        <ele>431.00000</ele>
        <time>2010-01-01T01:02:41Z</time>
      </trkpt>
      <trkpt lat="41.22948400" lon="0.910599000">
        <ele>430.00000</ele>
        <time>2010-01-01T01:02:46Z</time>
      </trkpt>
      <trkpt lat="41.22947500" lon="0.910714000">
        <ele>430.00000</ele>
        <time>2010-01-01T01:02:50Z</time>
      </trkpt>
      <trkpt lat="41.22947500" lon="0.911068000">
        <ele>431.00000</ele>
        <time>2010-01-01T01:03:01Z</time>
      </trkpt>
      <trkpt lat="41.22946500" lon="0.911148000">
        <ele>432.00000</ele>
        <time>2010-01-01T01:03:03Z</time>
      </trkpt>
      <trkpt lat="41.22947100" lon="0.911219000">
        <ele>432.00000</ele>
        <time>2010-01-01T01:03:05Z</time>
      </trkpt>
      <trkpt lat="41.22948900" lon="0.911196000">
        <ele>432.00000</ele>
        <time>2010-01-01T01:03:06Z</time>
      </trkpt>
      <trkpt lat="41.22948400" lon="0.911217000">
        <ele>432.00000</ele>
        <time>2010-01-01T01:03:07Z</time>
      </trkpt>
      <trkpt lat="41.22945200" lon="0.911230000">
        <ele>432.00000</ele>
        <time>2010-01-01T01:03:08Z</time>
      </trkpt>
      <trkpt lat="41.22943600" lon="0.911270000">
        <ele>433.00000</ele>
        <time>2010-01-01T01:03:10Z</time>
      </trkpt>
      <trkpt lat="41.22946800" lon="0.911430000">
        <ele>434.00000</ele>
        <time>2010-01-01T01:03:15Z</time>
      </trkpt>
      <trkpt lat="41.22949200" lon="0.911489000">
        <ele>434.00000</ele>
        <time>2010-01-01T01:03:17Z</time>
      </trkpt>
      <trkpt lat="41.22959400" lon="0.911825000">
        <ele>436.00000</ele>
        <time>2010-01-01T01:03:27Z</time>
      </trkpt>
      <trkpt lat="41.22962100" lon="0.911942000">
        <ele>437.00000</ele>
        <time>2010-01-01T01:03:31Z</time>
      </trkpt>
      <trkpt lat="41.22964300" lon="0.911986000">
        <ele>437.00000</ele>
        <time>2010-01-01T01:03:33Z</time>
      </trkpt>
      <trkpt lat="41.22977700" lon="0.912257000">
        <ele>437.00000</ele>
        <time>2010-01-01T01:03:42Z</time>
      </trkpt>
      <trkpt lat="41.22982400" lon="0.912386000">
        <ele>438.00000</ele>
        <time>2010-01-01T01:03:47Z</time>
      </trkpt>
      <trkpt lat="41.22993100" lon="0.912655000">
        <ele>438.00000</ele>
        <time>2010-01-01T01:03:56Z</time>
      </trkpt>
      <trkpt lat="41.22995000" lon="0.912707000">
        <ele>438.00000</ele>
        <time>2010-01-01T01:03:58Z</time>
      </trkpt>
      <trkpt lat="41.23001100" lon="0.913060000">
        <ele>441.00000</ele>
        <time>2010-01-01T01:04:09Z</time>
      </trkpt>
      <trkpt lat="41.23000500" lon="0.913059000">
        <ele>441.00000</ele>
        <time>2010-01-01T01:04:09Z</time>
      </trkpt>
      <trkpt lat="41.23001000" lon="0.913058000">
        <ele>440.00000</ele>
        <time>2010-01-01T01:04:09Z</time>
      </trkpt>
      <trkpt lat="41.23000900" lon="0.913033000">
        <ele>440.00000</ele>
        <time>2010-01-01T01:04:10Z</time>
      </trkpt>
      <trkpt lat="41.23008200" lon="0.913499000">
        <ele>444.00000</ele>
        <time>2010-01-01T01:04:24Z</time>
      </trkpt>
      <trkpt lat="41.23004000" lon="0.914041000">
        <ele>449.00000</ele>
        <time>2010-01-01T01:04:41Z</time>
      </trkpt>
      <trkpt lat="41.22994900" lon="0.914480000">
        <ele>455.00000</ele>
        <time>2010-01-01T01:04:54Z</time>
      </trkpt>
      <trkpt lat="41.22998600" lon="0.914930000">
        <ele>461.00000</ele>
        <time>2010-01-01T01:05:08Z</time>
      </trkpt>
      <trkpt lat="41.23006500" lon="0.915067000">
        <ele>461.00000</ele>
        <time>2010-01-01T01:05:13Z</time>
      </trkpt>
      <trkpt lat="41.23023000" lon="0.915199000">
        <ele>460.00000</ele>
        <time>2010-01-01T01:05:21Z</time>
      </trkpt>
      <trkpt lat="41.23027200" lon="0.915269000">
        <ele>460.00000</ele>
        <time>2010-01-01T01:05:23Z</time>
      </trkpt>
      <trkpt lat="41.23030700" lon="0.915349000">
        <ele>460.00000</ele>
        <time>2010-01-01T01:05:26Z</time>
      </trkpt>
      <trkpt lat="41.23041900" lon="0.915604000">
        <ele>459.00000</ele>
        <time>2010-01-01T01:05:35Z</time>
      </trkpt>
      <trkpt lat="41.23044400" lon="0.915669000">
        <ele>459.00000</ele>
        <time>2010-01-01T01:05:37Z</time>
      </trkpt>
      <trkpt lat="41.23040900" lon="0.915668000">
        <ele>460.00000</ele>
        <time>2010-01-01T01:05:39Z</time>
      </trkpt>
      <trkpt lat="41.23040800" lon="0.915605000">
        <ele>460.00000</ele>
        <time>2010-01-01T01:05:41Z</time>
      </trkpt>
      <trkpt lat="41.23034800" lon="0.915611000">
        <ele>461.00000</ele>
        <time>2010-01-01T01:05:43Z</time>
      </trkpt>
      <trkpt lat="41.23033600" lon="0.915652000">
        <ele>462.00000</ele>
        <time>2010-01-01T01:05:44Z</time>
      </trkpt>
      <trkpt lat="41.23031400" lon="0.915786000">
        <ele>463.00000</ele>
        <time>2010-01-01T01:05:49Z</time>
      </trkpt>
      <trkpt lat="41.23027200" lon="0.915855000">
        <ele>465.00000</ele>
        <time>2010-01-01T01:05:51Z</time>
      </trkpt>
      <trkpt lat="41.23025200" lon="0.915919000">
        <ele>466.00000</ele>
        <time>2010-01-01T01:05:53Z</time>
      </trkpt>
      <trkpt lat="41.23019600" lon="0.916097000">
        <ele>469.00000</ele>
        <time>2010-01-01T01:05:59Z</time>
      </trkpt>
      <trkpt lat="41.23018200" lon="0.916150000">
        <ele>469.00000</ele>
        <time>2010-01-01T01:06:01Z</time>
      </trkpt>
      <trkpt lat="41.23017700" lon="0.916138000">
        <ele>470.00000</ele>
        <time>2010-01-01T01:06:01Z</time>
      </trkpt>
      <trkpt lat="41.23000200" lon="0.916295000">
        <ele>474.00000</ele>
        <time>2010-01-01T01:06:10Z</time>
      </trkpt>
      <trkpt lat="41.22991700" lon="0.916378000">
        <ele>477.00000</ele>
        <time>2010-01-01T01:06:14Z</time>
      </trkpt>
      <trkpt lat="41.22989100" lon="0.916405000">
        <ele>477.00000</ele>
        <time>2010-01-01T01:06:15Z</time>
      </trkpt>
      <trkpt lat="41.22981700" lon="0.916483000">
        <ele>479.00000</ele>
        <time>2010-01-01T01:06:19Z</time>
      </trkpt>
      <trkpt lat="41.22972200" lon="0.916643000">
        <ele>480.00000</ele>
        <time>2010-01-01T01:06:25Z</time>
      </trkpt>
      <trkpt lat="41.22965300" lon="0.916774000">
        <ele>482.00000</ele>
        <time>2010-01-01T01:06:30Z</time>
      </trkpt>
      <trkpt lat="41.22956600" lon="0.916847000">
        <ele>485.00000</ele>
        <time>2010-01-01T01:06:34Z</time>
      </trkpt>
      <trkpt lat="41.22951100" lon="0.916940000">
        <ele>485.00000</ele>
        <time>2010-01-01T01:06:38Z</time>
      </trkpt>
      <trkpt lat="41.22944400" lon="0.917026000">
        <ele>487.00000</ele>
        <time>2010-01-01T01:06:41Z</time>
      </trkpt>
      <trkpt lat="41.22933300" lon="0.917109000">
        <ele>489.00000</ele>
        <time>2010-01-01T01:06:46Z</time>
      </trkpt>
      <trkpt lat="41.22918200" lon="0.917234000">
        <ele>491.00000</ele>
        <time>2010-01-01T01:06:54Z</time>
      </trkpt>
      <trkpt lat="41.22916400" lon="0.917248000">
        <ele>491.00000</ele>
        <time>2010-01-01T01:06:54Z</time>
      </trkpt>
      <trkpt lat="41.22907400" lon="0.917377000">
        <ele>492.00000</ele>
        <time>2010-01-01T01:07:00Z</time>
      </trkpt>
      <trkpt lat="41.22905400" lon="0.917495000">
        <ele>491.00000</ele>
        <time>2010-01-01T01:07:03Z</time>
      </trkpt>
      <trkpt lat="41.22901100" lon="0.917651000">
        <ele>491.00000</ele>
        <time>2010-01-01T01:07:08Z</time>
      </trkpt>
      <trkpt lat="41.22901400" lon="0.917736000">
        <ele>491.00000</ele>
        <time>2010-01-01T01:07:11Z</time>
      </trkpt>
      <trkpt lat="41.22904700" lon="0.917873000">
        <ele>490.00000</ele>
        <time>2010-01-01T01:07:15Z</time>
      </trkpt>
      <trkpt lat="41.22907400" lon="0.917889000">
        <ele>489.00000</ele>
        <time>2010-01-01T01:07:16Z</time>
      </trkpt>
      <trkpt lat="41.22907600" lon="0.917887000">
        <ele>489.00000</ele>
        <time>2010-01-01T01:07:16Z</time>
      </trkpt>
      <trkpt lat="41.22906800" lon="0.917881000">
        <ele>489.00000</ele>
        <time>2010-01-01T01:07:17Z</time>
      </trkpt>
      <trkpt lat="41.22892500" lon="0.917970000">
        <ele>492.00000</ele>
        <time>2010-01-01T01:07:23Z</time>
      </trkpt>
      <trkpt lat="41.22865200" lon="0.918084000">
        <ele>498.00000</ele>
        <time>2010-01-01T01:07:35Z</time>
      </trkpt>
      <trkpt lat="41.22853000" lon="0.918098000">
        <ele>501.00000</ele>
        <time>2010-01-01T01:07:40Z</time>
      </trkpt>
      <trkpt lat="41.22849900" lon="0.918094000">
        <ele>501.00000</ele>
        <time>2010-01-01T01:07:41Z</time>
      </trkpt>
      <trkpt lat="41.22831700" lon="0.918115000">
        <ele>505.00000</ele>
        <time>2010-01-01T01:07:48Z</time>
      </trkpt>
      <trkpt lat="41.22811200" lon="0.918283000">
        <ele>506.00000</ele>
        <time>2010-01-01T01:07:58Z</time>
      </trkpt>
      <trkpt lat="41.22795700" lon="0.918336000">
        <ele>508.00000</ele>
        <time>2010-01-01T01:08:04Z</time>
      </trkpt>
      <trkpt lat="41.22761500" lon="0.918512000">
        <ele>510.00000</ele>
        <time>2010-01-01T01:08:19Z</time>
      </trkpt>
      <trkpt lat="41.22747200" lon="0.918507000">
        <ele>512.00000</ele>
        <time>2010-01-01T01:08:25Z</time>
      </trkpt>
      <trkpt lat="41.22738100" lon="0.918518000">
        <ele>513.00000</ele>
        <time>2010-01-01T01:08:28Z</time>
      </trkpt>
      <trkpt lat="41.22707100" lon="0.918790000">
        <ele>517.00000</ele>
        <time>2010-01-01T01:08:43Z</time>
      </trkpt>
      <trkpt lat="41.22699500" lon="0.918946000">
        <ele>519.00000</ele>
        <time>2010-01-01T01:08:49Z</time>
      </trkpt>
      <trkpt lat="41.22715500" lon="0.919105000">
        <ele>518.00000</ele>
        <time>2010-01-01T01:08:57Z</time>
      </trkpt>
      <trkpt lat="41.22730200" lon="0.919345000">
        <ele>518.00000</ele>
        <time>2010-01-01T01:09:06Z</time>
      </trkpt>
      <trkpt lat="41.22737000" lon="0.919404000">
        <ele>518.00000</ele>
        <time>2010-01-01T01:09:09Z</time>
      </trkpt>
      <trkpt lat="41.22753600" lon="0.919526000">
        <ele>514.00000</ele>
        <time>2010-01-01T01:09:17Z</time>
      </trkpt>
      <trkpt lat="41.22743900" lon="0.919733000">
        <ele>517.00000</ele>
        <time>2010-01-01T01:09:24Z</time>
      </trkpt>
      <trkpt lat="41.22738300" lon="0.919922000">
        <ele>517.00000</ele>
        <time>2010-01-01T01:09:30Z</time>
      </trkpt>
      <trkpt lat="41.22707300" lon="0.920177000">
        <ele>521.00000</ele>
        <time>2010-01-01T01:09:45Z</time>
      </trkpt>
      <trkpt lat="41.22702200" lon="0.920176000">
        <ele>522.00000</ele>
        <time>2010-01-01T01:09:47Z</time>
      </trkpt>
      <trkpt lat="41.22687500" lon="0.920234000">
        <ele>525.00000</ele>
        <time>2010-01-01T01:09:53Z</time>
      </trkpt>
      <trkpt lat="41.22652200" lon="0.920975000">
        <ele>530.00000</ele>
        <time>2010-01-01T01:10:19Z</time>
      </trkpt>
      <trkpt lat="41.22640800" lon="0.921286000">
        <ele>529.00000</ele>
        <time>2010-01-01T01:10:30Z</time>
      </trkpt>
      <trkpt lat="41.22635900" lon="0.921395000">
        <ele>529.00000</ele>
        <time>2010-01-01T01:10:34Z</time>
      </trkpt>
      <trkpt lat="41.22620500" lon="0.921470000">
        <ele>532.00000</ele>
        <time>2010-01-01T01:10:40Z</time>
      </trkpt>
      <trkpt lat="41.22604600" lon="0.921499000">
        <ele>535.00000</ele>
        <time>2010-01-01T01:10:47Z</time>
      </trkpt>
      <trkpt lat="41.22600400" lon="0.921516000">
        <ele>536.00000</ele>
        <time>2010-01-01T01:10:48Z</time>
      </trkpt>
      <trkpt lat="41.22581800" lon="0.921668000">
        <ele>537.00000</ele>
        <time>2010-01-01T01:10:57Z</time>
      </trkpt>
      <trkpt lat="41.22579900" lon="0.921709000">
        <ele>537.00000</ele>
        <time>2010-01-01T01:10:59Z</time>
      </trkpt>
      <trkpt lat="41.22559100" lon="0.922021000">
        <ele>544.00000</ele>
        <time>2010-01-01T01:11:11Z</time>
      </trkpt>
      <trkpt lat="41.22556800" lon="0.922143000">
        <ele>544.00000</ele>
        <time>2010-01-01T01:11:15Z</time>
      </trkpt>
      <trkpt lat="41.22556100" lon="0.922220000">
        <ele>543.00000</ele>
        <time>2010-01-01T01:11:17Z</time>
      </trkpt>
      <trkpt lat="41.22548800" lon="0.922390000">
        <ele>545.00000</ele>
        <time>2010-01-01T01:11:23Z</time>
      </trkpt>
      <trkpt lat="41.22544500" lon="0.922514000">
        <ele>545.00000</ele>
        <time>2010-01-01T01:11:27Z</time>
      </trkpt>
      <trkpt lat="41.22541400" lon="0.922643000">
        <ele>545.00000</ele>
        <time>2010-01-01T01:11:31Z</time>
      </trkpt>
      <trkpt lat="41.22532500" lon="0.922757000">
        <ele>547.00000</ele>
        <time>2010-01-01T01:11:36Z</time>
      </trkpt>
      <trkpt lat="41.22522900" lon="0.922849000">
        <ele>550.00000</ele>
        <time>2010-01-01T01:11:41Z</time>
      </trkpt>
      <trkpt lat="41.22513100" lon="0.922886000">
        <ele>552.00000</ele>
        <time>2010-01-01T01:11:45Z</time>
      </trkpt>
      <trkpt lat="41.22507300" lon="0.922954000">
        <ele>554.00000</ele>
        <time>2010-01-01T01:11:48Z</time>
      </trkpt>
      <trkpt lat="41.22501500" lon="0.922990000">
        <ele>555.00000</ele>
        <time>2010-01-01T01:11:51Z</time>
      </trkpt>
      <trkpt lat="41.22487700" lon="0.923105000">
        <ele>556.00000</ele>
        <time>2010-01-01T01:11:57Z</time>
      </trkpt>
      <trkpt lat="41.22474600" lon="0.923139000">
        <ele>558.00000</ele>
        <time>2010-01-01T01:12:03Z</time>
      </trkpt>
      <trkpt lat="41.22466200" lon="0.923173000">
        <ele>559.00000</ele>
        <time>2010-01-01T01:12:06Z</time>
      </trkpt>
      <trkpt lat="41.22458000" lon="0.923222000">
        <ele>562.00000</ele>
        <time>2010-01-01T01:12:10Z</time>
      </trkpt>
      <trkpt lat="41.22459700" lon="0.923392000">
        <ele>561.00000</ele>
        <time>2010-01-01T01:12:15Z</time>
      </trkpt>
      <trkpt lat="41.22460800" lon="0.923524000">
        <ele>560.00000</ele>
        <time>2010-01-01T01:12:19Z</time>
      </trkpt>
      <trkpt lat="41.22459300" lon="0.923970000">
        <ele>563.00000</ele>
        <time>2010-01-01T01:12:32Z</time>
      </trkpt>
      <trkpt lat="41.22457200" lon="0.924388000">
        <ele>566.00000</ele>
        <time>2010-01-01T01:12:45Z</time>
      </trkpt>
      <trkpt lat="41.22457600" lon="0.924492000">
        <ele>566.00000</ele>
        <time>2010-01-01T01:12:48Z</time>
      </trkpt>
      <trkpt lat="41.22451700" lon="0.924574000">
        <ele>569.00000</ele>
        <time>2010-01-01T01:12:52Z</time>
      </trkpt>
      <trkpt lat="41.22441300" lon="0.924705000">
        <ele>572.00000</ele>
        <time>2010-01-01T01:12:57Z</time>
      </trkpt>
      <trkpt lat="41.22437100" lon="0.924737000">
        <ele>573.00000</ele>
        <time>2010-01-01T01:12:59Z</time>
      </trkpt>
      <trkpt lat="41.22435100" lon="0.924764000">
        <ele>573.00000</ele>
        <time>2010-01-01T01:13:00Z</time>
      </trkpt>
      <trkpt lat="41.22431200" lon="0.924884000">
        <ele>573.00000</ele>
        <time>2010-01-01T01:13:04Z</time>
      </trkpt>
      <trkpt lat="41.22426300" lon="0.925128000">
        <ele>572.00000</ele>
        <time>2010-01-01T01:13:12Z</time>
      </trkpt>
      <trkpt lat="41.22420900" lon="0.925243000">
        <ele>573.00000</ele>
        <time>2010-01-01T01:13:16Z</time>
      </trkpt>
      <trkpt lat="41.22412200" lon="0.925320000">
        <ele>574.00000</ele>
        <time>2010-01-01T01:13:20Z</time>
      </trkpt>
      <trkpt lat="41.22404000" lon="0.925379000">
        <ele>575.00000</ele>
        <time>2010-01-01T01:13:24Z</time>
      </trkpt>
      <trkpt lat="41.22393600" lon="0.925366000">
        <ele>577.00000</ele>
        <time>2010-01-01T01:13:28Z</time>
      </trkpt>
      <trkpt lat="41.22387400" lon="0.925352000">
        <ele>578.00000</ele>
        <time>2010-01-01T01:13:31Z</time>
      </trkpt>
      <trkpt lat="41.22379100" lon="0.925365000">
        <ele>579.00000</ele>
        <time>2010-01-01T01:13:34Z</time>
      </trkpt>
      <trkpt lat="41.22370300" lon="0.925401000">
        <ele>581.00000</ele>
        <time>2010-01-01T01:13:38Z</time>
      </trkpt>
      <trkpt lat="41.22367800" lon="0.925400000">
        <ele>582.00000</ele>
        <time>2010-01-01T01:13:39Z</time>
      </trkpt>
      <trkpt lat="41.22370300" lon="0.925416000">
        <ele>581.00000</ele>
        <time>2010-01-01T01:13:40Z</time>
      </trkpt>
      <trkpt lat="41.22371800" lon="0.925419000">
        <ele>581.00000</ele>
        <time>2010-01-01T01:13:40Z</time>
      </trkpt>
      <trkpt lat="41.22387200" lon="0.925450000">
        <ele>577.00000</ele>
        <time>2010-01-01T01:13:47Z</time>
      </trkpt>
      <trkpt lat="41.22392600" lon="0.925584000">
        <ele>576.00000</ele>
        <time>2010-01-01T01:13:51Z</time>
      </trkpt>
      <trkpt lat="41.22391800" lon="0.925557000">
        <ele>576.00000</ele>
        <time>2010-01-01T01:13:52Z</time>
      </trkpt>
      <trkpt lat="41.22391600" lon="0.925531000">
        <ele>576.00000</ele>
        <time>2010-01-01T01:13:53Z</time>
      </trkpt>
      <trkpt lat="41.22374700" lon="0.925455000">
        <ele>580.00000</ele>
        <time>2010-01-01T01:14:00Z</time>
      </trkpt>
      <trkpt lat="41.22353100" lon="0.925493000">
        <ele>585.00000</ele>
        <time>2010-01-01T01:14:09Z</time>
      </trkpt>
      <trkpt lat="41.22331600" lon="0.925669000">
        <ele>590.00000</ele>
        <time>2010-01-01T01:14:19Z</time>
      </trkpt>
      <trkpt lat="41.22342200" lon="0.925949000">
        <ele>590.00000</ele>
        <time>2010-01-01T01:14:28Z</time>
      </trkpt>
      <trkpt lat="41.22342400" lon="0.926098000">
        <ele>591.00000</ele>
        <time>2010-01-01T01:14:33Z</time>
      </trkpt>
      <trkpt lat="41.22351700" lon="0.926355000">
        <ele>591.00000</ele>
        <time>2010-01-01T01:14:41Z</time>
      </trkpt>
      <trkpt lat="41.22354900" lon="0.926395000">
        <ele>591.00000</ele>
        <time>2010-01-01T01:14:43Z</time>
      </trkpt>
      <trkpt lat="41.22350700" lon="0.926720000">
        <ele>593.00000</ele>
        <time>2010-01-01T01:14:53Z</time>
      </trkpt>
      <trkpt lat="41.22343200" lon="0.927040000">
        <ele>597.00000</ele>
        <time>2010-01-01T01:15:03Z</time>
      </trkpt>
      <trkpt lat="41.22344400" lon="0.927234000">
        <ele>598.00000</ele>
        <time>2010-01-01T01:15:09Z</time>
      </trkpt>
      <trkpt lat="41.22340600" lon="0.927285000">
        <ele>599.00000</ele>
        <time>2010-01-01T01:15:11Z</time>
      </trkpt>
      <trkpt lat="41.22339900" lon="0.927325000">
        <ele>599.00000</ele>
        <time>2010-01-01T01:15:12Z</time>
      </trkpt>
      <trkpt lat="41.22345900" lon="0.927665000">
        <ele>599.00000</ele>
        <time>2010-01-01T01:15:23Z</time>
      </trkpt>
      <trkpt lat="41.22347000" lon="0.927938000">
        <ele>598.00000</ele>
        <time>2010-01-01T01:15:31Z</time>
      </trkpt>
      <trkpt lat="41.22344200" lon="0.928361000">
        <ele>597.00000</ele>
        <time>2010-01-01T01:15:44Z</time>
      </trkpt>
      <trkpt lat="41.22340900" lon="0.928669000">
        <ele>598.00000</ele>
        <time>2010-01-01T01:15:53Z</time>
      </trkpt>
      <trkpt lat="41.22325200" lon="0.928882000">
        <ele>603.00000</ele>
        <time>2010-01-01T01:16:02Z</time>
      </trkpt>
      <trkpt lat="41.22317900" lon="0.928907000">
        <ele>604.00000</ele>
        <time>2010-01-01T01:16:05Z</time>
      </trkpt>
      <trkpt lat="41.22312600" lon="0.928926000">
        <ele>606.00000</ele>
        <time>2010-01-01T01:16:07Z</time>
      </trkpt>
      <trkpt lat="41.22307800" lon="0.929061000">
        <ele>608.00000</ele>
        <time>2010-01-01T01:16:12Z</time>
      </trkpt>
      <trkpt lat="41.22317500" lon="0.929237000">
        <ele>605.00000</ele>
        <time>2010-01-01T01:16:19Z</time>
      </trkpt>
      <trkpt lat="41.22319200" lon="0.929404000">
        <ele>605.00000</ele>
        <time>2010-01-01T01:16:24Z</time>
      </trkpt>
      <trkpt lat="41.22316000" lon="0.929629000">
        <ele>606.00000</ele>
        <time>2010-01-01T01:16:30Z</time>
      </trkpt>
      <trkpt lat="41.22307200" lon="0.929888000">
        <ele>609.00000</ele>
        <time>2010-01-01T01:16:39Z</time>
      </trkpt>
      <trkpt lat="41.22298900" lon="0.930164000">
        <ele>611.00000</ele>
        <time>2010-01-01T01:16:48Z</time>
      </trkpt>
      <trkpt lat="41.22295900" lon="0.930309000">
        <ele>611.00000</ele>
        <time>2010-01-01T01:16:53Z</time>
      </trkpt>
      <trkpt lat="41.22291000" lon="0.930474000">
        <ele>612.00000</ele>
        <time>2010-01-01T01:16:58Z</time>
      </trkpt>
      <trkpt lat="41.22285700" lon="0.930701000">
        <ele>613.00000</ele>
        <time>2010-01-01T01:17:05Z</time>
      </trkpt>
      <trkpt lat="41.22284600" lon="0.930869000">
        <ele>614.00000</ele>
        <time>2010-01-01T01:17:10Z</time>
      </trkpt>
      <trkpt lat="41.22276800" lon="0.931130000">
        <ele>616.00000</ele>
        <time>2010-01-01T01:17:19Z</time>
      </trkpt>
      <trkpt lat="41.22276600" lon="0.931238000">
        <ele>615.00000</ele>
        <time>2010-01-01T01:17:22Z</time>
      </trkpt>
      <trkpt lat="41.22273200" lon="0.931391000">
        <ele>616.00000</ele>
        <time>2010-01-01T01:17:27Z</time>
      </trkpt>
      <trkpt lat="41.22271500" lon="0.931475000">
        <ele>617.00000</ele>
        <time>2010-01-01T01:17:29Z</time>
      </trkpt>
      <trkpt lat="41.22265100" lon="0.931686000">
        <ele>619.00000</ele>
        <time>2010-01-01T01:17:36Z</time>
      </trkpt>
      <trkpt lat="41.22271000" lon="0.931961000">
        <ele>620.00000</ele>
        <time>2010-01-01T01:17:45Z</time>
      </trkpt>
      <trkpt lat="41.22277800" lon="0.932039000">
        <ele>620.00000</ele>
        <time>2010-01-01T01:17:48Z</time>
      </trkpt>
      <trkpt lat="41.22284900" lon="0.931994000">
        <ele>619.00000</ele>
        <time>2010-01-01T01:17:51Z</time>
      </trkpt>
      <trkpt lat="41.22287400" lon="0.931985000">
        <ele>619.00000</ele>
        <time>2010-01-01T01:17:52Z</time>
      </trkpt>
      <trkpt lat="41.22295300" lon="0.932117000">
        <ele>621.00000</ele>
        <time>2010-01-01T01:17:58Z</time>
      </trkpt>
      <trkpt lat="41.22285700" lon="0.932168000">
        <ele>622.00000</ele>
        <time>2010-01-01T01:18:02Z</time>
      </trkpt>
      <trkpt lat="41.22282900" lon="0.932189000">
        <ele>623.00000</ele>
        <time>2010-01-01T01:18:03Z</time>
      </trkpt>
      <trkpt lat="41.22263400" lon="0.932395000">
        <ele>628.00000</ele>
        <time>2010-01-01T01:18:13Z</time>
      </trkpt>
      <trkpt lat="41.22233500" lon="0.932733000">
        <ele>635.00000</ele>
        <time>2010-01-01T01:18:29Z</time>
      </trkpt>
      <trkpt lat="41.22212900" lon="0.933056000">
        <ele>642.00000</ele>
        <time>2010-01-01T01:18:41Z</time>
      </trkpt>
      <trkpt lat="41.22208000" lon="0.933151000">
        <ele>643.00000</ele>
        <time>2010-01-01T01:18:45Z</time>
      </trkpt>
      <trkpt lat="41.22125200" lon="0.934471000">
        <ele>632.00000</ele>
        <time>2010-01-01T01:19:37Z</time>
      </trkpt>
      <trkpt lat="41.22119500" lon="0.934490000">
        <ele>632.00000</ele>
        <time>2010-01-01T01:19:39Z</time>
      </trkpt>
      <trkpt lat="41.22130600" lon="0.934438000">
        <ele>632.00000</ele>
        <time>2010-01-01T01:19:44Z</time>
      </trkpt>
      <trkpt lat="41.22139800" lon="0.934217000">
        <ele>635.00000</ele>
        <time>2010-01-01T01:19:51Z</time>
      </trkpt>
      <trkpt lat="41.22134500" lon="0.934157000">
        <ele>636.00000</ele>
        <time>2010-01-01T01:19:54Z</time>
      </trkpt>
      <trkpt lat="41.22131100" lon="0.934121000">
        <ele>637.00000</ele>
        <time>2010-01-01T01:19:56Z</time>
      </trkpt>
      <trkpt lat="41.22135100" lon="0.933824000">
        <ele>641.00000</ele>
        <time>2010-01-01T01:20:05Z</time>
      </trkpt>
      <trkpt lat="41.22163700" lon="0.933628000">
        <ele>643.00000</ele>
        <time>2010-01-01T01:20:18Z</time>
      </trkpt>
      <trkpt lat="41.22173800" lon="0.933433000">
        <ele>644.00000</ele>
        <time>2010-01-01T01:20:25Z</time>
      </trkpt>
      <trkpt lat="41.22161100" lon="0.933155000">
        <ele>650.00000</ele>
        <time>2010-01-01T01:20:35Z</time>
      </trkpt>
      <trkpt lat="41.22113200" lon="0.933273000">
        <ele>655.00000</ele>
        <time>2010-01-01T01:20:54Z</time>
      </trkpt>
      <trkpt lat="41.22095300" lon="0.933582000">
        <ele>653.00000</ele>
        <time>2010-01-01T01:21:06Z</time>
      </trkpt>
      <trkpt lat="41.22083700" lon="0.933812000">
        <ele>653.00000</ele>
        <time>2010-01-01T01:21:14Z</time>
      </trkpt>
      <trkpt lat="41.22067000" lon="0.934084000">
        <ele>655.00000</ele>
        <time>2010-01-01T01:21:25Z</time>
      </trkpt>
      <trkpt lat="41.22049100" lon="0.934290000">
        <ele>655.00000</ele>
        <time>2010-01-01T01:21:34Z</time>
      </trkpt>
      <trkpt lat="41.22044100" lon="0.934327000">
        <ele>655.00000</ele>
        <time>2010-01-01T01:21:37Z</time>
      </trkpt>
      <trkpt lat="41.22028800" lon="0.934414000">
        <ele>654.00000</ele>
        <time>2010-01-01T01:21:43Z</time>
      </trkpt>
      <trkpt lat="41.22022500" lon="0.934420000">
        <ele>656.00000</ele>
        <time>2010-01-01T01:21:46Z</time>
      </trkpt>
      <trkpt lat="41.22000200" lon="0.934517000">
        <ele>658.00000</ele>
        <time>2010-01-01T01:21:55Z</time>
      </trkpt>
      <trkpt lat="41.21975800" lon="0.934501000">
        <ele>663.00000</ele>
        <time>2010-01-01T01:22:05Z</time>
      </trkpt>
      <trkpt lat="41.21949100" lon="0.934454000">
        <ele>669.00000</ele>
        <time>2010-01-01T01:22:16Z</time>
      </trkpt>
      <trkpt lat="41.21882200" lon="0.934567000">
        <ele>668.00000</ele>
        <time>2010-01-01T01:22:43Z</time>
      </trkpt>
      <trkpt lat="41.21858900" lon="0.934539000">
        <ele>670.00000</ele>
        <time>2010-01-01T01:22:52Z</time>
      </trkpt>
      <trkpt lat="41.21828000" lon="0.934558000">
        <ele>666.00000</ele>
        <time>2010-01-01T01:23:05Z</time>
      </trkpt>
      <trkpt lat="41.21788700" lon="0.934478000">
        <ele>665.00000</ele>
        <time>2010-01-01T01:23:20Z</time>
      </trkpt>
      <trkpt lat="41.21755900" lon="0.934403000">
        <ele>664.00000</ele>
        <time>2010-01-01T01:23:34Z</time>
      </trkpt>
      <trkpt lat="41.21721200" lon="0.934280000">
        <ele>663.00000</ele>
        <time>2010-01-01T01:23:48Z</time>
      </trkpt>
      <trkpt lat="41.21682000" lon="0.933939000">
        <ele>656.00000</ele>
        <time>2010-01-01T01:24:07Z</time>
      </trkpt>
      <trkpt lat="41.21677200" lon="0.933731000">
        <ele>656.00000</ele>
        <time>2010-01-01T01:24:13Z</time>
      </trkpt>
      <trkpt lat="41.21676400" lon="0.933518000">
        <ele>659.00000</ele>
        <time>2010-01-01T01:24:20Z</time>
      </trkpt>
      <trkpt lat="41.21668100" lon="0.933239000">
        <ele>662.00000</ele>
        <time>2010-01-01T01:24:29Z</time>
      </trkpt>
      <trkpt lat="41.21633500" lon="0.933052000">
        <ele>655.00000</ele>
        <time>2010-01-01T01:24:44Z</time>
      </trkpt>
      <trkpt lat="41.21631600" lon="0.933082000">
        <ele>654.00000</ele>
        <time>2010-01-01T01:24:45Z</time>
      </trkpt>
      <trkpt lat="41.21619000" lon="0.932880000">
        <ele>656.00000</ele>
        <time>2010-01-01T01:24:53Z</time>
      </trkpt>
      <trkpt lat="41.21607400" lon="0.932666000">
        <ele>660.00000</ele>
        <time>2010-01-01T01:25:01Z</time>
      </trkpt>
      <trkpt lat="41.21589100" lon="0.932405000">
        <ele>664.00000</ele>
        <time>2010-01-01T01:25:12Z</time>
      </trkpt>
      <trkpt lat="41.21564300" lon="0.931948000">
        <ele>667.00000</ele>
        <time>2010-01-01T01:25:29Z</time>
      </trkpt>
      <trkpt lat="41.21541300" lon="0.931367000">
        <ele>670.00000</ele>
        <time>2010-01-01T01:25:48Z</time>
      </trkpt>
      <trkpt lat="41.21536100" lon="0.931180000">
        <ele>669.00000</ele>
        <time>2010-01-01T01:25:54Z</time>
      </trkpt>
      <trkpt lat="41.21528900" lon="0.930505000">
        <ele>669.00000</ele>
        <time>2010-01-01T01:26:15Z</time>
      </trkpt>
      <trkpt lat="41.21531000" lon="0.930153000">
        <ele>669.00000</ele>
        <time>2010-01-01T01:26:25Z</time>
      </trkpt>
      <trkpt lat="41.21533700" lon="0.930076000">
        <ele>670.00000</ele>
        <time>2010-01-01T01:26:28Z</time>
      </trkpt>
      <trkpt lat="41.21546200" lon="0.929752000">
        <ele>674.00000</ele>
        <time>2010-01-01T01:26:39Z</time>
      </trkpt>
      <trkpt lat="41.21571600" lon="0.929590000">
        <ele>680.00000</ele>
        <time>2010-01-01T01:26:50Z</time>
      </trkpt>
      <trkpt lat="41.21605200" lon="0.929406000">
        <ele>686.00000</ele>
        <time>2010-01-01T01:27:05Z</time>
      </trkpt>
      <trkpt lat="41.21605000" lon="0.929035000">
        <ele>683.00000</ele>
        <time>2010-01-01T01:27:16Z</time>
      </trkpt>
      <trkpt lat="41.21607700" lon="0.928892000">
        <ele>684.00000</ele>
        <time>2010-01-01T01:27:20Z</time>
      </trkpt>
      <trkpt lat="41.21610800" lon="0.928617000">
        <ele>686.00000</ele>
        <time>2010-01-01T01:27:29Z</time>
      </trkpt>
      <trkpt lat="41.21610000" lon="0.928317000">
        <ele>691.00000</ele>
        <time>2010-01-01T01:27:38Z</time>
      </trkpt>
      <trkpt lat="41.21581600" lon="0.927990000">
        <ele>697.00000</ele>
        <time>2010-01-01T01:27:53Z</time>
      </trkpt>
      <trkpt lat="41.21555900" lon="0.928097000">
        <ele>694.00000</ele>
        <time>2010-01-01T01:28:04Z</time>
      </trkpt>
      <trkpt lat="41.21512200" lon="0.928325000">
        <ele>687.00000</ele>
        <time>2010-01-01T01:28:22Z</time>
      </trkpt>
      <trkpt lat="41.21481100" lon="0.927984000">
        <ele>687.00000</ele>
        <time>2010-01-01T01:28:39Z</time>
      </trkpt>
      <trkpt lat="41.21475100" lon="0.927509000">
        <ele>693.00000</ele>
        <time>2010-01-01T01:28:53Z</time>
      </trkpt>
      <trkpt lat="41.21470100" lon="0.927338000">
        <ele>694.00000</ele>
        <time>2010-01-01T01:28:59Z</time>
      </trkpt>
      <trkpt lat="41.21456400" lon="0.926961000">
        <ele>696.00000</ele>
        <time>2010-01-01T01:29:11Z</time>
      </trkpt>
      <trkpt lat="41.21438100" lon="0.926656000">
        <ele>702.00000</ele>
        <time>2010-01-01T01:29:23Z</time>
      </trkpt>
      <trkpt lat="41.21434300" lon="0.926602000">
        <ele>703.00000</ele>
        <time>2010-01-01T01:29:25Z</time>
      </trkpt>
      <trkpt lat="41.21406700" lon="0.926253000">
        <ele>709.00000</ele>
        <time>2010-01-01T01:29:40Z</time>
      </trkpt>
      <trkpt lat="41.21388500" lon="0.925884000">
        <ele>715.00000</ele>
        <time>2010-01-01T01:29:54Z</time>
      </trkpt>
      <trkpt lat="41.21368400" lon="0.925655000">
        <ele>721.00000</ele>
        <time>2010-01-01T01:30:04Z</time>
      </trkpt>
      <trkpt lat="41.21354000" lon="0.925727000">
        <ele>720.00000</ele>
        <time>2010-01-01T01:30:11Z</time>
      </trkpt>
      <trkpt lat="41.21341900" lon="0.925835000">
        <ele>719.00000</ele>
        <time>2010-01-01T01:30:16Z</time>
      </trkpt>
      <trkpt lat="41.21317700" lon="0.926116000">
        <ele>716.00000</ele>
        <time>2010-01-01T01:30:29Z</time>
      </trkpt>
      <trkpt lat="41.21300200" lon="0.926382000">
        <ele>714.00000</ele>
        <time>2010-01-01T01:30:40Z</time>
      </trkpt>
      <trkpt lat="41.21289500" lon="0.926575000">
        <ele>713.00000</ele>
        <time>2010-01-01T01:30:47Z</time>
      </trkpt>
      <trkpt lat="41.21286600" lon="0.926684000">
        <ele>710.00000</ele>
        <time>2010-01-01T01:30:51Z</time>
      </trkpt>
      <trkpt lat="41.21268500" lon="0.927141000">
        <ele>710.00000</ele>
        <time>2010-01-01T01:31:06Z</time>
      </trkpt>
      <trkpt lat="41.21256100" lon="0.927739000">
        <ele>705.00000</ele>
        <time>2010-01-01T01:31:25Z</time>
      </trkpt>
      <trkpt lat="41.21227800" lon="0.928218000">
        <ele>701.00000</ele>
        <time>2010-01-01T01:31:43Z</time>
      </trkpt>
      <trkpt lat="41.21217000" lon="0.928459000">
        <ele>699.00000</ele>
        <time>2010-01-01T01:31:52Z</time>
      </trkpt>
      <trkpt lat="41.21196700" lon="0.928855000">
        <ele>694.00000</ele>
        <time>2010-01-01T01:32:06Z</time>
      </trkpt>
      <trkpt lat="41.21185300" lon="0.928929000">
        <ele>690.00000</ele>
        <time>2010-01-01T01:32:11Z</time>
      </trkpt>
      <trkpt lat="41.21181800" lon="0.928763000">
        <ele>691.00000</ele>
        <time>2010-01-01T01:32:16Z</time>
      </trkpt>
      <trkpt lat="41.21182300" lon="0.928681000">
        <ele>693.00000</ele>
        <time>2010-01-01T01:32:19Z</time>
      </trkpt>
      <trkpt lat="41.21180100" lon="0.928409000">
        <ele>697.00000</ele>
        <time>2010-01-01T01:32:27Z</time>
      </trkpt>
      <trkpt lat="41.21177700" lon="0.928334000">
        <ele>697.00000</ele>
        <time>2010-01-01T01:32:29Z</time>
      </trkpt>
      <trkpt lat="41.21165400" lon="0.927664000">
        <ele>709.00000</ele>
        <time>2010-01-01T01:32:50Z</time>
      </trkpt>
      <trkpt lat="41.21151400" lon="0.927377000">
        <ele>710.00000</ele>
        <time>2010-01-01T01:33:01Z</time>
      </trkpt>
      <trkpt lat="41.21130200" lon="0.927196000">
        <ele>708.00000</ele>
        <time>2010-01-01T01:33:11Z</time>
      </trkpt>
      <trkpt lat="41.21100300" lon="0.926851000">
        <ele>709.00000</ele>
        <time>2010-01-01T01:33:26Z</time>
      </trkpt>
      <trkpt lat="41.21080800" lon="0.926490000">
        <ele>710.00000</ele>
        <time>2010-01-01T01:33:40Z</time>
      </trkpt>
      <trkpt lat="41.21082800" lon="0.926329000">
        <ele>713.00000</ele>
        <time>2010-01-01T01:33:45Z</time>
      </trkpt>
      <trkpt lat="41.21089500" lon="0.925978000">
        <ele>716.00000</ele>
        <time>2010-01-01T01:33:56Z</time>
      </trkpt>
      <trkpt lat="41.21092900" lon="0.925733000">
        <ele>719.00000</ele>
        <time>2010-01-01T01:34:03Z</time>
      </trkpt>
      <trkpt lat="41.21094900" lon="0.925513000">
        <ele>722.00000</ele>
        <time>2010-01-01T01:34:10Z</time>
      </trkpt>
      <trkpt lat="41.21088800" lon="0.925211000">
        <ele>726.00000</ele>
        <time>2010-01-01T01:34:19Z</time>
      </trkpt>
      <trkpt lat="41.21076500" lon="0.925289000">
        <ele>725.00000</ele>
        <time>2010-01-01T01:34:25Z</time>
      </trkpt>
      <trkpt lat="41.21050600" lon="0.925718000">
        <ele>716.00000</ele>
        <time>2010-01-01T01:34:41Z</time>
      </trkpt>
      <trkpt lat="41.21030700" lon="0.925845000">
        <ele>717.00000</ele>
        <time>2010-01-01T01:34:50Z</time>
      </trkpt>
      <trkpt lat="41.21023800" lon="0.925963000">
        <ele>717.00000</ele>
        <time>2010-01-01T01:34:55Z</time>
      </trkpt>
      <trkpt lat="41.21004900" lon="0.926420000">
        <ele>716.00000</ele>
        <time>2010-01-01T01:35:10Z</time>
      </trkpt>
      <trkpt lat="41.21003000" lon="0.926602000">
        <ele>711.00000</ele>
        <time>2010-01-01T01:35:16Z</time>
      </trkpt>
      <trkpt lat="41.21005500" lon="0.927499000">
        <ele>708.00000</ele>
        <time>2010-01-01T01:35:43Z</time>
      </trkpt>
      <trkpt lat="41.21007000" lon="0.927736000">
        <ele>707.00000</ele>
        <time>2010-01-01T01:35:50Z</time>
      </trkpt>
      <trkpt lat="41.20978300" lon="0.927716000">
        <ele>708.00000</ele>
        <time>2010-01-01T01:36:02Z</time>
      </trkpt>
      <trkpt lat="41.20945000" lon="0.927380000">
        <ele>709.00000</ele>
        <time>2010-01-01T01:36:18Z</time>
      </trkpt>
      <trkpt lat="41.20934100" lon="0.927339000">
        <ele>707.00000</ele>
        <time>2010-01-01T01:36:23Z</time>
      </trkpt>
      <trkpt lat="41.20917100" lon="0.927155000">
        <ele>707.00000</ele>
        <time>2010-01-01T01:36:32Z</time>
      </trkpt>
      <trkpt lat="41.20914700" lon="0.926761000">
        <ele>712.00000</ele>
        <time>2010-01-01T01:36:43Z</time>
      </trkpt>
      <trkpt lat="41.20920400" lon="0.926345000">
        <ele>720.00000</ele>
        <time>2010-01-01T01:36:56Z</time>
      </trkpt>
      <trkpt lat="41.20907000" lon="0.926025000">
        <ele>719.00000</ele>
        <time>2010-01-01T01:37:07Z</time>
      </trkpt>
      <trkpt lat="41.20878500" lon="0.926022000">
        <ele>715.00000</ele>
        <time>2010-01-01T01:37:19Z</time>
      </trkpt>
      <trkpt lat="41.20843200" lon="0.925949000">
        <ele>711.00000</ele>
        <time>2010-01-01T01:37:33Z</time>
      </trkpt>
      <trkpt lat="41.20838900" lon="0.925939000">
        <ele>710.00000</ele>
        <time>2010-01-01T01:37:35Z</time>
      </trkpt>
      <trkpt lat="41.20807100" lon="0.925928000">
        <ele>701.00000</ele>
        <time>2010-01-01T01:37:47Z</time>
      </trkpt>
      <trkpt lat="41.20809700" lon="0.925507000">
        <ele>710.00000</ele>
        <time>2010-01-01T01:38:00Z</time>
      </trkpt>
      <trkpt lat="41.20811100" lon="0.925167000">
        <ele>715.00000</ele>
        <time>2010-01-01T01:38:10Z</time>
      </trkpt>
      <trkpt lat="41.20797900" lon="0.925065000">
        <ele>714.00000</ele>
        <time>2010-01-01T01:38:17Z</time>
      </trkpt>
      <trkpt lat="41.20770600" lon="0.924819000">
        <ele>718.00000</ele>
        <time>2010-01-01T01:38:30Z</time>
      </trkpt>
      <trkpt lat="41.20768100" lon="0.924795000">
        <ele>719.00000</ele>
        <time>2010-01-01T01:38:31Z</time>
      </trkpt>
      <trkpt lat="41.20747000" lon="0.924690000">
        <ele>726.00000</ele>
        <time>2010-01-01T01:38:40Z</time>
      </trkpt>
      <trkpt lat="41.20734400" lon="0.924801000">
        <ele>724.00000</ele>
        <time>2010-01-01T01:38:46Z</time>
      </trkpt>
      <trkpt lat="41.20690100" lon="0.925473000">
        <ele>718.00000</ele>
        <time>2010-01-01T01:39:13Z</time>
      </trkpt>
      <trkpt lat="41.20678400" lon="0.925736000">
        <ele>712.00000</ele>
        <time>2010-01-01T01:39:22Z</time>
      </trkpt>
      <trkpt lat="41.20631800" lon="0.926548000">
        <ele>702.00000</ele>
        <time>2010-01-01T01:39:53Z</time>
      </trkpt>
      <trkpt lat="41.20610200" lon="0.926705000">
        <ele>701.00000</ele>
        <time>2010-01-01T01:40:03Z</time>
      </trkpt>
      <trkpt lat="41.20594400" lon="0.926608000">
        <ele>702.00000</ele>
        <time>2010-01-01T01:40:10Z</time>
      </trkpt>
      <trkpt lat="41.20589300" lon="0.926560000">
        <ele>703.00000</ele>
        <time>2010-01-01T01:40:12Z</time>
      </trkpt>
      <trkpt lat="41.20560800" lon="0.925830000">
        <ele>707.00000</ele>
        <time>2010-01-01T01:40:37Z</time>
      </trkpt>
      <trkpt lat="41.20560900" lon="0.925346000">
        <ele>714.00000</ele>
        <time>2010-01-01T01:40:52Z</time>
      </trkpt>
      <trkpt lat="41.20558100" lon="0.925200000">
        <ele>717.00000</ele>
        <time>2010-01-01T01:40:56Z</time>
      </trkpt>
      <trkpt lat="41.20530300" lon="0.924923000">
        <ele>714.00000</ele>
        <time>2010-01-01T01:41:10Z</time>
      </trkpt>
      <trkpt lat="41.20516900" lon="0.924980000">
        <ele>709.00000</ele>
        <time>2010-01-01T01:41:16Z</time>
      </trkpt>
      <trkpt lat="41.20510700" lon="0.924997000">
        <ele>707.00000</ele>
        <time>2010-01-01T01:41:18Z</time>
      </trkpt>
      <trkpt lat="41.20503900" lon="0.925006000">
        <ele>705.00000</ele>
        <time>2010-01-01T01:41:21Z</time>
      </trkpt>
      <trkpt lat="41.20481900" lon="0.924865000">
        <ele>701.00000</ele>
        <time>2010-01-01T01:41:31Z</time>
      </trkpt>
      <trkpt lat="41.20478800" lon="0.924626000">
        <ele>706.00000</ele>
        <time>2010-01-01T01:41:38Z</time>
      </trkpt>
      <trkpt lat="41.20476600" lon="0.924422000">
        <ele>710.00000</ele>
        <time>2010-01-01T01:41:44Z</time>
      </trkpt>
      <trkpt lat="41.20467500" lon="0.924145000">
        <ele>714.00000</ele>
        <time>2010-01-01T01:41:53Z</time>
      </trkpt>
      <trkpt lat="41.20472200" lon="0.923744000">
        <ele>722.00000</ele>
        <time>2010-01-01T01:42:06Z</time>
      </trkpt>
      <trkpt lat="41.20477200" lon="0.923539000">
        <ele>726.00000</ele>
        <time>2010-01-01T01:42:12Z</time>
      </trkpt>
      <trkpt lat="41.20473400" lon="0.923467000">
        <ele>726.00000</ele>
        <time>2010-01-01T01:42:15Z</time>
      </trkpt>
      <trkpt lat="41.20434000" lon="0.923629000">
        <ele>717.00000</ele>
        <time>2010-01-01T01:42:31Z</time>
      </trkpt>
      <trkpt lat="41.20399700" lon="0.923962000">
        <ele>709.00000</ele>
        <time>2010-01-01T01:42:48Z</time>
      </trkpt>
      <trkpt lat="41.20372400" lon="0.924249000">
        <ele>710.00000</ele>
        <time>2010-01-01T01:43:02Z</time>
      </trkpt>
      <trkpt lat="41.20336100" lon="0.924985000">
        <ele>714.00000</ele>
        <time>2010-01-01T01:43:29Z</time>
      </trkpt>
      <trkpt lat="41.20309100" lon="0.925659000">
        <ele>707.00000</ele>
        <time>2010-01-01T01:43:52Z</time>
      </trkpt>
      <trkpt lat="41.20296500" lon="0.926050000">
        <ele>701.00000</ele>
        <time>2010-01-01T01:44:04Z</time>
      </trkpt>
      <trkpt lat="41.20291200" lon="0.926184000">
        <ele>700.00000</ele>
        <time>2010-01-01T01:44:09Z</time>
      </trkpt>
      <trkpt lat="41.20286500" lon="0.926316000">
        <ele>699.00000</ele>
        <time>2010-01-01T01:44:13Z</time>
      </trkpt>
      <trkpt lat="41.20283200" lon="0.926407000">
        <ele>698.00000</ele>
        <time>2010-01-01T01:44:16Z</time>
      </trkpt>
      <trkpt lat="41.20274100" lon="0.926649000">
        <ele>697.00000</ele>
        <time>2010-01-01T01:44:25Z</time>
      </trkpt>
      <trkpt lat="41.20268800" lon="0.926792000">
        <ele>696.00000</ele>
        <time>2010-01-01T01:44:29Z</time>
      </trkpt>
      <trkpt lat="41.20267600" lon="0.926832000">
        <ele>696.00000</ele>
        <time>2010-01-01T01:44:31Z</time>
      </trkpt>
      <trkpt lat="41.20261600" lon="0.926960000">
        <ele>696.00000</ele>
        <time>2010-01-01T01:44:35Z</time>
      </trkpt>
      <trkpt lat="41.20260100" lon="0.926987000">
        <ele>696.00000</ele>
        <time>2010-01-01T01:44:36Z</time>
      </trkpt>
      <trkpt lat="41.20255700" lon="0.927053000">
        <ele>697.00000</ele>
        <time>2010-01-01T01:44:39Z</time>
      </trkpt>
      <trkpt lat="41.20254300" lon="0.927074000">
        <ele>697.00000</ele>
        <time>2010-01-01T01:44:40Z</time>
      </trkpt>
      <trkpt lat="41.20249800" lon="0.927127000">
        <ele>697.00000</ele>
        <time>2010-01-01T01:44:42Z</time>
      </trkpt>
      <trkpt lat="41.20245300" lon="0.927160000">
        <ele>697.00000</ele>
        <time>2010-01-01T01:44:44Z</time>
      </trkpt>
      <trkpt lat="41.20241700" lon="0.927198000">
        <ele>697.00000</ele>
        <time>2010-01-01T01:44:46Z</time>
      </trkpt>
      <trkpt lat="41.20242400" lon="0.927282000">
        <ele>697.00000</ele>
        <time>2010-01-01T01:44:49Z</time>
      </trkpt>
      <trkpt lat="41.20244000" lon="0.927309000">
        <ele>697.00000</ele>
        <time>2010-01-01T01:44:50Z</time>
      </trkpt>
      <trkpt lat="41.20249800" lon="0.927302000">
        <ele>697.00000</ele>
        <time>2010-01-01T01:44:52Z</time>
      </trkpt>
      <trkpt lat="41.20254600" lon="0.927248000">
        <ele>697.00000</ele>
        <time>2010-01-01T01:44:54Z</time>
      </trkpt>
      <trkpt lat="41.20242700" lon="0.927294000">
        <ele>697.00000</ele>
        <time>2010-01-01T01:44:59Z</time>
      </trkpt>
      <trkpt lat="41.20230300" lon="0.927634000">
        <ele>698.00000</ele>
        <time>2010-01-01T01:45:11Z</time>
      </trkpt>
      <trkpt lat="41.20233600" lon="0.928063000">
        <ele>696.00000</ele>
        <time>2010-01-01T01:45:24Z</time>
      </trkpt>
      <trkpt lat="41.20228900" lon="0.928260000">
        <ele>695.00000</ele>
        <time>2010-01-01T01:45:30Z</time>
      </trkpt>
      <trkpt lat="41.20218100" lon="0.928438000">
        <ele>696.00000</ele>
        <time>2010-01-01T01:45:37Z</time>
      </trkpt>
      <trkpt lat="41.20208200" lon="0.928660000">
        <ele>696.00000</ele>
        <time>2010-01-01T01:45:45Z</time>
      </trkpt>
      <trkpt lat="41.20163900" lon="0.928969000">
        <ele>705.00000</ele>
        <time>2010-01-01T01:46:05Z</time>
      </trkpt>
      <trkpt lat="41.20146200" lon="0.928924000">
        <ele>709.00000</ele>
        <time>2010-01-01T01:46:12Z</time>
      </trkpt>
      <trkpt lat="41.20119000" lon="0.928937000">
        <ele>710.00000</ele>
        <time>2010-01-01T01:46:23Z</time>
      </trkpt>
      <trkpt lat="41.20068000" lon="0.928859000">
        <ele>716.00000</ele>
        <time>2010-01-01T01:46:43Z</time>
      </trkpt>
      <trkpt lat="41.20058500" lon="0.928853000">
        <ele>718.00000</ele>
        <time>2010-01-01T01:46:47Z</time>
      </trkpt>
      <trkpt lat="41.20021600" lon="0.929152000">
        <ele>717.00000</ele>
        <time>2010-01-01T01:47:04Z</time>
      </trkpt>
      <trkpt lat="41.19997300" lon="0.929694000">
        <ele>717.00000</ele>
        <time>2010-01-01T01:47:23Z</time>
      </trkpt>
      <trkpt lat="41.19995000" lon="0.929796000">
        <ele>717.00000</ele>
        <time>2010-01-01T01:47:27Z</time>
      </trkpt>
      <trkpt lat="41.19971100" lon="0.930581000">
        <ele>723.00000</ele>
        <time>2010-01-01T01:47:52Z</time>
      </trkpt>
      <trkpt lat="41.19962000" lon="0.930819000">
        <ele>728.00000</ele>
        <time>2010-01-01T01:48:00Z</time>
      </trkpt>
      <trkpt lat="41.19986500" lon="0.931043000">
        <ele>720.00000</ele>
        <time>2010-01-01T01:48:12Z</time>
      </trkpt>
      <trkpt lat="41.20003200" lon="0.931102000">
        <ele>716.00000</ele>
        <time>2010-01-01T01:48:19Z</time>
      </trkpt>
      <trkpt lat="41.20011700" lon="0.931207000">
        <ele>716.00000</ele>
        <time>2010-01-01T01:48:24Z</time>
      </trkpt>
      <trkpt lat="41.20015700" lon="0.931354000">
        <ele>718.00000</ele>
        <time>2010-01-01T01:48:28Z</time>
      </trkpt>
      <trkpt lat="41.20016900" lon="0.931423000">
        <ele>719.00000</ele>
        <time>2010-01-01T01:48:31Z</time>
      </trkpt>
      <trkpt lat="41.20019400" lon="0.931544000">
        <ele>720.00000</ele>
        <time>2010-01-01T01:48:34Z</time>
      </trkpt>
      <trkpt lat="41.20019900" lon="0.931808000">
        <ele>723.00000</ele>
        <time>2010-01-01T01:48:42Z</time>
      </trkpt>
      <trkpt lat="41.20016700" lon="0.931951000">
        <ele>725.00000</ele>
        <time>2010-01-01T01:48:47Z</time>
      </trkpt>
      <trkpt lat="41.20015900" lon="0.932350000">
        <ele>728.00000</ele>
        <time>2010-01-01T01:48:59Z</time>
      </trkpt>
      <trkpt lat="41.20020200" lon="0.932668000">
        <ele>727.00000</ele>
        <time>2010-01-01T01:49:09Z</time>
      </trkpt>
      <trkpt lat="41.20018200" lon="0.933037000">
        <ele>726.00000</ele>
        <time>2010-01-01T01:49:20Z</time>
      </trkpt>
      <trkpt lat="41.20007400" lon="0.933546000">
        <ele>726.00000</ele>
        <time>2010-01-01T01:49:36Z</time>
      </trkpt>
      <trkpt lat="41.19991600" lon="0.933884000">
        <ele>727.00000</ele>
        <time>2010-01-01T01:49:48Z</time>
      </trkpt>
      <trkpt lat="41.19942400" lon="0.934062000">
        <ele>726.00000</ele>
        <time>2010-01-01T01:50:08Z</time>
      </trkpt>
      <trkpt lat="41.19920000" lon="0.933837000">
        <ele>731.00000</ele>
        <time>2010-01-01T01:50:19Z</time>
      </trkpt>
      <trkpt lat="41.19893200" lon="0.933490000">
        <ele>734.00000</ele>
        <time>2010-01-01T01:50:34Z</time>
      </trkpt>
      <trkpt lat="41.19872300" lon="0.932898000">
        <ele>742.00000</ele>
        <time>2010-01-01T01:50:54Z</time>
      </trkpt>
      <trkpt lat="41.19852700" lon="0.932441000">
        <ele>750.00000</ele>
        <time>2010-01-01T01:51:10Z</time>
      </trkpt>
      <trkpt lat="41.19820000" lon="0.932583000">
        <ele>746.00000</ele>
        <time>2010-01-01T01:51:24Z</time>
      </trkpt>
      <trkpt lat="41.19811300" lon="0.932605000">
        <ele>746.00000</ele>
        <time>2010-01-01T01:51:27Z</time>
      </trkpt>
      <trkpt lat="41.19793400" lon="0.932631000">
        <ele>746.00000</ele>
        <time>2010-01-01T01:51:34Z</time>
      </trkpt>
      <trkpt lat="41.19774600" lon="0.932628000">
        <ele>747.00000</ele>
        <time>2010-01-01T01:51:42Z</time>
      </trkpt>
      <trkpt lat="41.19731600" lon="0.932446000">
        <ele>756.00000</ele>
        <time>2010-01-01T01:52:00Z</time>
      </trkpt>
      <trkpt lat="41.19693700" lon="0.932464000">
        <ele>756.00000</ele>
        <time>2010-01-01T01:52:15Z</time>
      </trkpt>
      <trkpt lat="41.19688200" lon="0.932539000">
        <ele>754.00000</ele>
        <time>2010-01-01T01:52:18Z</time>
      </trkpt>
      <trkpt lat="41.19677400" lon="0.932703000">
        <ele>752.00000</ele>
        <time>2010-01-01T01:52:25Z</time>
      </trkpt>
      <trkpt lat="41.19662000" lon="0.932735000">
        <ele>754.00000</ele>
        <time>2010-01-01T01:52:31Z</time>
      </trkpt>
      <trkpt lat="41.19624800" lon="0.932755000">
        <ele>758.00000</ele>
        <time>2010-01-01T01:52:46Z</time>
      </trkpt>
      <trkpt lat="41.19616100" lon="0.932738000">
        <ele>759.00000</ele>
        <time>2010-01-01T01:52:49Z</time>
      </trkpt>
      <trkpt lat="41.19563500" lon="0.932594000">
        <ele>759.00000</ele>
        <time>2010-01-01T01:53:11Z</time>
      </trkpt>
      <trkpt lat="41.19542100" lon="0.932276000">
        <ele>767.00000</ele>
        <time>2010-01-01T01:53:24Z</time>
      </trkpt>
      <trkpt lat="41.19529200" lon="0.932067000">
        <ele>776.00000</ele>
        <time>2010-01-01T01:53:32Z</time>
      </trkpt>
      <trkpt lat="41.19477900" lon="0.932139000">
        <ele>778.00000</ele>
        <time>2010-01-01T01:53:53Z</time>
      </trkpt>
      <trkpt lat="41.19457000" lon="0.932545000">
        <ele>776.00000</ele>
        <time>2010-01-01T01:54:07Z</time>
      </trkpt>
      <trkpt lat="41.19444500" lon="0.932637000">
        <ele>779.00000</ele>
        <time>2010-01-01T01:54:13Z</time>
      </trkpt>
      <trkpt lat="41.19428600" lon="0.932842000">
        <ele>780.00000</ele>
        <time>2010-01-01T01:54:22Z</time>
      </trkpt>
      <trkpt lat="41.19417200" lon="0.933075000">
        <ele>780.00000</ele>
        <time>2010-01-01T01:54:30Z</time>
      </trkpt>
      <trkpt lat="41.19412800" lon="0.933130000">
        <ele>781.00000</ele>
        <time>2010-01-01T01:54:33Z</time>
      </trkpt>
      <trkpt lat="41.19391400" lon="0.933337000">
        <ele>785.00000</ele>
        <time>2010-01-01T01:54:43Z</time>
      </trkpt>
      <trkpt lat="41.19377700" lon="0.933479000">
        <ele>788.00000</ele>
        <time>2010-01-01T01:54:50Z</time>
      </trkpt>
      <trkpt lat="41.19392700" lon="0.933726000">
        <ele>784.00000</ele>
        <time>2010-01-01T01:55:00Z</time>
      </trkpt>
      <trkpt lat="41.19429100" lon="0.933914000">
        <ele>775.00000</ele>
        <time>2010-01-01T01:55:16Z</time>
      </trkpt>
      <trkpt lat="41.19440800" lon="0.934071000">
        <ele>773.00000</ele>
        <time>2010-01-01T01:55:22Z</time>
      </trkpt>
      <trkpt lat="41.19443200" lon="0.934177000">
        <ele>774.00000</ele>
        <time>2010-01-01T01:55:25Z</time>
      </trkpt>
      <trkpt lat="41.19445000" lon="0.934350000">
        <ele>777.00000</ele>
        <time>2010-01-01T01:55:31Z</time>
      </trkpt>
      <trkpt lat="41.19443000" lon="0.934708000">
        <ele>783.00000</ele>
        <time>2010-01-01T01:55:42Z</time>
      </trkpt>
      <trkpt lat="41.19436500" lon="0.934938000">
        <ele>781.00000</ele>
        <time>2010-01-01T01:55:49Z</time>
      </trkpt>
      <trkpt lat="41.19412000" lon="0.935393000">
        <ele>778.00000</ele>
        <time>2010-01-01T01:56:06Z</time>
      </trkpt>
      <trkpt lat="41.19384800" lon="0.936061000">
        <ele>778.00000</ele>
        <time>2010-01-01T01:56:29Z</time>
      </trkpt>
      <trkpt lat="41.19377300" lon="0.936298000">
        <ele>778.00000</ele>
        <time>2010-01-01T01:56:36Z</time>
      </trkpt>
      <trkpt lat="41.19364800" lon="0.936557000">
        <ele>779.00000</ele>
        <time>2010-01-01T01:56:46Z</time>
      </trkpt>
      <trkpt lat="41.19362200" lon="0.936597000">
        <ele>780.00000</ele>
        <time>2010-01-01T01:56:47Z</time>
      </trkpt>
      <trkpt lat="41.19349200" lon="0.936823000">
        <ele>779.00000</ele>
        <time>2010-01-01T01:56:56Z</time>
      </trkpt>
      <trkpt lat="41.19326700" lon="0.937057000">
        <ele>779.00000</ele>
        <time>2010-01-01T01:57:07Z</time>
      </trkpt>
      <trkpt lat="41.19298200" lon="0.937056000">
        <ele>774.00000</ele>
        <time>2010-01-01T01:57:19Z</time>
      </trkpt>
      <trkpt lat="41.19288800" lon="0.937036000">
        <ele>772.00000</ele>
        <time>2010-01-01T01:57:23Z</time>
      </trkpt>
      <trkpt lat="41.19280800" lon="0.937003000">
        <ele>770.00000</ele>
        <time>2010-01-01T01:57:26Z</time>
      </trkpt>
      <trkpt lat="41.19297400" lon="0.936471000">
        <ele>778.00000</ele>
        <time>2010-01-01T01:57:43Z</time>
      </trkpt>
      <trkpt lat="41.19303600" lon="0.936300000">
        <ele>780.00000</ele>
        <time>2010-01-01T01:57:49Z</time>
      </trkpt>
      <trkpt lat="41.19305400" lon="0.936259000">
        <ele>780.00000</ele>
        <time>2010-01-01T01:57:50Z</time>
      </trkpt>
      <trkpt lat="41.19310000" lon="0.936255000">
        <ele>782.00000</ele>
        <time>2010-01-01T01:57:52Z</time>
      </trkpt>
      <trkpt lat="41.19310000" lon="0.936471000">
        <ele>782.00000</ele>
        <time>2010-01-01T01:57:59Z</time>
      </trkpt>
      <trkpt lat="41.19306300" lon="0.936763000">
        <ele>780.00000</ele>
        <time>2010-01-01T01:58:08Z</time>
      </trkpt>
      <trkpt lat="41.19307000" lon="0.936844000">
        <ele>779.00000</ele>
        <time>2010-01-01T01:58:10Z</time>
      </trkpt>
      <trkpt lat="41.19306500" lon="0.936895000">
        <ele>778.00000</ele>
        <time>2010-01-01T01:58:12Z</time>
      </trkpt>
      <trkpt lat="41.19306200" lon="0.936897000">
        <ele>778.00000</ele>
        <time>2010-01-01T01:58:12Z</time>
      </trkpt>
      <trkpt lat="41.19304900" lon="0.936883000">
        <ele>778.00000</ele>
        <time>2010-01-01T01:58:12Z</time>
      </trkpt>
      <trkpt lat="41.19305000" lon="0.936882000">
        <ele>778.00000</ele>
        <time>2010-01-01T01:58:13Z</time>
      </trkpt>
      <trkpt lat="41.19305200" lon="0.936878000">
        <ele>778.00000</ele>
        <time>2010-01-01T01:58:13Z</time>
      </trkpt>
      <trkpt lat="41.19305700" lon="0.936872000">
        <ele>778.00000</ele>
        <time>2010-01-01T01:58:13Z</time>
      </trkpt>
      <trkpt lat="41.19305400" lon="0.936879000">
        <ele>778.00000</ele>
        <time>2010-01-01T01:58:13Z</time>
      </trkpt>
      <trkpt lat="41.19306600" lon="0.936878000">
        <ele>778.00000</ele>
        <time>2010-01-01T01:58:14Z</time>
      </trkpt>
      <trkpt lat="41.19306600" lon="0.936880000">
        <ele>778.00000</ele>
        <time>2010-01-01T01:58:14Z</time>
      </trkpt>
      <trkpt lat="41.19306600" lon="0.936881000">
        <ele>778.00000</ele>
        <time>2010-01-01T01:58:14Z</time>
      </trkpt>
      <trkpt lat="41.19306100" lon="0.936862000">
        <ele>778.00000</ele>
        <time>2010-01-01T01:58:14Z</time>
      </trkpt>
      <trkpt lat="41.19314400" lon="0.936685000">
        <ele>782.00000</ele>
        <time>2010-01-01T01:58:21Z</time>
      </trkpt>
      <trkpt lat="41.19314000" lon="0.936662000">
        <ele>782.00000</ele>
        <time>2010-01-01T01:58:21Z</time>
      </trkpt>
      <trkpt lat="41.19313900" lon="0.936664000">
        <ele>782.00000</ele>
        <time>2010-01-01T01:58:21Z</time>
      </trkpt>
      <trkpt lat="41.19313800" lon="0.936664000">
        <ele>782.00000</ele>
        <time>2010-01-01T01:58:21Z</time>
      </trkpt>
      <trkpt lat="41.19311300" lon="0.936633000">
        <ele>781.00000</ele>
        <time>2010-01-01T01:58:23Z</time>
      </trkpt>
      <trkpt lat="41.19305200" lon="0.936282000">
        <ele>780.00000</ele>
        <time>2010-01-01T01:58:34Z</time>
      </trkpt>
      <trkpt lat="41.19305200" lon="0.936255000">
        <ele>780.00000</ele>
        <time>2010-01-01T01:58:34Z</time>
      </trkpt>
      <trkpt lat="41.19305600" lon="0.935946000">
        <ele>780.00000</ele>
        <time>2010-01-01T01:58:44Z</time>
      </trkpt>
      <trkpt lat="41.19312400" lon="0.935538000">
        <ele>781.00000</ele>
        <time>2010-01-01T01:58:56Z</time>
      </trkpt>
      <trkpt lat="41.19320400" lon="0.935055000">
        <ele>782.00000</ele>
        <time>2010-01-01T01:59:11Z</time>
      </trkpt>
      <trkpt lat="41.19313700" lon="0.934837000">
        <ele>783.00000</ele>
        <time>2010-01-01T01:59:18Z</time>
      </trkpt>
      <trkpt lat="41.19289000" lon="0.934881000">
        <ele>783.00000</ele>
        <time>2010-01-01T01:59:28Z</time>
      </trkpt>
      <trkpt lat="41.19282600" lon="0.934888000">
        <ele>784.00000</ele>
        <time>2010-01-01T01:59:31Z</time>
      </trkpt>
      <trkpt lat="41.19254200" lon="0.935062000">
        <ele>781.00000</ele>
        <time>2010-01-01T01:59:43Z</time>
      </trkpt>
      <trkpt lat="41.19224800" lon="0.935099000">
        <ele>782.00000</ele>
        <time>2010-01-01T01:59:55Z</time>
      </trkpt>
      <trkpt lat="41.19187800" lon="0.935101000">
        <ele>780.00000</ele>
        <time>2010-01-01T02:00:10Z</time>
      </trkpt>
      <trkpt lat="41.19174300" lon="0.935246000">
        <ele>777.00000</ele>
        <time>2010-01-01T02:00:17Z</time>
      </trkpt>
      <trkpt lat="41.19163200" lon="0.935310000">
        <ele>775.00000</ele>
        <time>2010-01-01T02:00:22Z</time>
      </trkpt>
      <trkpt lat="41.19156700" lon="0.935264000">
        <ele>775.00000</ele>
        <time>2010-01-01T02:00:25Z</time>
      </trkpt>
      <trkpt lat="41.19155700" lon="0.934919000">
        <ele>779.00000</ele>
        <time>2010-01-01T02:00:35Z</time>
      </trkpt>
      <trkpt lat="41.19157700" lon="0.934751000">
        <ele>779.00000</ele>
        <time>2010-01-01T02:00:40Z</time>
      </trkpt>
      <trkpt lat="41.19158700" lon="0.934743000">
        <ele>779.00000</ele>
        <time>2010-01-01T02:00:41Z</time>
      </trkpt>
      <trkpt lat="41.19159300" lon="0.934735000">
        <ele>779.00000</ele>
        <time>2010-01-01T02:00:41Z</time>
      </trkpt>
      <trkpt lat="41.19139900" lon="0.934727000">
        <ele>775.00000</ele>
        <time>2010-01-01T02:00:49Z</time>
      </trkpt>
      <trkpt lat="41.19136200" lon="0.934732000">
        <ele>774.00000</ele>
        <time>2010-01-01T02:00:50Z</time>
      </trkpt>
      <trkpt lat="41.19131400" lon="0.934726000">
        <ele>774.00000</ele>
        <time>2010-01-01T02:00:52Z</time>
      </trkpt>
      <trkpt lat="41.19132500" lon="0.934733000">
        <ele>774.00000</ele>
        <time>2010-01-01T02:00:53Z</time>
      </trkpt>
      <trkpt lat="41.19144700" lon="0.934739000">
        <ele>776.00000</ele>
        <time>2010-01-01T02:00:58Z</time>
      </trkpt>
      <trkpt lat="41.19149400" lon="0.934722000">
        <ele>777.00000</ele>
        <time>2010-01-01T02:01:00Z</time>
      </trkpt>
      <trkpt lat="41.19149700" lon="0.934717000">
        <ele>777.00000</ele>
        <time>2010-01-01T02:01:00Z</time>
      </trkpt>
      <trkpt lat="41.19154000" lon="0.934600000">
        <ele>777.00000</ele>
        <time>2010-01-01T02:01:04Z</time>
      </trkpt>
      <trkpt lat="41.19154400" lon="0.934534000">
        <ele>777.00000</ele>
        <time>2010-01-01T02:01:06Z</time>
      </trkpt>
      <trkpt lat="41.19154000" lon="0.934523000">
        <ele>777.00000</ele>
        <time>2010-01-01T02:01:06Z</time>
      </trkpt>
      <trkpt lat="41.19154000" lon="0.934504000">
        <ele>777.00000</ele>
        <time>2010-01-01T02:01:07Z</time>
      </trkpt>
      <trkpt lat="41.19154000" lon="0.934484000">
        <ele>777.00000</ele>
        <time>2010-01-01T02:01:07Z</time>
      </trkpt>
      <trkpt lat="41.19207600" lon="0.935050000">
        <ele>782.00000</ele>
        <time>2010-01-01T00:00:00Z</time>
      </trkpt>
      <trkpt lat="41.19179800" lon="0.935155000">
        <ele>779.00000</ele>
        <time>2010-01-01T00:00:11Z</time>
      </trkpt>
      <trkpt lat="41.19164900" lon="0.935290000">
        <ele>775.00000</ele>
        <time>2010-01-01T00:00:18Z</time>
      </trkpt>
      <trkpt lat="41.19153400" lon="0.935194000">
        <ele>776.00000</ele>
        <time>2010-01-01T00:00:24Z</time>
      </trkpt>
      <trkpt lat="41.19153700" lon="0.934807000">
        <ele>778.00000</ele>
        <time>2010-01-01T00:00:35Z</time>
      </trkpt>
      <trkpt lat="41.19154000" lon="0.934775000">
        <ele>778.00000</ele>
        <time>2010-01-01T00:00:36Z</time>
      </trkpt>
      <trkpt lat="41.19154400" lon="0.934761000">
        <ele>778.00000</ele>
        <time>2010-01-01T00:00:37Z</time>
      </trkpt>
      <trkpt lat="41.19155200" lon="0.934552000">
        <ele>778.00000</ele>
        <time>2010-01-01T00:00:43Z</time>
      </trkpt>
      <trkpt lat="41.19159600" lon="0.934268000">
        <ele>777.00000</ele>
        <time>2010-01-01T00:00:52Z</time>
      </trkpt>
      <trkpt lat="41.19162900" lon="0.934081000">
        <ele>777.00000</ele>
        <time>2010-01-01T00:00:58Z</time>
      </trkpt>
      <trkpt lat="41.19167400" lon="0.933754000">
        <ele>774.00000</ele>
        <time>2010-01-01T00:01:08Z</time>
      </trkpt>
      <trkpt lat="41.19168900" lon="0.933514000">
        <ele>770.00000</ele>
        <time>2010-01-01T00:01:15Z</time>
      </trkpt>
      <trkpt lat="41.19192300" lon="0.932979000">
        <ele>769.00000</ele>
        <time>2010-01-01T00:01:34Z</time>
      </trkpt>
      <trkpt lat="41.19205100" lon="0.932901000">
        <ele>772.00000</ele>
        <time>2010-01-01T00:01:39Z</time>
      </trkpt>
      <trkpt lat="41.19208200" lon="0.932469000">
        <ele>766.00000</ele>
        <time>2010-01-01T00:01:52Z</time>
      </trkpt>
      <trkpt lat="41.19207000" lon="0.932031000">
        <ele>764.00000</ele>
        <time>2010-01-01T00:02:05Z</time>
      </trkpt>
      <trkpt lat="41.19193400" lon="0.931661000">
        <ele>757.00000</ele>
        <time>2010-01-01T00:02:18Z</time>
      </trkpt>
      <trkpt lat="41.19183900" lon="0.931273000">
        <ele>754.00000</ele>
        <time>2010-01-01T00:02:30Z</time>
      </trkpt>
      <trkpt lat="41.19174200" lon="0.930957000">
        <ele>748.00000</ele>
        <time>2010-01-01T00:02:40Z</time>
      </trkpt>
      <trkpt lat="41.19190400" lon="0.930465000">
        <ele>746.00000</ele>
        <time>2010-01-01T00:02:57Z</time>
      </trkpt>
      <trkpt lat="41.19233700" lon="0.930300000">
        <ele>751.00000</ele>
        <time>2010-01-01T00:03:15Z</time>
      </trkpt>
      <trkpt lat="41.19251300" lon="0.930160000">
        <ele>752.00000</ele>
        <time>2010-01-01T00:03:23Z</time>
      </trkpt>
      <trkpt lat="41.19267000" lon="0.929995000">
        <ele>754.00000</ele>
        <time>2010-01-01T00:03:31Z</time>
      </trkpt>
      <trkpt lat="41.19271500" lon="0.929730000">
        <ele>750.00000</ele>
        <time>2010-01-01T00:03:39Z</time>
      </trkpt>
      <trkpt lat="41.19268000" lon="0.929559000">
        <ele>745.00000</ele>
        <time>2010-01-01T00:03:44Z</time>
      </trkpt>
      <trkpt lat="41.19269000" lon="0.929360000">
        <ele>743.00000</ele>
        <time>2010-01-01T00:03:50Z</time>
      </trkpt>
      <trkpt lat="41.19273700" lon="0.929044000">
        <ele>743.00000</ele>
        <time>2010-01-01T00:04:00Z</time>
      </trkpt>
      <trkpt lat="41.19272400" lon="0.928616000">
        <ele>741.00000</ele>
        <time>2010-01-01T00:04:13Z</time>
      </trkpt>
      <trkpt lat="41.19270400" lon="0.928192000">
        <ele>740.00000</ele>
        <time>2010-01-01T00:04:26Z</time>
      </trkpt>
      <trkpt lat="41.19266900" lon="0.927960000">
        <ele>737.00000</ele>
        <time>2010-01-01T00:04:33Z</time>
      </trkpt>
      <trkpt lat="41.19245400" lon="0.927603000">
        <ele>731.00000</ele>
        <time>2010-01-01T00:04:47Z</time>
      </trkpt>
      <trkpt lat="41.19237000" lon="0.927576000">
        <ele>729.00000</ele>
        <time>2010-01-01T00:04:50Z</time>
      </trkpt>
      <trkpt lat="41.19195500" lon="0.927508000">
        <ele>723.00000</ele>
        <time>2010-01-01T00:05:07Z</time>
      </trkpt>
      <trkpt lat="41.19158700" lon="0.927226000">
        <ele>723.00000</ele>
        <time>2010-01-01T00:05:24Z</time>
      </trkpt>
      <trkpt lat="41.19140800" lon="0.926826000">
        <ele>722.00000</ele>
        <time>2010-01-01T00:05:38Z</time>
      </trkpt>
      <trkpt lat="41.19137200" lon="0.926367000">
        <ele>721.00000</ele>
        <time>2010-01-01T00:05:52Z</time>
      </trkpt>
      <trkpt lat="41.19131200" lon="0.926060000">
        <ele>714.00000</ele>
        <time>2010-01-01T00:06:01Z</time>
      </trkpt>
      <trkpt lat="41.19091800" lon="0.925820000">
        <ele>708.00000</ele>
        <time>2010-01-01T00:06:19Z</time>
      </trkpt>
      <trkpt lat="41.19088400" lon="0.925815000">
        <ele>708.00000</ele>
        <time>2010-01-01T00:06:20Z</time>
      </trkpt>
      <trkpt lat="41.19070300" lon="0.925666000">
        <ele>704.00000</ele>
        <time>2010-01-01T00:06:29Z</time>
      </trkpt>
      <trkpt lat="41.19048500" lon="0.925583000">
        <ele>699.00000</ele>
        <time>2010-01-01T00:06:38Z</time>
      </trkpt>
      <trkpt lat="41.19030900" lon="0.925484000">
        <ele>697.00000</ele>
        <time>2010-01-01T00:06:45Z</time>
      </trkpt>
      <trkpt lat="41.19012400" lon="0.925325000">
        <ele>695.00000</ele>
        <time>2010-01-01T00:06:54Z</time>
      </trkpt>
      <trkpt lat="41.18989500" lon="0.925266000">
        <ele>694.00000</ele>
        <time>2010-01-01T00:07:03Z</time>
      </trkpt>
      <trkpt lat="41.18982700" lon="0.925236000">
        <ele>694.00000</ele>
        <time>2010-01-01T00:07:06Z</time>
      </trkpt>
      <trkpt lat="41.18969500" lon="0.925160000">
        <ele>693.00000</ele>
        <time>2010-01-01T00:07:12Z</time>
      </trkpt>
      <trkpt lat="41.18927800" lon="0.924979000">
        <ele>692.00000</ele>
        <time>2010-01-01T00:07:30Z</time>
      </trkpt>
      <trkpt lat="41.18915300" lon="0.924838000">
        <ele>691.00000</ele>
        <time>2010-01-01T00:07:36Z</time>
      </trkpt>
      <trkpt lat="41.18889900" lon="0.924702000">
        <ele>694.00000</ele>
        <time>2010-01-01T00:07:47Z</time>
      </trkpt>
      <trkpt lat="41.18869600" lon="0.924561000">
        <ele>695.00000</ele>
        <time>2010-01-01T00:07:56Z</time>
      </trkpt>
      <trkpt lat="41.18852800" lon="0.924193000">
        <ele>700.00000</ele>
        <time>2010-01-01T00:08:09Z</time>
      </trkpt>
      <trkpt lat="41.18828300" lon="0.924210000">
        <ele>706.00000</ele>
        <time>2010-01-01T00:08:19Z</time>
      </trkpt>
      <trkpt lat="41.18798900" lon="0.924342000">
        <ele>704.00000</ele>
        <time>2010-01-01T00:08:32Z</time>
      </trkpt>
      <trkpt lat="41.18760800" lon="0.924421000">
        <ele>700.00000</ele>
        <time>2010-01-01T00:08:47Z</time>
      </trkpt>
      <trkpt lat="41.18738900" lon="0.924270000">
        <ele>702.00000</ele>
        <time>2010-01-01T00:08:57Z</time>
      </trkpt>
      <trkpt lat="41.18735400" lon="0.924243000">
        <ele>702.00000</ele>
        <time>2010-01-01T00:08:59Z</time>
      </trkpt>
      <trkpt lat="41.18734400" lon="0.924146000">
        <ele>705.00000</ele>
        <time>2010-01-01T00:09:01Z</time>
      </trkpt>
      <trkpt lat="41.18737200" lon="0.923910000">
        <ele>713.00000</ele>
        <time>2010-01-01T00:09:09Z</time>
      </trkpt>
      <trkpt lat="41.18736700" lon="0.923881000">
        <ele>713.00000</ele>
        <time>2010-01-01T00:09:10Z</time>
      </trkpt>
      <trkpt lat="41.18733100" lon="0.923626000">
        <ele>719.00000</ele>
        <time>2010-01-01T00:09:17Z</time>
      </trkpt>
      <trkpt lat="41.18732200" lon="0.923476000">
        <ele>722.00000</ele>
        <time>2010-01-01T00:09:22Z</time>
      </trkpt>
      <trkpt lat="41.18735300" lon="0.923401000">
        <ele>725.00000</ele>
        <time>2010-01-01T00:09:24Z</time>
      </trkpt>
      <trkpt lat="41.18738200" lon="0.923167000">
        <ele>731.00000</ele>
        <time>2010-01-01T00:09:32Z</time>
      </trkpt>
      <trkpt lat="41.18735300" lon="0.923084000">
        <ele>733.00000</ele>
        <time>2010-01-01T00:09:34Z</time>
      </trkpt>
      <trkpt lat="41.18729300" lon="0.923009000">
        <ele>735.00000</ele>
        <time>2010-01-01T00:09:38Z</time>
      </trkpt>
      <trkpt lat="41.18722800" lon="0.922952000">
        <ele>736.00000</ele>
        <time>2010-01-01T00:09:41Z</time>
      </trkpt>
      <trkpt lat="41.18715100" lon="0.922916000">
        <ele>736.00000</ele>
        <time>2010-01-01T00:09:44Z</time>
      </trkpt>
      <trkpt lat="41.18705300" lon="0.922848000">
        <ele>737.00000</ele>
        <time>2010-01-01T00:09:48Z</time>
      </trkpt>
      <trkpt lat="41.18702000" lon="0.922812000">
        <ele>738.00000</ele>
        <time>2010-01-01T00:09:50Z</time>
      </trkpt>
      <trkpt lat="41.18694600" lon="0.922776000">
        <ele>740.00000</ele>
        <time>2010-01-01T00:09:53Z</time>
      </trkpt>
      <trkpt lat="41.18665200" lon="0.922833000">
        <ele>737.00000</ele>
        <time>2010-01-01T00:10:05Z</time>
      </trkpt>
      <trkpt lat="41.18629200" lon="0.923021000">
        <ele>731.00000</ele>
        <time>2010-01-01T00:10:21Z</time>
      </trkpt>
      <trkpt lat="41.18625300" lon="0.923051000">
        <ele>729.00000</ele>
        <time>2010-01-01T00:10:23Z</time>
      </trkpt>
      <trkpt lat="41.18610700" lon="0.923127000">
        <ele>724.00000</ele>
        <time>2010-01-01T00:10:29Z</time>
      </trkpt>
      <trkpt lat="41.18594700" lon="0.923183000">
        <ele>723.00000</ele>
        <time>2010-01-01T00:10:35Z</time>
      </trkpt>
      <trkpt lat="41.18577300" lon="0.923172000">
        <ele>728.00000</ele>
        <time>2010-01-01T00:10:42Z</time>
      </trkpt>
      <trkpt lat="41.18556400" lon="0.923302000">
        <ele>724.00000</ele>
        <time>2010-01-01T00:10:52Z</time>
      </trkpt>
      <trkpt lat="41.18548500" lon="0.923399000">
        <ele>721.00000</ele>
        <time>2010-01-01T00:10:56Z</time>
      </trkpt>
      <trkpt lat="41.18530500" lon="0.923487000">
        <ele>721.00000</ele>
        <time>2010-01-01T00:11:04Z</time>
      </trkpt>
      <trkpt lat="41.18496400" lon="0.923483000">
        <ele>729.00000</ele>
        <time>2010-01-01T00:11:17Z</time>
      </trkpt>
      <trkpt lat="41.18492000" lon="0.923458000">
        <ele>730.00000</ele>
        <time>2010-01-01T00:11:19Z</time>
      </trkpt>
      <trkpt lat="41.18486000" lon="0.923465000">
        <ele>731.00000</ele>
        <time>2010-01-01T00:11:22Z</time>
      </trkpt>
      <trkpt lat="41.18454600" lon="0.923739000">
        <ele>727.00000</ele>
        <time>2010-01-01T00:11:37Z</time>
      </trkpt>
      <trkpt lat="41.18428700" lon="0.924059000">
        <ele>721.00000</ele>
        <time>2010-01-01T00:11:51Z</time>
      </trkpt>
      <trkpt lat="41.18394600" lon="0.924037000">
        <ele>723.00000</ele>
        <time>2010-01-01T00:12:04Z</time>
      </trkpt>
      <trkpt lat="41.18361800" lon="0.923981000">
        <ele>719.00000</ele>
        <time>2010-01-01T00:12:18Z</time>
      </trkpt>
      <trkpt lat="41.18343000" lon="0.924022000">
        <ele>713.00000</ele>
        <time>2010-01-01T00:12:25Z</time>
      </trkpt>
      <trkpt lat="41.18336400" lon="0.924083000">
        <ele>711.00000</ele>
        <time>2010-01-01T00:12:29Z</time>
      </trkpt>
      <trkpt lat="41.18331800" lon="0.924238000">
        <ele>708.00000</ele>
        <time>2010-01-01T00:12:34Z</time>
      </trkpt>
      <trkpt lat="41.18320800" lon="0.924397000">
        <ele>704.00000</ele>
        <time>2010-01-01T00:12:40Z</time>
      </trkpt>
      <trkpt lat="41.18316000" lon="0.924444000">
        <ele>702.00000</ele>
        <time>2010-01-01T00:12:42Z</time>
      </trkpt>
      <trkpt lat="41.18301300" lon="0.924594000">
        <ele>694.00000</ele>
        <time>2010-01-01T00:12:50Z</time>
      </trkpt>
      <trkpt lat="41.18283400" lon="0.924776000">
        <ele>686.00000</ele>
        <time>2010-01-01T00:12:59Z</time>
      </trkpt>
      <trkpt lat="41.18275700" lon="0.924852000">
        <ele>684.00000</ele>
        <time>2010-01-01T00:13:03Z</time>
      </trkpt>
      <trkpt lat="41.18264800" lon="0.924979000">
        <ele>684.00000</ele>
        <time>2010-01-01T00:13:09Z</time>
      </trkpt>
      <trkpt lat="41.18255600" lon="0.925057000">
        <ele>684.00000</ele>
        <time>2010-01-01T00:13:13Z</time>
      </trkpt>
      <trkpt lat="41.18240000" lon="0.925160000">
        <ele>682.00000</ele>
        <time>2010-01-01T00:13:20Z</time>
      </trkpt>
      <trkpt lat="41.18232800" lon="0.925210000">
        <ele>682.00000</ele>
        <time>2010-01-01T00:13:23Z</time>
      </trkpt>
      <trkpt lat="41.18225400" lon="0.925322000">
        <ele>682.00000</ele>
        <time>2010-01-01T00:13:28Z</time>
      </trkpt>
      <trkpt lat="41.18209700" lon="0.925481000">
        <ele>678.00000</ele>
        <time>2010-01-01T00:13:36Z</time>
      </trkpt>
      <trkpt lat="41.18205500" lon="0.925392000">
        <ele>677.00000</ele>
        <time>2010-01-01T00:13:39Z</time>
      </trkpt>
      <trkpt lat="41.18207100" lon="0.925331000">
        <ele>677.00000</ele>
        <time>2010-01-01T00:13:41Z</time>
      </trkpt>
      <trkpt lat="41.18207500" lon="0.925328000">
        <ele>677.00000</ele>
        <time>2010-01-01T00:13:41Z</time>
      </trkpt>
      <trkpt lat="41.18214600" lon="0.925206000">
        <ele>678.00000</ele>
        <time>2010-01-01T00:13:45Z</time>
      </trkpt>
      <trkpt lat="41.18228500" lon="0.924907000">
        <ele>675.00000</ele>
        <time>2010-01-01T00:13:56Z</time>
      </trkpt>
      <trkpt lat="41.18249100" lon="0.924587000">
        <ele>670.00000</ele>
        <time>2010-01-01T00:14:09Z</time>
      </trkpt>
      <trkpt lat="41.18263200" lon="0.924323000">
        <ele>671.00000</ele>
        <time>2010-01-01T00:14:19Z</time>
      </trkpt>
      <trkpt lat="41.18270200" lon="0.924014000">
        <ele>669.00000</ele>
        <time>2010-01-01T00:14:28Z</time>
      </trkpt>
      <trkpt lat="41.18272300" lon="0.923861000">
        <ele>667.00000</ele>
        <time>2010-01-01T00:14:33Z</time>
      </trkpt>
      <trkpt lat="41.18276900" lon="0.923570000">
        <ele>665.00000</ele>
        <time>2010-01-01T00:14:42Z</time>
      </trkpt>
      <trkpt lat="41.18280100" lon="0.923346000">
        <ele>663.00000</ele>
        <time>2010-01-01T00:14:49Z</time>
      </trkpt>
      <trkpt lat="41.18281600" lon="0.923222000">
        <ele>663.00000</ele>
        <time>2010-01-01T00:14:53Z</time>
      </trkpt>
      <trkpt lat="41.18288300" lon="0.923037000">
        <ele>667.00000</ele>
        <time>2010-01-01T00:14:59Z</time>
      </trkpt>
      <trkpt lat="41.18288300" lon="0.922770000">
        <ele>669.00000</ele>
        <time>2010-01-01T00:15:07Z</time>
      </trkpt>
      <trkpt lat="41.18284200" lon="0.922689000">
        <ele>668.00000</ele>
        <time>2010-01-01T00:15:10Z</time>
      </trkpt>
      <trkpt lat="41.18279200" lon="0.922612000">
        <ele>667.00000</ele>
        <time>2010-01-01T00:15:13Z</time>
      </trkpt>
      <trkpt lat="41.18256200" lon="0.922327000">
        <ele>663.00000</ele>
        <time>2010-01-01T00:15:25Z</time>
      </trkpt>
      <trkpt lat="41.18231800" lon="0.922100000">
        <ele>657.00000</ele>
        <time>2010-01-01T00:15:37Z</time>
      </trkpt>
      <trkpt lat="41.18207200" lon="0.921658000">
        <ele>655.00000</ele>
        <time>2010-01-01T00:15:54Z</time>
      </trkpt>
      <trkpt lat="41.18186400" lon="0.921176000">
        <ele>650.00000</ele>
        <time>2010-01-01T00:16:11Z</time>
      </trkpt>
      <trkpt lat="41.18173600" lon="0.920955000">
        <ele>648.00000</ele>
        <time>2010-01-01T00:16:19Z</time>
      </trkpt>
      <trkpt lat="41.18163000" lon="0.920792000">
        <ele>645.00000</ele>
        <time>2010-01-01T00:16:25Z</time>
      </trkpt>
      <trkpt lat="41.18146100" lon="0.920532000">
        <ele>641.00000</ele>
        <time>2010-01-01T00:16:36Z</time>
      </trkpt>
      <trkpt lat="41.18141600" lon="0.920463000">
        <ele>639.00000</ele>
        <time>2010-01-01T00:16:39Z</time>
      </trkpt>
      <trkpt lat="41.18124200" lon="0.919952000">
        <ele>639.00000</ele>
        <time>2010-01-01T00:16:55Z</time>
      </trkpt>
      <trkpt lat="41.18121100" lon="0.919803000">
        <ele>639.00000</ele>
        <time>2010-01-01T00:17:00Z</time>
      </trkpt>
      <trkpt lat="41.18104900" lon="0.919509000">
        <ele>635.00000</ele>
        <time>2010-01-01T00:17:11Z</time>
      </trkpt>
      <trkpt lat="41.18093900" lon="0.919388000">
        <ele>632.00000</ele>
        <time>2010-01-01T00:17:17Z</time>
      </trkpt>
      <trkpt lat="41.18094400" lon="0.919076000">
        <ele>628.00000</ele>
        <time>2010-01-01T00:17:26Z</time>
      </trkpt>
      <trkpt lat="41.18097900" lon="0.919022000">
        <ele>627.00000</ele>
        <time>2010-01-01T00:17:28Z</time>
      </trkpt>
      <trkpt lat="41.18099000" lon="0.919050000">
        <ele>628.00000</ele>
        <time>2010-01-01T00:17:29Z</time>
      </trkpt>
      <trkpt lat="41.18089200" lon="0.918996000">
        <ele>625.00000</ele>
        <time>2010-01-01T00:17:34Z</time>
      </trkpt>
      <trkpt lat="41.18062400" lon="0.918963000">
        <ele>621.00000</ele>
        <time>2010-01-01T00:17:44Z</time>
      </trkpt>
      <trkpt lat="41.18051600" lon="0.919014000">
        <ele>621.00000</ele>
        <time>2010-01-01T00:17:49Z</time>
      </trkpt>
      <trkpt lat="41.18021000" lon="0.919201000">
        <ele>619.00000</ele>
        <time>2010-01-01T00:18:02Z</time>
      </trkpt>
      <trkpt lat="41.17997500" lon="0.919303000">
        <ele>613.00000</ele>
        <time>2010-01-01T00:18:12Z</time>
      </trkpt>
      <trkpt lat="41.17990000" lon="0.919330000">
        <ele>612.00000</ele>
        <time>2010-01-01T00:18:15Z</time>
      </trkpt>
      <trkpt lat="41.17975600" lon="0.919348000">
        <ele>610.00000</ele>
        <time>2010-01-01T00:18:21Z</time>
      </trkpt>
      <trkpt lat="41.17965200" lon="0.919088000">
        <ele>606.00000</ele>
        <time>2010-01-01T00:18:30Z</time>
      </trkpt>
      <trkpt lat="41.17971200" lon="0.918973000">
        <ele>607.00000</ele>
        <time>2010-01-01T00:18:34Z</time>
      </trkpt>
      <trkpt lat="41.17985900" lon="0.918700000">
        <ele>602.00000</ele>
        <time>2010-01-01T00:18:44Z</time>
      </trkpt>
      <trkpt lat="41.18010700" lon="0.918439000">
        <ele>599.00000</ele>
        <time>2010-01-01T00:18:57Z</time>
      </trkpt>
      <trkpt lat="41.18017900" lon="0.918374000">
        <ele>598.00000</ele>
        <time>2010-01-01T00:19:01Z</time>
      </trkpt>
      <trkpt lat="41.18045200" lon="0.917984000">
        <ele>586.00000</ele>
        <time>2010-01-01T00:19:17Z</time>
      </trkpt>
      <trkpt lat="41.18070600" lon="0.917938000">
        <ele>587.00000</ele>
        <time>2010-01-01T00:19:27Z</time>
      </trkpt>
      <trkpt lat="41.18090100" lon="0.918000000">
        <ele>593.00000</ele>
        <time>2010-01-01T00:19:35Z</time>
      </trkpt>
      <trkpt lat="41.18095200" lon="0.917827000">
        <ele>590.00000</ele>
        <time>2010-01-01T00:19:40Z</time>
      </trkpt>
      <trkpt lat="41.18103600" lon="0.917420000">
        <ele>586.00000</ele>
        <time>2010-01-01T00:19:53Z</time>
      </trkpt>
      <trkpt lat="41.18095500" lon="0.916897000">
        <ele>581.00000</ele>
        <time>2010-01-01T00:20:09Z</time>
      </trkpt>
      <trkpt lat="41.18086800" lon="0.916693000">
        <ele>580.00000</ele>
        <time>2010-01-01T00:20:16Z</time>
      </trkpt>
      <trkpt lat="41.18082100" lon="0.916594000">
        <ele>578.00000</ele>
        <time>2010-01-01T00:20:20Z</time>
      </trkpt>
      <trkpt lat="41.18078900" lon="0.916028000">
        <ele>575.00000</ele>
        <time>2010-01-01T00:20:37Z</time>
      </trkpt>
      <trkpt lat="41.18085700" lon="0.915823000">
        <ele>577.00000</ele>
        <time>2010-01-01T00:20:44Z</time>
      </trkpt>
      <trkpt lat="41.18070800" lon="0.915364000">
        <ele>574.00000</ele>
        <time>2010-01-01T00:20:59Z</time>
      </trkpt>
      <trkpt lat="41.18063900" lon="0.915338000">
        <ele>573.00000</ele>
        <time>2010-01-01T00:21:02Z</time>
      </trkpt>
      <trkpt lat="41.18007300" lon="0.915133000">
        <ele>568.00000</ele>
        <time>2010-01-01T00:21:25Z</time>
      </trkpt>
      <trkpt lat="41.17980200" lon="0.915050000">
        <ele>566.00000</ele>
        <time>2010-01-01T00:21:36Z</time>
      </trkpt>
      <trkpt lat="41.17961700" lon="0.914933000">
        <ele>565.00000</ele>
        <time>2010-01-01T00:21:44Z</time>
      </trkpt>
      <trkpt lat="41.17950200" lon="0.914821000">
        <ele>565.00000</ele>
        <time>2010-01-01T00:21:50Z</time>
      </trkpt>
      <trkpt lat="41.17915800" lon="0.914646000">
        <ele>564.00000</ele>
        <time>2010-01-01T00:22:05Z</time>
      </trkpt>
      <trkpt lat="41.17887500" lon="0.914226000">
        <ele>565.00000</ele>
        <time>2010-01-01T00:22:22Z</time>
      </trkpt>
      <trkpt lat="41.17888200" lon="0.914125000">
        <ele>566.00000</ele>
        <time>2010-01-01T00:22:25Z</time>
      </trkpt>
      <trkpt lat="41.17888900" lon="0.913914000">
        <ele>567.00000</ele>
        <time>2010-01-01T00:22:31Z</time>
      </trkpt>
      <trkpt lat="41.17878600" lon="0.913545000">
        <ele>561.00000</ele>
        <time>2010-01-01T00:22:43Z</time>
      </trkpt>
      <trkpt lat="41.17869600" lon="0.913187000">
        <ele>562.00000</ele>
        <time>2010-01-01T00:22:55Z</time>
      </trkpt>
      <trkpt lat="41.17848800" lon="0.912827000">
        <ele>567.00000</ele>
        <time>2010-01-01T00:23:08Z</time>
      </trkpt>
      <trkpt lat="41.17843200" lon="0.912757000">
        <ele>568.00000</ele>
        <time>2010-01-01T00:23:11Z</time>
      </trkpt>
      <trkpt lat="41.17829700" lon="0.912629000">
        <ele>570.00000</ele>
        <time>2010-01-01T00:23:18Z</time>
      </trkpt>
      <trkpt lat="41.17815300" lon="0.912428000">
        <ele>573.00000</ele>
        <time>2010-01-01T00:23:26Z</time>
      </trkpt>
      <trkpt lat="41.17805800" lon="0.912096000">
        <ele>577.00000</ele>
        <time>2010-01-01T00:23:37Z</time>
      </trkpt>
      <trkpt lat="41.17800500" lon="0.911883000">
        <ele>577.00000</ele>
        <time>2010-01-01T00:23:44Z</time>
      </trkpt>
      <trkpt lat="41.17795600" lon="0.911641000">
        <ele>576.00000</ele>
        <time>2010-01-01T00:23:51Z</time>
      </trkpt>
      <trkpt lat="41.17793500" lon="0.911427000">
        <ele>576.00000</ele>
        <time>2010-01-01T00:23:58Z</time>
      </trkpt>
      <trkpt lat="41.17795200" lon="0.911359000">
        <ele>577.00000</ele>
        <time>2010-01-01T00:24:00Z</time>
      </trkpt>
      <trkpt lat="41.17806400" lon="0.911140000">
        <ele>581.00000</ele>
        <time>2010-01-01T00:24:08Z</time>
      </trkpt>
      <trkpt lat="41.17811300" lon="0.911052000">
        <ele>582.00000</ele>
        <time>2010-01-01T00:24:11Z</time>
      </trkpt>
      <trkpt lat="41.17814200" lon="0.911004000">
        <ele>582.00000</ele>
        <time>2010-01-01T00:24:13Z</time>
      </trkpt>
      <trkpt lat="41.17827900" lon="0.910776000">
        <ele>586.00000</ele>
        <time>2010-01-01T00:24:22Z</time>
      </trkpt>
      <trkpt lat="41.17833900" lon="0.910554000">
        <ele>590.00000</ele>
        <time>2010-01-01T00:24:29Z</time>
      </trkpt>
      <trkpt lat="41.17823000" lon="0.910192000">
        <ele>591.00000</ele>
        <time>2010-01-01T00:24:41Z</time>
      </trkpt>
      <trkpt lat="41.17819100" lon="0.910086000">
        <ele>591.00000</ele>
        <time>2010-01-01T00:24:44Z</time>
      </trkpt>
      <trkpt lat="41.17820500" lon="0.909616000">
        <ele>589.00000</ele>
        <time>2010-01-01T00:24:58Z</time>
      </trkpt>
      <trkpt lat="41.17847100" lon="0.909253000">
        <ele>587.00000</ele>
        <time>2010-01-01T00:25:14Z</time>
      </trkpt>
      <trkpt lat="41.17871600" lon="0.909124000">
        <ele>585.00000</ele>
        <time>2010-01-01T00:25:24Z</time>
      </trkpt>
      <trkpt lat="41.17895800" lon="0.909002000">
        <ele>583.00000</ele>
        <time>2010-01-01T00:25:35Z</time>
      </trkpt>
      <trkpt lat="41.17911500" lon="0.908782000">
        <ele>584.00000</ele>
        <time>2010-01-01T00:25:44Z</time>
      </trkpt>
      <trkpt lat="41.17918700" lon="0.908556000">
        <ele>587.00000</ele>
        <time>2010-01-01T00:25:51Z</time>
      </trkpt>
      <trkpt lat="41.17924500" lon="0.908228000">
        <ele>590.00000</ele>
        <time>2010-01-01T00:26:01Z</time>
      </trkpt>
      <trkpt lat="41.17928900" lon="0.907871000">
        <ele>593.00000</ele>
        <time>2010-01-01T00:26:12Z</time>
      </trkpt>
      <trkpt lat="41.17933500" lon="0.907463000">
        <ele>598.00000</ele>
        <time>2010-01-01T00:26:25Z</time>
      </trkpt>
      <trkpt lat="41.17931600" lon="0.907194000">
        <ele>604.00000</ele>
        <time>2010-01-01T00:26:33Z</time>
      </trkpt>
      <trkpt lat="41.17916500" lon="0.907019000">
        <ele>607.00000</ele>
        <time>2010-01-01T00:26:41Z</time>
      </trkpt>
      <trkpt lat="41.17914000" lon="0.906973000">
        <ele>607.00000</ele>
        <time>2010-01-01T00:26:43Z</time>
      </trkpt>
      <trkpt lat="41.17905200" lon="0.906896000">
        <ele>607.00000</ele>
        <time>2010-01-01T00:26:47Z</time>
      </trkpt>
      <trkpt lat="41.17902300" lon="0.906886000">
        <ele>607.00000</ele>
        <time>2010-01-01T00:26:48Z</time>
      </trkpt>
      <trkpt lat="41.17895700" lon="0.906815000">
        <ele>607.00000</ele>
        <time>2010-01-01T00:26:51Z</time>
      </trkpt>
      <trkpt lat="41.17890700" lon="0.906789000">
        <ele>607.00000</ele>
        <time>2010-01-01T00:26:54Z</time>
      </trkpt>
      <trkpt lat="41.17875900" lon="0.906690000">
        <ele>607.00000</ele>
        <time>2010-01-01T00:27:00Z</time>
      </trkpt>
      <trkpt lat="41.17874800" lon="0.906581000">
        <ele>608.00000</ele>
        <time>2010-01-01T00:27:03Z</time>
      </trkpt>
      <trkpt lat="41.17877000" lon="0.906455000">
        <ele>609.00000</ele>
        <time>2010-01-01T00:27:07Z</time>
      </trkpt>
      <trkpt lat="41.17876900" lon="0.906399000">
        <ele>609.00000</ele>
        <time>2010-01-01T00:27:09Z</time>
      </trkpt>
      <trkpt lat="41.17873000" lon="0.906260000">
        <ele>610.00000</ele>
        <time>2010-01-01T00:27:14Z</time>
      </trkpt>
      <trkpt lat="41.17872500" lon="0.906246000">
        <ele>610.00000</ele>
        <time>2010-01-01T00:27:14Z</time>
      </trkpt>
      <trkpt lat="41.17859500" lon="0.906040000">
        <ele>615.00000</ele>
        <time>2010-01-01T00:27:22Z</time>
      </trkpt>
      <trkpt lat="41.17857200" lon="0.905988000">
        <ele>615.00000</ele>
        <time>2010-01-01T00:27:24Z</time>
      </trkpt>
      <trkpt lat="41.17854600" lon="0.905962000">
        <ele>616.00000</ele>
        <time>2010-01-01T00:27:25Z</time>
      </trkpt>
      <trkpt lat="41.17848100" lon="0.905890000">
        <ele>617.00000</ele>
        <time>2010-01-01T00:27:29Z</time>
      </trkpt>
      <trkpt lat="41.17844500" lon="0.905819000">
        <ele>619.00000</ele>
        <time>2010-01-01T00:27:31Z</time>
      </trkpt>
      <trkpt lat="41.17835700" lon="0.905648000">
        <ele>620.00000</ele>
        <time>2010-01-01T00:27:37Z</time>
      </trkpt>
      <trkpt lat="41.17829900" lon="0.905617000">
        <ele>620.00000</ele>
        <time>2010-01-01T00:27:40Z</time>
      </trkpt>
      <trkpt lat="41.17829000" lon="0.905607000">
        <ele>620.00000</ele>
        <time>2010-01-01T00:27:40Z</time>
      </trkpt>
      <trkpt lat="41.17782900" lon="0.905508000">
        <ele>617.00000</ele>
        <time>2010-01-01T00:27:59Z</time>
      </trkpt>
      <trkpt lat="41.17756200" lon="0.905389000">
        <ele>620.00000</ele>
        <time>2010-01-01T00:28:10Z</time>
      </trkpt>
      <trkpt lat="41.17736700" lon="0.905347000">
        <ele>620.00000</ele>
        <time>2010-01-01T00:28:18Z</time>
      </trkpt>
      <trkpt lat="41.17716100" lon="0.905334000">
        <ele>616.00000</ele>
        <time>2010-01-01T00:28:27Z</time>
      </trkpt>
      <trkpt lat="41.17707400" lon="0.905326000">
        <ele>613.00000</ele>
        <time>2010-01-01T00:28:30Z</time>
      </trkpt>
      <trkpt lat="41.17656100" lon="0.904791000">
        <ele>611.00000</ele>
        <time>2010-01-01T00:28:56Z</time>
      </trkpt>
      <trkpt lat="41.17653000" lon="0.904684000">
        <ele>612.00000</ele>
        <time>2010-01-01T00:29:00Z</time>
      </trkpt>
      <trkpt lat="41.17647600" lon="0.904461000">
        <ele>612.00000</ele>
        <time>2010-01-01T00:29:07Z</time>
      </trkpt>
      <trkpt lat="41.17643600" lon="0.903887000">
        <ele>610.00000</ele>
        <time>2010-01-01T00:29:24Z</time>
      </trkpt>
      <trkpt lat="41.17629100" lon="0.903462000">
        <ele>607.00000</ele>
        <time>2010-01-01T00:29:38Z</time>
      </trkpt>
      <trkpt lat="41.17610100" lon="0.903195000">
        <ele>604.00000</ele>
        <time>2010-01-01T00:29:49Z</time>
      </trkpt>
      <trkpt lat="41.17570400" lon="0.903038000">
        <ele>602.00000</ele>
        <time>2010-01-01T00:30:06Z</time>
      </trkpt>
      <trkpt lat="41.17543200" lon="0.903024000">
        <ele>601.00000</ele>
        <time>2010-01-01T00:30:17Z</time>
      </trkpt>
      <trkpt lat="41.17536500" lon="0.902985000">
        <ele>600.00000</ele>
        <time>2010-01-01T00:30:20Z</time>
      </trkpt>
      <trkpt lat="41.17531400" lon="0.902940000">
        <ele>600.00000</ele>
        <time>2010-01-01T00:30:22Z</time>
      </trkpt>
      <trkpt lat="41.17517000" lon="0.902805000">
        <ele>600.00000</ele>
        <time>2010-01-01T00:30:29Z</time>
      </trkpt>
      <trkpt lat="41.17495800" lon="0.902609000">
        <ele>598.00000</ele>
        <time>2010-01-01T00:30:39Z</time>
      </trkpt>
      <trkpt lat="41.17479600" lon="0.902407000">
        <ele>595.00000</ele>
        <time>2010-01-01T00:30:48Z</time>
      </trkpt>
      <trkpt lat="41.17465400" lon="0.902082000">
        <ele>591.00000</ele>
        <time>2010-01-01T00:31:00Z</time>
      </trkpt>
      <trkpt lat="41.17462800" lon="0.901953000">
        <ele>589.00000</ele>
        <time>2010-01-01T00:31:04Z</time>
      </trkpt>
      <trkpt lat="41.17460400" lon="0.901699000">
        <ele>588.00000</ele>
        <time>2010-01-01T00:31:11Z</time>
      </trkpt>
      <trkpt lat="41.17461700" lon="0.901307000">
        <ele>587.00000</ele>
        <time>2010-01-01T00:31:23Z</time>
      </trkpt>
      <trkpt lat="41.17471500" lon="0.900782000">
        <ele>582.00000</ele>
        <time>2010-01-01T00:31:39Z</time>
      </trkpt>
      <trkpt lat="41.17491100" lon="0.900397000">
        <ele>578.00000</ele>
        <time>2010-01-01T00:31:53Z</time>
      </trkpt>
      <trkpt lat="41.17504900" lon="0.900228000">
        <ele>577.00000</ele>
        <time>2010-01-01T00:32:01Z</time>
      </trkpt>
      <trkpt lat="41.17519700" lon="0.900108000">
        <ele>576.00000</ele>
        <time>2010-01-01T00:32:08Z</time>
      </trkpt>
      <trkpt lat="41.17522500" lon="0.899883000">
        <ele>574.00000</ele>
        <time>2010-01-01T00:32:15Z</time>
      </trkpt>
      <trkpt lat="41.17481600" lon="0.899967000">
        <ele>568.00000</ele>
        <time>2010-01-01T00:32:31Z</time>
      </trkpt>
      <trkpt lat="41.17467500" lon="0.900034000">
        <ele>567.00000</ele>
        <time>2010-01-01T00:32:37Z</time>
      </trkpt>
      <trkpt lat="41.17461000" lon="0.900094000">
        <ele>567.00000</ele>
        <time>2010-01-01T00:32:41Z</time>
      </trkpt>
      <trkpt lat="41.17436800" lon="0.900379000">
        <ele>568.00000</ele>
        <time>2010-01-01T00:32:53Z</time>
      </trkpt>
      <trkpt lat="41.17416700" lon="0.900619000">
        <ele>567.00000</ele>
        <time>2010-01-01T00:33:04Z</time>
      </trkpt>
      <trkpt lat="41.17410300" lon="0.900706000">
        <ele>567.00000</ele>
        <time>2010-01-01T00:33:08Z</time>
      </trkpt>
      <trkpt lat="41.17394900" lon="0.901232000">
        <ele>572.00000</ele>
        <time>2010-01-01T00:33:25Z</time>
      </trkpt>
      <trkpt lat="41.17392300" lon="0.902302000">
        <ele>566.00000</ele>
        <time>2010-01-01T00:33:57Z</time>
      </trkpt>
      <trkpt lat="41.17384200" lon="0.902728000">
        <ele>562.00000</ele>
        <time>2010-01-01T00:34:10Z</time>
      </trkpt>
      <trkpt lat="41.17380600" lon="0.902974000">
        <ele>561.00000</ele>
        <time>2010-01-01T00:34:18Z</time>
      </trkpt>
      <trkpt lat="41.17378100" lon="0.903094000">
        <ele>560.00000</ele>
        <time>2010-01-01T00:34:22Z</time>
      </trkpt>
      <trkpt lat="41.17370800" lon="0.903358000">
        <ele>554.00000</ele>
        <time>2010-01-01T00:34:30Z</time>
      </trkpt>
      <trkpt lat="41.17368000" lon="0.903576000">
        <ele>549.00000</ele>
        <time>2010-01-01T00:34:37Z</time>
      </trkpt>
      <trkpt lat="41.17368000" lon="0.903621000">
        <ele>549.00000</ele>
        <time>2010-01-01T00:34:38Z</time>
      </trkpt>
      <trkpt lat="41.17367100" lon="0.903839000">
        <ele>546.00000</ele>
        <time>2010-01-01T00:34:45Z</time>
      </trkpt>
      <trkpt lat="41.17365300" lon="0.903865000">
        <ele>545.00000</ele>
        <time>2010-01-01T00:34:46Z</time>
      </trkpt>
      <trkpt lat="41.17357100" lon="0.903649000">
        <ele>543.00000</ele>
        <time>2010-01-01T00:34:53Z</time>
      </trkpt>
      <trkpt lat="41.17347300" lon="0.902863000">
        <ele>542.00000</ele>
        <time>2010-01-01T00:35:17Z</time>
      </trkpt>
      <trkpt lat="41.17348200" lon="0.902293000">
        <ele>549.00000</ele>
        <time>2010-01-01T00:35:34Z</time>
      </trkpt>
      <trkpt lat="41.17349300" lon="0.901988000">
        <ele>552.00000</ele>
        <time>2010-01-01T00:35:44Z</time>
      </trkpt>
      <trkpt lat="41.17326100" lon="0.901584000">
        <ele>553.00000</ele>
        <time>2010-01-01T00:35:59Z</time>
      </trkpt>
      <trkpt lat="41.17315500" lon="0.901730000">
        <ele>551.00000</ele>
        <time>2010-01-01T00:36:05Z</time>
      </trkpt>
      <trkpt lat="41.17312200" lon="0.901774000">
        <ele>550.00000</ele>
        <time>2010-01-01T00:36:07Z</time>
      </trkpt>
      <trkpt lat="41.17288300" lon="0.902128000">
        <ele>545.00000</ele>
        <time>2010-01-01T00:36:21Z</time>
      </trkpt>
      <trkpt lat="41.17271300" lon="0.902368000">
        <ele>541.00000</ele>
        <time>2010-01-01T00:36:31Z</time>
      </trkpt>
      <trkpt lat="41.17256300" lon="0.902688000">
        <ele>538.00000</ele>
        <time>2010-01-01T00:36:42Z</time>
      </trkpt>
      <trkpt lat="41.17244200" lon="0.902950000">
        <ele>536.00000</ele>
        <time>2010-01-01T00:36:52Z</time>
      </trkpt>
      <trkpt lat="41.17228300" lon="0.903307000">
        <ele>534.00000</ele>
        <time>2010-01-01T00:37:04Z</time>
      </trkpt>
      <trkpt lat="41.17215700" lon="0.903574000">
        <ele>532.00000</ele>
        <time>2010-01-01T00:37:14Z</time>
      </trkpt>
      <trkpt lat="41.17206700" lon="0.903726000">
        <ele>531.00000</ele>
        <time>2010-01-01T00:37:20Z</time>
      </trkpt>
      <trkpt lat="41.17175500" lon="0.904208000">
        <ele>530.00000</ele>
        <time>2010-01-01T00:37:39Z</time>
      </trkpt>
      <trkpt lat="41.17172100" lon="0.904612000">
        <ele>528.00000</ele>
        <time>2010-01-01T00:37:51Z</time>
      </trkpt>
      <trkpt lat="41.17147400" lon="0.905369000">
        <ele>531.00000</ele>
        <time>2010-01-01T00:38:16Z</time>
      </trkpt>
      <trkpt lat="41.17122700" lon="0.905725000">
        <ele>536.00000</ele>
        <time>2010-01-01T00:38:30Z</time>
      </trkpt>
      <trkpt lat="41.17093500" lon="0.905965000">
        <ele>540.00000</ele>
        <time>2010-01-01T00:38:44Z</time>
      </trkpt>
      <trkpt lat="41.17071200" lon="0.906019000">
        <ele>544.00000</ele>
        <time>2010-01-01T00:38:53Z</time>
      </trkpt>
      <trkpt lat="41.17054200" lon="0.906170000">
        <ele>545.00000</ele>
        <time>2010-01-01T00:39:01Z</time>
      </trkpt>
      <trkpt lat="41.17042500" lon="0.906226000">
        <ele>548.00000</ele>
        <time>2010-01-01T00:39:06Z</time>
      </trkpt>
      <trkpt lat="41.17034100" lon="0.906235000">
        <ele>551.00000</ele>
        <time>2010-01-01T00:39:10Z</time>
      </trkpt>
      <trkpt lat="41.17023300" lon="0.906300000">
        <ele>553.00000</ele>
        <time>2010-01-01T00:39:15Z</time>
      </trkpt>
      <trkpt lat="41.17016400" lon="0.906368000">
        <ele>554.00000</ele>
        <time>2010-01-01T00:39:18Z</time>
      </trkpt>
      <trkpt lat="41.17015900" lon="0.906475000">
        <ele>553.00000</ele>
        <time>2010-01-01T00:39:21Z</time>
      </trkpt>
      <trkpt lat="41.17017400" lon="0.906739000">
        <ele>552.00000</ele>
        <time>2010-01-01T00:39:29Z</time>
      </trkpt>
      <trkpt lat="41.17017300" lon="0.906760000">
        <ele>552.00000</ele>
        <time>2010-01-01T00:39:30Z</time>
      </trkpt>
      <trkpt lat="41.17021600" lon="0.907020000">
        <ele>552.00000</ele>
        <time>2010-01-01T00:39:38Z</time>
      </trkpt>
      <trkpt lat="41.17022700" lon="0.907046000">
        <ele>551.00000</ele>
        <time>2010-01-01T00:39:39Z</time>
      </trkpt>
      <trkpt lat="41.17024100" lon="0.907400000">
        <ele>549.00000</ele>
        <time>2010-01-01T00:39:49Z</time>
      </trkpt>
      <trkpt lat="41.17013800" lon="0.907441000">
        <ele>551.00000</ele>
        <time>2010-01-01T00:39:54Z</time>
      </trkpt>
      <trkpt lat="41.17007200" lon="0.907332000">
        <ele>553.00000</ele>
        <time>2010-01-01T00:39:58Z</time>
      </trkpt>
      <trkpt lat="41.17000200" lon="0.907283000">
        <ele>555.00000</ele>
        <time>2010-01-01T00:40:01Z</time>
      </trkpt>
      <trkpt lat="41.16996900" lon="0.907274000">
        <ele>555.00000</ele>
        <time>2010-01-01T00:40:02Z</time>
      </trkpt>
      <trkpt lat="41.16994100" lon="0.907274000">
        <ele>555.00000</ele>
        <time>2010-01-01T00:40:04Z</time>
      </trkpt>
      <trkpt lat="41.16985700" lon="0.907241000">
        <ele>557.00000</ele>
        <time>2010-01-01T00:40:07Z</time>
      </trkpt>
      <trkpt lat="41.16977500" lon="0.907149000">
        <ele>558.00000</ele>
        <time>2010-01-01T00:40:11Z</time>
      </trkpt>
      <trkpt lat="41.16958400" lon="0.906988000">
        <ele>560.00000</ele>
        <time>2010-01-01T00:40:20Z</time>
      </trkpt>
      <trkpt lat="41.16930900" lon="0.907131000">
        <ele>562.00000</ele>
        <time>2010-01-01T00:40:32Z</time>
      </trkpt>
      <trkpt lat="41.16906700" lon="0.907285000">
        <ele>568.00000</ele>
        <time>2010-01-01T00:40:43Z</time>
      </trkpt>
      <trkpt lat="41.16884300" lon="0.907579000">
        <ele>572.00000</ele>
        <time>2010-01-01T00:40:56Z</time>
      </trkpt>
      <trkpt lat="41.16883500" lon="0.907608000">
        <ele>572.00000</ele>
        <time>2010-01-01T00:40:56Z</time>
      </trkpt>
      <trkpt lat="41.16874500" lon="0.907928000">
        <ele>570.00000</ele>
        <time>2010-01-01T00:41:07Z</time>
      </trkpt>
      <trkpt lat="41.16871800" lon="0.907984000">
        <ele>570.00000</ele>
        <time>2010-01-01T00:41:09Z</time>
      </trkpt>
      <trkpt lat="41.16855700" lon="0.907973000">
        <ele>574.00000</ele>
        <time>2010-01-01T00:41:15Z</time>
      </trkpt>
      <trkpt lat="41.16839100" lon="0.907969000">
        <ele>577.00000</ele>
        <time>2010-01-01T00:41:22Z</time>
      </trkpt>
      <trkpt lat="41.16835800" lon="0.907986000">
        <ele>577.00000</ele>
        <time>2010-01-01T00:41:23Z</time>
      </trkpt>
      <trkpt lat="41.16824300" lon="0.908021000">
        <ele>578.00000</ele>
        <time>2010-01-01T00:41:28Z</time>
      </trkpt>
      <trkpt lat="41.16812900" lon="0.908069000">
        <ele>580.00000</ele>
        <time>2010-01-01T00:41:33Z</time>
      </trkpt>
      <trkpt lat="41.16806100" lon="0.908122000">
        <ele>581.00000</ele>
        <time>2010-01-01T00:41:36Z</time>
      </trkpt>
      <trkpt lat="41.16783200" lon="0.908344000">
        <ele>584.00000</ele>
        <time>2010-01-01T00:41:47Z</time>
      </trkpt>
      <trkpt lat="41.16769500" lon="0.908573000">
        <ele>583.00000</ele>
        <time>2010-01-01T00:41:56Z</time>
      </trkpt>
      <trkpt lat="41.16755000" lon="0.908701000">
        <ele>582.00000</ele>
        <time>2010-01-01T00:42:03Z</time>
      </trkpt>
      <trkpt lat="41.16733700" lon="0.908710000">
        <ele>582.00000</ele>
        <time>2010-01-01T00:42:12Z</time>
      </trkpt>
      <trkpt lat="41.16710900" lon="0.908587000">
        <ele>587.00000</ele>
        <time>2010-01-01T00:42:21Z</time>
      </trkpt>
      <trkpt lat="41.16681100" lon="0.908633000">
        <ele>592.00000</ele>
        <time>2010-01-01T00:42:33Z</time>
      </trkpt>
      <trkpt lat="41.16656400" lon="0.908621000">
        <ele>596.00000</ele>
        <time>2010-01-01T00:42:43Z</time>
      </trkpt>
      <trkpt lat="41.16632400" lon="0.908620000">
        <ele>597.00000</ele>
        <time>2010-01-01T00:42:53Z</time>
      </trkpt>
      <trkpt lat="41.16626100" lon="0.908643000">
        <ele>598.00000</ele>
        <time>2010-01-01T00:42:56Z</time>
      </trkpt>
      <trkpt lat="41.16619100" lon="0.908692000">
        <ele>598.00000</ele>
        <time>2010-01-01T00:42:59Z</time>
      </trkpt>
      <trkpt lat="41.16603200" lon="0.908908000">
        <ele>599.00000</ele>
        <time>2010-01-01T00:43:08Z</time>
      </trkpt>
      <trkpt lat="41.16591600" lon="0.909100000">
        <ele>599.00000</ele>
        <time>2010-01-01T00:43:15Z</time>
      </trkpt>
      <trkpt lat="41.16589800" lon="0.909122000">
        <ele>599.00000</ele>
        <time>2010-01-01T00:43:16Z</time>
      </trkpt>
      <trkpt lat="41.16574400" lon="0.909243000">
        <ele>601.00000</ele>
        <time>2010-01-01T00:43:23Z</time>
      </trkpt>
      <trkpt lat="41.16555900" lon="0.909297000">
        <ele>604.00000</ele>
        <time>2010-01-01T00:43:31Z</time>
      </trkpt>
      <trkpt lat="41.16535700" lon="0.909346000">
        <ele>605.00000</ele>
        <time>2010-01-01T00:43:39Z</time>
      </trkpt>
      <trkpt lat="41.16525500" lon="0.909364000">
        <ele>606.00000</ele>
        <time>2010-01-01T00:43:43Z</time>
      </trkpt>
      <trkpt lat="41.16513700" lon="0.909377000">
        <ele>606.00000</ele>
        <time>2010-01-01T00:43:48Z</time>
      </trkpt>
      <trkpt lat="41.16504400" lon="0.909370000">
        <ele>607.00000</ele>
        <time>2010-01-01T00:43:52Z</time>
      </trkpt>
      <trkpt lat="41.16489900" lon="0.909404000">
        <ele>607.00000</ele>
        <time>2010-01-01T00:43:58Z</time>
      </trkpt>
      <trkpt lat="41.16483800" lon="0.909422000">
        <ele>607.00000</ele>
        <time>2010-01-01T00:44:00Z</time>
      </trkpt>
      <trkpt lat="41.16483300" lon="0.909421000">
        <ele>607.00000</ele>
        <time>2010-01-01T00:44:00Z</time>
      </trkpt>
      <trkpt lat="41.16477500" lon="0.909423000">
        <ele>608.00000</ele>
        <time>2010-01-01T00:44:03Z</time>
      </trkpt>
      <trkpt lat="41.16474800" lon="0.909426000">
        <ele>608.00000</ele>
        <time>2010-01-01T00:44:04Z</time>
      </trkpt>
      <trkpt lat="41.16450400" lon="0.909437000">
        <ele>607.00000</ele>
        <time>2010-01-01T00:44:14Z</time>
      </trkpt>
      <trkpt lat="41.16416300" lon="0.909303000">
        <ele>604.00000</ele>
        <time>2010-01-01T00:44:28Z</time>
      </trkpt>
      <trkpt lat="41.16405400" lon="0.909135000">
        <ele>604.00000</ele>
        <time>2010-01-01T00:44:35Z</time>
      </trkpt>
      <trkpt lat="41.16393000" lon="0.908895000">
        <ele>602.00000</ele>
        <time>2010-01-01T00:44:43Z</time>
      </trkpt>
      <trkpt lat="41.16389300" lon="0.908856000">
        <ele>602.00000</ele>
        <time>2010-01-01T00:44:45Z</time>
      </trkpt>
      <trkpt lat="41.16379100" lon="0.908538000">
        <ele>602.00000</ele>
        <time>2010-01-01T00:44:56Z</time>
      </trkpt>
      <trkpt lat="41.16366700" lon="0.908173000">
        <ele>602.00000</ele>
        <time>2010-01-01T00:45:08Z</time>
      </trkpt>
      <trkpt lat="41.16349200" lon="0.907907000">
        <ele>602.00000</ele>
        <time>2010-01-01T00:45:18Z</time>
      </trkpt>
      <trkpt lat="41.16342100" lon="0.907815000">
        <ele>604.00000</ele>
        <time>2010-01-01T00:45:22Z</time>
      </trkpt>
      <trkpt lat="41.16317900" lon="0.907621000">
        <ele>604.00000</ele>
        <time>2010-01-01T00:45:34Z</time>
      </trkpt>
      <trkpt lat="41.16283800" lon="0.907294000">
        <ele>604.00000</ele>
        <time>2010-01-01T00:45:50Z</time>
      </trkpt>
      <trkpt lat="41.16280500" lon="0.907266000">
        <ele>603.00000</ele>
        <time>2010-01-01T00:45:52Z</time>
      </trkpt>
      <trkpt lat="41.16269700" lon="0.907097000">
        <ele>604.00000</ele>
        <time>2010-01-01T00:45:59Z</time>
      </trkpt>
      <trkpt lat="41.16263500" lon="0.906980000">
        <ele>604.00000</ele>
        <time>2010-01-01T00:46:03Z</time>
      </trkpt>
      <trkpt lat="41.16245600" lon="0.906825000">
        <ele>603.00000</ele>
        <time>2010-01-01T00:46:12Z</time>
      </trkpt>
      <trkpt lat="41.16227800" lon="0.906690000">
        <ele>598.00000</ele>
        <time>2010-01-01T00:46:20Z</time>
      </trkpt>
      <trkpt lat="41.16217700" lon="0.906638000">
        <ele>596.00000</ele>
        <time>2010-01-01T00:46:24Z</time>
      </trkpt>
      <trkpt lat="41.16201900" lon="0.906544000">
        <ele>595.00000</ele>
        <time>2010-01-01T00:46:31Z</time>
      </trkpt>
      <trkpt lat="41.16188200" lon="0.906419000">
        <ele>597.00000</ele>
        <time>2010-01-01T00:46:38Z</time>
      </trkpt>
      <trkpt lat="41.16174200" lon="0.906330000">
        <ele>599.00000</ele>
        <time>2010-01-01T00:46:44Z</time>
      </trkpt>
      <trkpt lat="41.16164000" lon="0.906300000">
        <ele>598.00000</ele>
        <time>2010-01-01T00:46:48Z</time>
      </trkpt>
      <trkpt lat="41.16139200" lon="0.906617000">
        <ele>588.00000</ele>
        <time>2010-01-01T00:47:02Z</time>
      </trkpt>
      <trkpt lat="41.16119100" lon="0.906553000">
        <ele>586.00000</ele>
        <time>2010-01-01T00:47:10Z</time>
      </trkpt>
      <trkpt lat="41.16112900" lon="0.906428000">
        <ele>587.00000</ele>
        <time>2010-01-01T00:47:15Z</time>
      </trkpt>
      <trkpt lat="41.16103800" lon="0.906197000">
        <ele>591.00000</ele>
        <time>2010-01-01T00:47:23Z</time>
      </trkpt>
      <trkpt lat="41.16085000" lon="0.905992000">
        <ele>593.00000</ele>
        <time>2010-01-01T00:47:32Z</time>
      </trkpt>
      <trkpt lat="41.16066300" lon="0.905944000">
        <ele>593.00000</ele>
        <time>2010-01-01T00:47:40Z</time>
      </trkpt>
      <trkpt lat="41.16032600" lon="0.906117000">
        <ele>587.00000</ele>
        <time>2010-01-01T00:47:54Z</time>
      </trkpt>
      <trkpt lat="41.16009800" lon="0.906164000">
        <ele>584.00000</ele>
        <time>2010-01-01T00:48:04Z</time>
      </trkpt>
      <trkpt lat="41.15989600" lon="0.906214000">
        <ele>578.00000</ele>
        <time>2010-01-01T00:48:12Z</time>
      </trkpt>
      <trkpt lat="41.15966800" lon="0.906494000">
        <ele>570.00000</ele>
        <time>2010-01-01T00:48:24Z</time>
      </trkpt>
      <trkpt lat="41.15972600" lon="0.906287000">
        <ele>572.00000</ele>
        <time>2010-01-01T00:48:31Z</time>
      </trkpt>
      <trkpt lat="41.15990300" lon="0.906006000">
        <ele>581.00000</ele>
        <time>2010-01-01T00:48:42Z</time>
      </trkpt>
      <trkpt lat="41.15979700" lon="0.905548000">
        <ele>586.00000</ele>
        <time>2010-01-01T00:48:56Z</time>
      </trkpt>
      <trkpt lat="41.15941800" lon="0.905522000">
        <ele>578.00000</ele>
        <time>2010-01-01T00:49:12Z</time>
      </trkpt>
      <trkpt lat="41.15925600" lon="0.905524000">
        <ele>574.00000</ele>
        <time>2010-01-01T00:49:18Z</time>
      </trkpt>
      <trkpt lat="41.15910800" lon="0.905318000">
        <ele>575.00000</ele>
        <time>2010-01-01T00:49:27Z</time>
      </trkpt>
      <trkpt lat="41.15906400" lon="0.904705000">
        <ele>586.00000</ele>
        <time>2010-01-01T00:49:45Z</time>
      </trkpt>
      <trkpt lat="41.15884600" lon="0.904417000">
        <ele>585.00000</ele>
        <time>2010-01-01T00:49:57Z</time>
      </trkpt>
      <trkpt lat="41.15865700" lon="0.904465000">
        <ele>580.00000</ele>
        <time>2010-01-01T00:50:05Z</time>
      </trkpt>
      <trkpt lat="41.15860400" lon="0.904480000">
        <ele>578.00000</ele>
        <time>2010-01-01T00:50:07Z</time>
      </trkpt>
      <trkpt lat="41.15843100" lon="0.904521000">
        <ele>577.00000</ele>
        <time>2010-01-01T00:50:14Z</time>
      </trkpt>
      <trkpt lat="41.15815800" lon="0.904510000">
        <ele>579.00000</ele>
        <time>2010-01-01T00:50:25Z</time>
      </trkpt>
      <trkpt lat="41.15801300" lon="0.904664000">
        <ele>579.00000</ele>
        <time>2010-01-01T00:50:33Z</time>
      </trkpt>
      <trkpt lat="41.15791200" lon="0.904805000">
        <ele>579.00000</ele>
        <time>2010-01-01T00:50:39Z</time>
      </trkpt>
      <trkpt lat="41.15760100" lon="0.904843000">
        <ele>580.00000</ele>
        <time>2010-01-01T00:50:51Z</time>
      </trkpt>
      <trkpt lat="41.15744900" lon="0.904700000">
        <ele>581.00000</ele>
        <time>2010-01-01T00:50:59Z</time>
      </trkpt>
      <trkpt lat="41.15725300" lon="0.904493000">
        <ele>581.00000</ele>
        <time>2010-01-01T00:51:09Z</time>
      </trkpt>
      <trkpt lat="41.15696900" lon="0.904343000">
        <ele>574.00000</ele>
        <time>2010-01-01T00:51:21Z</time>
      </trkpt>
      <trkpt lat="41.15689100" lon="0.904265000">
        <ele>572.00000</ele>
        <time>2010-01-01T00:51:25Z</time>
      </trkpt>
      <trkpt lat="41.15677800" lon="0.904132000">
        <ele>572.00000</ele>
        <time>2010-01-01T00:51:31Z</time>
      </trkpt>
      <trkpt lat="41.15670400" lon="0.904046000">
        <ele>572.00000</ele>
        <time>2010-01-01T00:51:35Z</time>
      </trkpt>
      <trkpt lat="41.15656300" lon="0.903950000">
        <ele>572.00000</ele>
        <time>2010-01-01T00:51:41Z</time>
      </trkpt>
      <trkpt lat="41.15635000" lon="0.903845000">
        <ele>570.00000</ele>
        <time>2010-01-01T00:51:50Z</time>
      </trkpt>
      <trkpt lat="41.15616800" lon="0.903631000">
        <ele>572.00000</ele>
        <time>2010-01-01T00:52:00Z</time>
      </trkpt>
      <trkpt lat="41.15593900" lon="0.903537000">
        <ele>568.00000</ele>
        <time>2010-01-01T00:52:09Z</time>
      </trkpt>
      <trkpt lat="41.15567400" lon="0.903258000">
        <ele>571.00000</ele>
        <time>2010-01-01T00:52:23Z</time>
      </trkpt>
      <trkpt lat="41.15556900" lon="0.903228000">
        <ele>570.00000</ele>
        <time>2010-01-01T00:52:27Z</time>
      </trkpt>
      <trkpt lat="41.15539300" lon="0.903219000">
        <ele>566.00000</ele>
        <time>2010-01-01T00:52:34Z</time>
      </trkpt>
      <trkpt lat="41.15494000" lon="0.903155000">
        <ele>563.00000</ele>
        <time>2010-01-01T00:52:53Z</time>
      </trkpt>
      <trkpt lat="41.15479100" lon="0.903086000">
        <ele>565.00000</ele>
        <time>2010-01-01T00:52:59Z</time>
      </trkpt>
      <trkpt lat="41.15452600" lon="0.902900000">
        <ele>572.00000</ele>
        <time>2010-01-01T00:53:11Z</time>
      </trkpt>
      <trkpt lat="41.15448600" lon="0.902899000">
        <ele>572.00000</ele>
        <time>2010-01-01T00:53:13Z</time>
      </trkpt>
      <trkpt lat="41.15435200" lon="0.902960000">
        <ele>571.00000</ele>
        <time>2010-01-01T00:53:18Z</time>
      </trkpt>
      <trkpt lat="41.15420700" lon="0.903152000">
        <ele>569.00000</ele>
        <time>2010-01-01T00:53:26Z</time>
      </trkpt>
      <trkpt lat="41.15396600" lon="0.903162000">
        <ele>570.00000</ele>
        <time>2010-01-01T00:53:36Z</time>
      </trkpt>
      <trkpt lat="41.15376200" lon="0.902966000">
        <ele>572.00000</ele>
        <time>2010-01-01T00:53:46Z</time>
      </trkpt>
      <trkpt lat="41.15362100" lon="0.902768000">
        <ele>574.00000</ele>
        <time>2010-01-01T00:53:54Z</time>
      </trkpt>
      <trkpt lat="41.15332400" lon="0.902378000">
        <ele>569.00000</ele>
        <time>2010-01-01T00:54:11Z</time>
      </trkpt>
      <trkpt lat="41.15331900" lon="0.902338000">
        <ele>569.00000</ele>
        <time>2010-01-01T00:54:12Z</time>
      </trkpt>
      <trkpt lat="41.15332900" lon="0.902323000">
        <ele>569.00000</ele>
        <time>2010-01-01T00:54:13Z</time>
      </trkpt>
      <trkpt lat="41.15332800" lon="0.902319000">
        <ele>569.00000</ele>
        <time>2010-01-01T00:54:13Z</time>
      </trkpt>
      <trkpt lat="41.15326800" lon="0.902174000">
        <ele>569.00000</ele>
        <time>2010-01-01T00:54:18Z</time>
      </trkpt>
      <trkpt lat="41.15304500" lon="0.901970000">
        <ele>566.00000</ele>
        <time>2010-01-01T00:54:29Z</time>
      </trkpt>
      <trkpt lat="41.15298800" lon="0.901924000">
        <ele>565.00000</ele>
        <time>2010-01-01T00:54:32Z</time>
      </trkpt>
      <trkpt lat="41.15272600" lon="0.901414000">
        <ele>569.00000</ele>
        <time>2010-01-01T00:54:50Z</time>
      </trkpt>
      <trkpt lat="41.15269000" lon="0.901254000">
        <ele>571.00000</ele>
        <time>2010-01-01T00:54:55Z</time>
      </trkpt>
      <trkpt lat="41.15253800" lon="0.901021000">
        <ele>566.00000</ele>
        <time>2010-01-01T00:55:04Z</time>
      </trkpt>
      <trkpt lat="41.15230600" lon="0.900498000">
        <ele>561.00000</ele>
        <time>2010-01-01T00:55:23Z</time>
      </trkpt>
      <trkpt lat="41.15214800" lon="0.899985000">
        <ele>567.00000</ele>
        <time>2010-01-01T00:55:39Z</time>
      </trkpt>
      <trkpt lat="41.15194300" lon="0.899839000">
        <ele>562.00000</ele>
        <time>2010-01-01T00:55:49Z</time>
      </trkpt>
      <trkpt lat="41.15182400" lon="0.899828000">
        <ele>559.00000</ele>
        <time>2010-01-01T00:55:54Z</time>
      </trkpt>
      <trkpt lat="41.15152300" lon="0.899858000">
        <ele>549.00000</ele>
        <time>2010-01-01T00:56:06Z</time>
      </trkpt>
      <trkpt lat="41.15131100" lon="0.899664000">
        <ele>551.00000</ele>
        <time>2010-01-01T00:56:16Z</time>
      </trkpt>
      <trkpt lat="41.15091400" lon="0.899441000">
        <ele>554.00000</ele>
        <time>2010-01-01T00:56:33Z</time>
      </trkpt>
      <trkpt lat="41.15052900" lon="0.899590000">
        <ele>544.00000</ele>
        <time>2010-01-01T00:56:49Z</time>
      </trkpt>
      <trkpt lat="41.15037200" lon="0.899615000">
        <ele>543.00000</ele>
        <time>2010-01-01T00:56:56Z</time>
      </trkpt>
      <trkpt lat="41.15016900" lon="0.899552000">
        <ele>542.00000</ele>
        <time>2010-01-01T00:57:04Z</time>
      </trkpt>
      <trkpt lat="41.14992100" lon="0.899404000">
        <ele>540.00000</ele>
        <time>2010-01-01T00:57:15Z</time>
      </trkpt>
      <trkpt lat="41.14974200" lon="0.899086000">
        <ele>541.00000</ele>
        <time>2010-01-01T00:57:27Z</time>
      </trkpt>
      <trkpt lat="41.14970000" lon="0.899003000">
        <ele>542.00000</ele>
        <time>2010-01-01T00:57:30Z</time>
      </trkpt>
      <trkpt lat="41.14940100" lon="0.898873000">
        <ele>541.00000</ele>
        <time>2010-01-01T00:57:42Z</time>
      </trkpt>
      <trkpt lat="41.14910900" lon="0.898928000">
        <ele>538.00000</ele>
        <time>2010-01-01T00:57:54Z</time>
      </trkpt>
      <trkpt lat="41.14886400" lon="0.899045000">
        <ele>537.00000</ele>
        <time>2010-01-01T00:58:05Z</time>
      </trkpt>
      <trkpt lat="41.14873900" lon="0.899189000">
        <ele>534.00000</ele>
        <time>2010-01-01T00:58:11Z</time>
      </trkpt>
      <trkpt lat="41.14850700" lon="0.899358000">
        <ele>531.00000</ele>
        <time>2010-01-01T00:58:22Z</time>
      </trkpt>
      <trkpt lat="41.14838700" lon="0.899484000">
        <ele>526.00000</ele>
        <time>2010-01-01T00:58:28Z</time>
      </trkpt>
      <trkpt lat="41.14800000" lon="0.899409000">
        <ele>521.00000</ele>
        <time>2010-01-01T00:58:44Z</time>
      </trkpt>
      <trkpt lat="41.14793100" lon="0.899172000">
        <ele>528.00000</ele>
        <time>2010-01-01T00:58:51Z</time>
      </trkpt>
      <trkpt lat="41.14789800" lon="0.898909000">
        <ele>538.00000</ele>
        <time>2010-01-01T00:58:59Z</time>
      </trkpt>
      <trkpt lat="41.14765800" lon="0.898739000">
        <ele>540.00000</ele>
        <time>2010-01-01T00:59:10Z</time>
      </trkpt>
      <trkpt lat="41.14758200" lon="0.898765000">
        <ele>536.00000</ele>
        <time>2010-01-01T00:59:13Z</time>
      </trkpt>
      <trkpt lat="41.14727600" lon="0.899066000">
        <ele>523.00000</ele>
        <time>2010-01-01T00:59:29Z</time>
      </trkpt>
      <trkpt lat="41.14710900" lon="0.899362000">
        <ele>518.00000</ele>
        <time>2010-01-01T00:59:40Z</time>
      </trkpt>
      <trkpt lat="41.14680900" lon="0.899773000">
        <ele>518.00000</ele>
        <time>2010-01-01T00:59:57Z</time>
      </trkpt>
      <trkpt lat="41.14656400" lon="0.900068000">
        <ele>516.00000</ele>
        <time>2010-01-01T01:00:10Z</time>
      </trkpt>
      <trkpt lat="41.14650100" lon="0.900136000">
        <ele>516.00000</ele>
        <time>2010-01-01T01:00:13Z</time>
      </trkpt>
      <trkpt lat="41.14646300" lon="0.900342000">
        <ele>510.00000</ele>
        <time>2010-01-01T01:00:20Z</time>
      </trkpt>
      <trkpt lat="41.14635400" lon="0.900584000">
        <ele>506.00000</ele>
        <time>2010-01-01T01:00:28Z</time>
      </trkpt>
      <trkpt lat="41.14618700" lon="0.900948000">
        <ele>506.00000</ele>
        <time>2010-01-01T01:00:41Z</time>
      </trkpt>
      <trkpt lat="41.14615100" lon="0.901370000">
        <ele>496.00000</ele>
        <time>2010-01-01T01:00:54Z</time>
      </trkpt>
      <trkpt lat="41.14613000" lon="0.901534000">
        <ele>492.00000</ele>
        <time>2010-01-01T01:00:59Z</time>
      </trkpt>
      <trkpt lat="41.14599600" lon="0.901805000">
        <ele>487.00000</ele>
        <time>2010-01-01T01:01:09Z</time>
      </trkpt>
      <trkpt lat="41.14585500" lon="0.901975000">
        <ele>485.00000</ele>
        <time>2010-01-01T01:01:16Z</time>
      </trkpt>
      <trkpt lat="41.14579000" lon="0.902075000">
        <ele>482.00000</ele>
        <time>2010-01-01T01:01:20Z</time>
      </trkpt>
      <trkpt lat="41.14568200" lon="0.902297000">
        <ele>478.00000</ele>
        <time>2010-01-01T01:01:28Z</time>
      </trkpt>
      <trkpt lat="41.14558300" lon="0.902482000">
        <ele>476.00000</ele>
        <time>2010-01-01T01:01:35Z</time>
      </trkpt>
      <trkpt lat="41.14534300" lon="0.902812000">
        <ele>474.00000</ele>
        <time>2010-01-01T01:01:49Z</time>
      </trkpt>
      <trkpt lat="41.14528300" lon="0.902883000">
        <ele>473.00000</ele>
        <time>2010-01-01T01:01:52Z</time>
      </trkpt>
      <trkpt lat="41.14522600" lon="0.902945000">
        <ele>472.00000</ele>
        <time>2010-01-01T01:01:55Z</time>
      </trkpt>
      <trkpt lat="41.14506000" lon="0.902904000">
        <ele>470.00000</ele>
        <time>2010-01-01T01:02:02Z</time>
      </trkpt>
      <trkpt lat="41.14503900" lon="0.902707000">
        <ele>469.00000</ele>
        <time>2010-01-01T01:02:08Z</time>
      </trkpt>
      <trkpt lat="41.14502700" lon="0.902555000">
        <ele>469.00000</ele>
        <time>2010-01-01T01:02:13Z</time>
      </trkpt>
      <trkpt lat="41.14525300" lon="0.902276000">
        <ele>474.00000</ele>
        <time>2010-01-01T01:02:25Z</time>
      </trkpt>
      <trkpt lat="41.14521600" lon="0.901879000">
        <ele>475.00000</ele>
        <time>2010-01-01T01:02:37Z</time>
      </trkpt>
      <trkpt lat="41.14486800" lon="0.901494000">
        <ele>471.00000</ele>
        <time>2010-01-01T01:02:55Z</time>
      </trkpt>
      <trkpt lat="41.14472200" lon="0.901485000">
        <ele>467.00000</ele>
        <time>2010-01-01T01:03:01Z</time>
      </trkpt>
      <trkpt lat="41.14462900" lon="0.901162000">
        <ele>468.00000</ele>
        <time>2010-01-01T01:03:11Z</time>
      </trkpt>
      <trkpt lat="41.14449900" lon="0.901299000">
        <ele>462.00000</ele>
        <time>2010-01-01T01:03:18Z</time>
      </trkpt>
      <trkpt lat="41.14450100" lon="0.901377000">
        <ele>461.00000</ele>
        <time>2010-01-01T01:03:20Z</time>
      </trkpt>
      <trkpt lat="41.14449500" lon="0.901665000">
        <ele>460.00000</ele>
        <time>2010-01-01T01:03:29Z</time>
      </trkpt>
      <trkpt lat="41.14462600" lon="0.901884000">
        <ele>461.00000</ele>
        <time>2010-01-01T01:03:37Z</time>
      </trkpt>
      <trkpt lat="41.14476000" lon="0.902124000">
        <ele>463.00000</ele>
        <time>2010-01-01T01:03:46Z</time>
      </trkpt>
      <trkpt lat="41.14457000" lon="0.902479000">
        <ele>457.00000</ele>
        <time>2010-01-01T01:04:00Z</time>
      </trkpt>
      <trkpt lat="41.14428700" lon="0.902905000">
        <ele>453.00000</ele>
        <time>2010-01-01T01:04:17Z</time>
      </trkpt>
      <trkpt lat="41.14406900" lon="0.903002000">
        <ele>449.00000</ele>
        <time>2010-01-01T01:04:26Z</time>
      </trkpt>
      <trkpt lat="41.14386100" lon="0.903119000">
        <ele>446.00000</ele>
        <time>2010-01-01T01:04:35Z</time>
      </trkpt>
      <trkpt lat="41.14361200" lon="0.903389000">
        <ele>446.00000</ele>
        <time>2010-01-01T01:04:48Z</time>
      </trkpt>
      <trkpt lat="41.14331300" lon="0.903639000">
        <ele>437.00000</ele>
        <time>2010-01-01T01:05:02Z</time>
      </trkpt>
      <trkpt lat="41.14302100" lon="0.904097000">
        <ele>433.00000</ele>
        <time>2010-01-01T01:05:20Z</time>
      </trkpt>
      <trkpt lat="41.14279200" lon="0.904180000">
        <ele>428.00000</ele>
        <time>2010-01-01T01:05:30Z</time>
      </trkpt>
      <trkpt lat="41.14254700" lon="0.904306000">
        <ele>425.00000</ele>
        <time>2010-01-01T01:05:40Z</time>
      </trkpt>
      <trkpt lat="41.14232900" lon="0.904682000">
        <ele>424.00000</ele>
        <time>2010-01-01T01:05:54Z</time>
      </trkpt>
      <trkpt lat="41.14214800" lon="0.904889000">
        <ele>420.00000</ele>
        <time>2010-01-01T01:06:04Z</time>
      </trkpt>
      <trkpt lat="41.14200000" lon="0.904960000">
        <ele>415.00000</ele>
        <time>2010-01-01T01:06:10Z</time>
      </trkpt>
      <trkpt lat="41.14177000" lon="0.905058000">
        <ele>408.00000</ele>
        <time>2010-01-01T01:06:20Z</time>
      </trkpt>
      <trkpt lat="41.14156600" lon="0.905169000">
        <ele>404.00000</ele>
        <time>2010-01-01T01:06:29Z</time>
      </trkpt>
      <trkpt lat="41.14143800" lon="0.905254000">
        <ele>402.00000</ele>
        <time>2010-01-01T01:06:34Z</time>
      </trkpt>
      <trkpt lat="41.14140200" lon="0.905446000">
        <ele>403.00000</ele>
        <time>2010-01-01T01:06:40Z</time>
      </trkpt>
      <trkpt lat="41.14142000" lon="0.905807000">
        <ele>406.00000</ele>
        <time>2010-01-01T01:06:51Z</time>
      </trkpt>
      <trkpt lat="41.14136200" lon="0.905807000">
        <ele>405.00000</ele>
        <time>2010-01-01T01:06:54Z</time>
      </trkpt>
      <trkpt lat="41.14122900" lon="0.905803000">
        <ele>401.00000</ele>
        <time>2010-01-01T01:06:59Z</time>
      </trkpt>
      <trkpt lat="41.14097900" lon="0.905953000">
        <ele>394.00000</ele>
        <time>2010-01-01T01:07:10Z</time>
      </trkpt>
      <trkpt lat="41.14096100" lon="0.906330000">
        <ele>391.00000</ele>
        <time>2010-01-01T01:07:21Z</time>
      </trkpt>
      <trkpt lat="41.14081900" lon="0.906407000">
        <ele>385.00000</ele>
        <time>2010-01-01T01:07:28Z</time>
      </trkpt>
      <trkpt lat="41.14074500" lon="0.906264000">
        <ele>385.00000</ele>
        <time>2010-01-01T01:07:33Z</time>
      </trkpt>
      <trkpt lat="41.14063700" lon="0.906014000">
        <ele>384.00000</ele>
        <time>2010-01-01T01:07:41Z</time>
      </trkpt>
      <trkpt lat="41.14047000" lon="0.906132000">
        <ele>381.00000</ele>
        <time>2010-01-01T01:07:49Z</time>
      </trkpt>
      <trkpt lat="41.14048100" lon="0.906285000">
        <ele>380.00000</ele>
        <time>2010-01-01T01:07:54Z</time>
      </trkpt>
      <trkpt lat="41.14054200" lon="0.906472000">
        <ele>378.00000</ele>
        <time>2010-01-01T01:08:00Z</time>
      </trkpt>
      <trkpt lat="41.14069500" lon="0.906774000">
        <ele>377.00000</ele>
        <time>2010-01-01T01:08:11Z</time>
      </trkpt>
      <trkpt lat="41.14072600" lon="0.906848000">
        <ele>377.00000</ele>
        <time>2010-01-01T01:08:13Z</time>
      </trkpt>
      <trkpt lat="41.14075900" lon="0.907108000">
        <ele>373.00000</ele>
        <time>2010-01-01T01:08:21Z</time>
      </trkpt>
      <trkpt lat="41.14074600" lon="0.907201000">
        <ele>372.00000</ele>
        <time>2010-01-01T01:08:24Z</time>
      </trkpt>
      <trkpt lat="41.14066800" lon="0.907572000">
        <ele>370.00000</ele>
        <time>2010-01-01T01:08:36Z</time>
      </trkpt>
      <trkpt lat="41.14064100" lon="0.907853000">
        <ele>366.00000</ele>
        <time>2010-01-01T01:08:44Z</time>
      </trkpt>
      <trkpt lat="41.14038600" lon="0.908069000">
        <ele>359.00000</ele>
        <time>2010-01-01T01:08:56Z</time>
      </trkpt>
      <trkpt lat="41.14031800" lon="0.908043000">
        <ele>359.00000</ele>
        <time>2010-01-01T01:08:59Z</time>
      </trkpt>
      <trkpt lat="41.13997400" lon="0.907970000">
        <ele>363.00000</ele>
        <time>2010-01-01T01:09:13Z</time>
      </trkpt>
      <trkpt lat="41.13978300" lon="0.907960000">
        <ele>363.00000</ele>
        <time>2010-01-01T01:09:21Z</time>
      </trkpt>
      <trkpt lat="41.13940000" lon="0.908034000">
        <ele>358.00000</ele>
        <time>2010-01-01T01:09:36Z</time>
      </trkpt>
      <trkpt lat="41.13919800" lon="0.908230000">
        <ele>352.00000</ele>
        <time>2010-01-01T01:09:46Z</time>
      </trkpt>
      <trkpt lat="41.13901400" lon="0.908528000">
        <ele>348.00000</ele>
        <time>2010-01-01T01:09:58Z</time>
      </trkpt>
      <trkpt lat="41.13871900" lon="0.908709000">
        <ele>348.00000</ele>
        <time>2010-01-01T01:10:11Z</time>
      </trkpt>
      <trkpt lat="41.13864300" lon="0.908729000">
        <ele>348.00000</ele>
        <time>2010-01-01T01:10:14Z</time>
      </trkpt>
      <trkpt lat="41.13841100" lon="0.908760000">
        <ele>347.00000</ele>
        <time>2010-01-01T01:10:23Z</time>
      </trkpt>
      <trkpt lat="41.13839500" lon="0.908777000">
        <ele>347.00000</ele>
        <time>2010-01-01T01:10:24Z</time>
      </trkpt>
      <trkpt lat="41.13839300" lon="0.908780000">
        <ele>347.00000</ele>
        <time>2010-01-01T01:10:24Z</time>
      </trkpt>
      <trkpt lat="41.13832000" lon="0.908831000">
        <ele>346.00000</ele>
        <time>2010-01-01T01:10:28Z</time>
      </trkpt>
      <trkpt lat="41.13820700" lon="0.908896000">
        <ele>346.00000</ele>
        <time>2010-01-01T01:10:33Z</time>
      </trkpt>
      <trkpt lat="41.13794400" lon="0.909159000">
        <ele>346.00000</ele>
        <time>2010-01-01T01:10:46Z</time>
      </trkpt>
      <trkpt lat="41.13787600" lon="0.909208000">
        <ele>346.00000</ele>
        <time>2010-01-01T01:10:49Z</time>
      </trkpt>
      <trkpt lat="41.13767600" lon="0.909501000">
        <ele>345.00000</ele>
        <time>2010-01-01T01:11:01Z</time>
      </trkpt>
      <trkpt lat="41.13749300" lon="0.909788000">
        <ele>346.00000</ele>
        <time>2010-01-01T01:11:12Z</time>
      </trkpt>
      <trkpt lat="41.13737000" lon="0.909872000">
        <ele>345.00000</ele>
        <time>2010-01-01T01:11:18Z</time>
      </trkpt>
      <trkpt lat="41.13726500" lon="0.909865000">
        <ele>346.00000</ele>
        <time>2010-01-01T01:11:22Z</time>
      </trkpt>
      <trkpt lat="41.13718900" lon="0.909676000">
        <ele>344.00000</ele>
        <time>2010-01-01T01:11:28Z</time>
      </trkpt>
      <trkpt lat="41.13724900" lon="0.909274000">
        <ele>345.00000</ele>
        <time>2010-01-01T01:11:41Z</time>
      </trkpt>
      <trkpt lat="41.13720300" lon="0.909285000">
        <ele>344.00000</ele>
        <time>2010-01-01T01:11:43Z</time>
      </trkpt>
      <trkpt lat="41.13720500" lon="0.909290000">
        <ele>344.00000</ele>
        <time>2010-01-01T01:11:43Z</time>
      </trkpt>
      <trkpt lat="41.13703500" lon="0.909593000">
        <ele>340.00000</ele>
        <time>2010-01-01T01:11:54Z</time>
      </trkpt>
      <trkpt lat="41.13702000" lon="0.909611000">
        <ele>340.00000</ele>
        <time>2010-01-01T01:11:55Z</time>
      </trkpt>
      <trkpt lat="41.13697800" lon="0.909645000">
        <ele>339.00000</ele>
        <time>2010-01-01T01:11:57Z</time>
      </trkpt>
      <trkpt lat="41.13692600" lon="0.909778000">
        <ele>338.00000</ele>
        <time>2010-01-01T01:12:01Z</time>
      </trkpt>
      <trkpt lat="41.13685800" lon="0.910156000">
        <ele>337.00000</ele>
        <time>2010-01-01T01:12:13Z</time>
      </trkpt>
      <trkpt lat="41.13680000" lon="0.910581000">
        <ele>332.00000</ele>
        <time>2010-01-01T01:12:26Z</time>
      </trkpt>
      <trkpt lat="41.13681300" lon="0.910948000">
        <ele>329.00000</ele>
        <time>2010-01-01T01:12:37Z</time>
      </trkpt>
      <trkpt lat="41.13681500" lon="0.911072000">
        <ele>327.00000</ele>
        <time>2010-01-01T01:12:41Z</time>
      </trkpt>
      <trkpt lat="41.13695200" lon="0.911512000">
        <ele>323.00000</ele>
        <time>2010-01-01T01:12:55Z</time>
      </trkpt>
      <trkpt lat="41.13700900" lon="0.911607000">
        <ele>321.00000</ele>
        <time>2010-01-01T01:12:59Z</time>
      </trkpt>
      <trkpt lat="41.13706900" lon="0.911796000">
        <ele>317.00000</ele>
        <time>2010-01-01T01:13:05Z</time>
      </trkpt>
      <trkpt lat="41.13694500" lon="0.911817000">
        <ele>316.00000</ele>
        <time>2010-01-01T01:13:10Z</time>
      </trkpt>
      <trkpt lat="41.13695000" lon="0.911877000">
        <ele>314.00000</ele>
        <time>2010-01-01T01:13:12Z</time>
      </trkpt>
      <trkpt lat="41.13713800" lon="0.912053000">
        <ele>312.00000</ele>
        <time>2010-01-01T01:13:21Z</time>
      </trkpt>
      <trkpt lat="41.13717400" lon="0.912104000">
        <ele>311.00000</ele>
        <time>2010-01-01T01:13:23Z</time>
      </trkpt>
      <trkpt lat="41.13729300" lon="0.912388000">
        <ele>308.00000</ele>
        <time>2010-01-01T01:13:33Z</time>
      </trkpt>
      <trkpt lat="41.13734700" lon="0.912444000">
        <ele>308.00000</ele>
        <time>2010-01-01T01:13:36Z</time>
      </trkpt>
      <trkpt lat="41.13761300" lon="0.912748000">
        <ele>304.00000</ele>
        <time>2010-01-01T01:13:50Z</time>
      </trkpt>
      <trkpt lat="41.13795400" lon="0.913019000">
        <ele>302.00000</ele>
        <time>2010-01-01T01:14:06Z</time>
      </trkpt>
      <trkpt lat="41.13814700" lon="0.913141000">
        <ele>302.00000</ele>
        <time>2010-01-01T01:14:14Z</time>
      </trkpt>
      <trkpt lat="41.13857000" lon="0.913325000">
        <ele>300.00000</ele>
        <time>2010-01-01T01:14:32Z</time>
      </trkpt>
      <trkpt lat="41.13889600" lon="0.913611000">
        <ele>298.00000</ele>
        <time>2010-01-01T01:14:48Z</time>
      </trkpt>
      <trkpt lat="41.13902900" lon="0.913805000">
        <ele>300.00000</ele>
        <time>2010-01-01T01:14:56Z</time>
      </trkpt>
      <trkpt lat="41.13932000" lon="0.914433000">
        <ele>296.00000</ele>
        <time>2010-01-01T01:15:18Z</time>
      </trkpt>
      <trkpt lat="41.13959200" lon="0.915042000">
        <ele>288.00000</ele>
        <time>2010-01-01T01:15:39Z</time>
      </trkpt>
      <trkpt lat="41.13973200" lon="0.915353000">
        <ele>284.00000</ele>
        <time>2010-01-01T01:15:50Z</time>
      </trkpt>
      <trkpt lat="41.13982300" lon="0.915856000">
        <ele>288.00000</ele>
        <time>2010-01-01T01:16:06Z</time>
      </trkpt>
      <trkpt lat="41.13980100" lon="0.916263000">
        <ele>293.00000</ele>
        <time>2010-01-01T01:16:18Z</time>
      </trkpt>
      <trkpt lat="41.13978800" lon="0.916486000">
        <ele>295.00000</ele>
        <time>2010-01-01T01:16:25Z</time>
      </trkpt>
      <trkpt lat="41.13982300" lon="0.916714000">
        <ele>295.00000</ele>
        <time>2010-01-01T01:16:32Z</time>
      </trkpt>
      <trkpt lat="41.13989700" lon="0.916969000">
        <ele>296.00000</ele>
        <time>2010-01-01T01:16:40Z</time>
      </trkpt>
      <trkpt lat="41.13995700" lon="0.917201000">
        <ele>295.00000</ele>
        <time>2010-01-01T01:16:47Z</time>
      </trkpt>
      <trkpt lat="41.13999100" lon="0.917342000">
        <ele>295.00000</ele>
        <time>2010-01-01T01:16:52Z</time>
      </trkpt>
      <trkpt lat="41.14003900" lon="0.917507000">
        <ele>295.00000</ele>
        <time>2010-01-01T01:16:57Z</time>
      </trkpt>
      <trkpt lat="41.14013300" lon="0.917793000">
        <ele>293.00000</ele>
        <time>2010-01-01T01:17:07Z</time>
      </trkpt>
      <trkpt lat="41.14017300" lon="0.917893000">
        <ele>292.00000</ele>
        <time>2010-01-01T01:17:10Z</time>
      </trkpt>
      <trkpt lat="41.14027100" lon="0.918183000">
        <ele>290.00000</ele>
        <time>2010-01-01T01:17:20Z</time>
      </trkpt>
      <trkpt lat="41.14041900" lon="0.918564000">
        <ele>287.00000</ele>
        <time>2010-01-01T01:17:33Z</time>
      </trkpt>
      <trkpt lat="41.14052500" lon="0.918918000">
        <ele>286.00000</ele>
        <time>2010-01-01T01:17:44Z</time>
      </trkpt>
      <trkpt lat="41.14055400" lon="0.918938000">
        <ele>286.00000</ele>
        <time>2010-01-01T01:17:45Z</time>
      </trkpt>
      <trkpt lat="41.14062000" lon="0.919013000">
        <ele>285.00000</ele>
        <time>2010-01-01T01:17:49Z</time>
      </trkpt>
      <trkpt lat="41.14068400" lon="0.919093000">
        <ele>285.00000</ele>
        <time>2010-01-01T01:17:52Z</time>
      </trkpt>
      <trkpt lat="41.14086100" lon="0.919334000">
        <ele>286.00000</ele>
        <time>2010-01-01T01:18:03Z</time>
      </trkpt>
      <trkpt lat="41.14103900" lon="0.919476000">
        <ele>286.00000</ele>
        <time>2010-01-01T01:18:11Z</time>
      </trkpt>
      <trkpt lat="41.14127600" lon="0.919487000">
        <ele>282.00000</ele>
        <time>2010-01-01T01:18:20Z</time>
      </trkpt>
      <trkpt lat="41.14153300" lon="0.919609000">
        <ele>280.00000</ele>
        <time>2010-01-01T01:18:31Z</time>
      </trkpt>
      <trkpt lat="41.14166100" lon="0.919729000">
        <ele>280.00000</ele>
        <time>2010-01-01T01:18:38Z</time>
      </trkpt>
      <trkpt lat="41.14196100" lon="0.920033000">
        <ele>279.00000</ele>
        <time>2010-01-01T01:18:53Z</time>
      </trkpt>
      <trkpt lat="41.14218200" lon="0.920429000">
        <ele>282.00000</ele>
        <time>2010-01-01T01:19:07Z</time>
      </trkpt>
      <trkpt lat="41.14224800" lon="0.920561000">
        <ele>284.00000</ele>
        <time>2010-01-01T01:19:12Z</time>
      </trkpt>
      <trkpt lat="41.14228100" lon="0.920628000">
        <ele>284.00000</ele>
        <time>2010-01-01T01:19:15Z</time>
      </trkpt>
      <trkpt lat="41.14243400" lon="0.920872000">
        <ele>281.00000</ele>
        <time>2010-01-01T01:19:24Z</time>
      </trkpt>
      <trkpt lat="41.14251100" lon="0.920987000">
        <ele>279.00000</ele>
        <time>2010-01-01T01:19:29Z</time>
      </trkpt>
      <trkpt lat="41.14256600" lon="0.921224000">
        <ele>278.00000</ele>
        <time>2010-01-01T01:19:36Z</time>
      </trkpt>
      <trkpt lat="41.14260700" lon="0.921431000">
        <ele>277.00000</ele>
        <time>2010-01-01T01:19:43Z</time>
      </trkpt>
      <trkpt lat="41.14262900" lon="0.921539000">
        <ele>276.00000</ele>
        <time>2010-01-01T01:19:46Z</time>
      </trkpt>
      <trkpt lat="41.14260800" lon="0.921773000">
        <ele>274.00000</ele>
        <time>2010-01-01T01:19:53Z</time>
      </trkpt>
      <trkpt lat="41.14254500" lon="0.921983000">
        <ele>274.00000</ele>
        <time>2010-01-01T01:20:00Z</time>
      </trkpt>
      <trkpt lat="41.14254700" lon="0.922277000">
        <ele>271.00000</ele>
        <time>2010-01-01T01:20:09Z</time>
      </trkpt>
      <trkpt lat="41.14256400" lon="0.922606000">
        <ele>271.00000</ele>
        <time>2010-01-01T01:20:19Z</time>
      </trkpt>
      <trkpt lat="41.14259900" lon="0.922869000">
        <ele>271.00000</ele>
        <time>2010-01-01T01:20:27Z</time>
      </trkpt>
      <trkpt lat="41.14276000" lon="0.923303000">
        <ele>269.00000</ele>
        <time>2010-01-01T01:20:42Z</time>
      </trkpt>
      <trkpt lat="41.14271700" lon="0.923637000">
        <ele>270.00000</ele>
        <time>2010-01-01T01:20:52Z</time>
      </trkpt>
      <trkpt lat="41.14267300" lon="0.923777000">
        <ele>271.00000</ele>
        <time>2010-01-01T01:20:56Z</time>
      </trkpt>
      <trkpt lat="41.14253100" lon="0.924270000">
        <ele>272.00000</ele>
        <time>2010-01-01T01:21:12Z</time>
      </trkpt>
      <trkpt lat="41.14256500" lon="0.924511000">
        <ele>267.00000</ele>
        <time>2010-01-01T01:21:20Z</time>
      </trkpt>
      <trkpt lat="41.14268000" lon="0.924810000">
        <ele>261.00000</ele>
        <time>2010-01-01T01:21:30Z</time>
      </trkpt>
      <trkpt lat="41.14269500" lon="0.924896000">
        <ele>260.00000</ele>
        <time>2010-01-01T01:21:32Z</time>
      </trkpt>
      <trkpt lat="41.14275600" lon="0.925104000">
        <ele>259.00000</ele>
        <time>2010-01-01T01:21:39Z</time>
      </trkpt>
      <trkpt lat="41.14283100" lon="0.925549000">
        <ele>258.00000</ele>
        <time>2010-01-01T01:21:53Z</time>
      </trkpt>
      <trkpt lat="41.14291500" lon="0.926630000">
        <ele>257.00000</ele>
        <time>2010-01-01T01:22:26Z</time>
      </trkpt>
      <trkpt lat="41.14301700" lon="0.926936000">
        <ele>255.00000</ele>
        <time>2010-01-01T01:22:36Z</time>
      </trkpt>
      <trkpt lat="41.14331200" lon="0.927353000">
        <ele>252.00000</ele>
        <time>2010-01-01T01:22:53Z</time>
      </trkpt>
      <trkpt lat="41.14337700" lon="0.927375000">
        <ele>252.00000</ele>
        <time>2010-01-01T01:22:56Z</time>
      </trkpt>
      <trkpt lat="41.14363300" lon="0.927655000">
        <ele>253.00000</ele>
        <time>2010-01-01T01:23:09Z</time>
      </trkpt>
      <trkpt lat="41.14385100" lon="0.928073000">
        <ele>249.00000</ele>
        <time>2010-01-01T01:23:24Z</time>
      </trkpt>
      <trkpt lat="41.14412600" lon="0.928184000">
        <ele>248.00000</ele>
        <time>2010-01-01T01:23:36Z</time>
      </trkpt>
      <trkpt lat="41.14417200" lon="0.928182000">
        <ele>248.00000</ele>
        <time>2010-01-01T01:23:38Z</time>
      </trkpt>
      <trkpt lat="41.14445400" lon="0.928354000">
        <ele>251.00000</ele>
        <time>2010-01-01T01:23:50Z</time>
      </trkpt>
      <trkpt lat="41.14461200" lon="0.928598000">
        <ele>254.00000</ele>
        <time>2010-01-01T01:24:00Z</time>
      </trkpt>
      <trkpt lat="41.14469800" lon="0.928815000">
        <ele>257.00000</ele>
        <time>2010-01-01T01:24:07Z</time>
      </trkpt>
      <trkpt lat="41.14470200" lon="0.928928000">
        <ele>257.00000</ele>
        <time>2010-01-01T01:24:11Z</time>
      </trkpt>
      <trkpt lat="41.14476200" lon="0.929473000">
        <ele>257.00000</ele>
        <time>2010-01-01T01:24:27Z</time>
      </trkpt>
      <trkpt lat="41.14487800" lon="0.930154000">
        <ele>259.00000</ele>
        <time>2010-01-01T01:24:48Z</time>
      </trkpt>
      <trkpt lat="41.14482300" lon="0.931312000">
        <ele>256.00000</ele>
        <time>2010-01-01T01:25:23Z</time>
      </trkpt>
      <trkpt lat="41.14471400" lon="0.931845000">
        <ele>252.00000</ele>
        <time>2010-01-01T01:25:40Z</time>
      </trkpt>
      <trkpt lat="41.14471500" lon="0.932138000">
        <ele>254.00000</ele>
        <time>2010-01-01T01:25:49Z</time>
      </trkpt>
      <trkpt lat="41.14478700" lon="0.932437000">
        <ele>254.00000</ele>
        <time>2010-01-01T01:25:58Z</time>
      </trkpt>
      <trkpt lat="41.14489200" lon="0.932830000">
        <ele>250.00000</ele>
        <time>2010-01-01T01:26:11Z</time>
      </trkpt>
      <trkpt lat="41.14478100" lon="0.932868000">
        <ele>247.00000</ele>
        <time>2010-01-01T01:26:15Z</time>
      </trkpt>
      <trkpt lat="41.14448400" lon="0.932862000">
        <ele>244.00000</ele>
        <time>2010-01-01T01:26:27Z</time>
      </trkpt>
      <trkpt lat="41.14429300" lon="0.932985000">
        <ele>241.00000</ele>
        <time>2010-01-01T01:26:36Z</time>
      </trkpt>
      <trkpt lat="41.14425400" lon="0.933068000">
        <ele>240.00000</ele>
        <time>2010-01-01T01:26:39Z</time>
      </trkpt>
      <trkpt lat="41.14399300" lon="0.933496000">
        <ele>242.00000</ele>
        <time>2010-01-01T01:26:55Z</time>
      </trkpt>
      <trkpt lat="41.14389600" lon="0.933671000">
        <ele>243.00000</ele>
        <time>2010-01-01T01:27:02Z</time>
      </trkpt>
      <trkpt lat="41.14382500" lon="0.933762000">
        <ele>245.00000</ele>
        <time>2010-01-01T01:27:06Z</time>
      </trkpt>
      <trkpt lat="41.14364300" lon="0.934018000">
        <ele>248.00000</ele>
        <time>2010-01-01T01:27:16Z</time>
      </trkpt>
      <trkpt lat="41.14339700" lon="0.934238000">
        <ele>251.00000</ele>
        <time>2010-01-01T01:27:28Z</time>
      </trkpt>
      <trkpt lat="41.14320300" lon="0.934480000">
        <ele>249.00000</ele>
        <time>2010-01-01T01:27:39Z</time>
      </trkpt>
      <trkpt lat="41.14304500" lon="0.934649000">
        <ele>249.00000</ele>
        <time>2010-01-01T01:27:47Z</time>
      </trkpt>
      <trkpt lat="41.14287100" lon="0.934676000">
        <ele>251.00000</ele>
        <time>2010-01-01T01:27:54Z</time>
      </trkpt>
      <trkpt lat="41.14264500" lon="0.934680000">
        <ele>254.00000</ele>
        <time>2010-01-01T01:28:03Z</time>
      </trkpt>
      <trkpt lat="41.14244000" lon="0.934639000">
        <ele>256.00000</ele>
        <time>2010-01-01T01:28:11Z</time>
      </trkpt>
      <trkpt lat="41.14234600" lon="0.934588000">
        <ele>257.00000</ele>
        <time>2010-01-01T01:28:15Z</time>
      </trkpt>
      <trkpt lat="41.14226900" lon="0.934602000">
        <ele>257.00000</ele>
        <time>2010-01-01T01:28:19Z</time>
      </trkpt>
      <trkpt lat="41.14216800" lon="0.934649000">
        <ele>257.00000</ele>
        <time>2010-01-01T01:28:23Z</time>
      </trkpt>
      <trkpt lat="41.14198100" lon="0.934635000">
        <ele>259.00000</ele>
        <time>2010-01-01T01:28:30Z</time>
      </trkpt>
      <trkpt lat="41.14180300" lon="0.934824000">
        <ele>264.00000</ele>
        <time>2010-01-01T01:28:39Z</time>
      </trkpt>
      <trkpt lat="41.14185500" lon="0.934916000">
        <ele>263.00000</ele>
        <time>2010-01-01T01:28:43Z</time>
      </trkpt>
      <trkpt lat="41.14207700" lon="0.935363000">
        <ele>259.00000</ele>
        <time>2010-01-01T01:28:59Z</time>
      </trkpt>
      <trkpt lat="41.14209900" lon="0.935855000">
        <ele>263.00000</ele>
        <time>2010-01-01T01:29:14Z</time>
      </trkpt>
      <trkpt lat="41.14216500" lon="0.936176000">
        <ele>259.00000</ele>
        <time>2010-01-01T01:29:24Z</time>
      </trkpt>
      <trkpt lat="41.14216500" lon="0.936418000">
        <ele>254.00000</ele>
        <time>2010-01-01T01:29:31Z</time>
      </trkpt>
      <trkpt lat="41.14207800" lon="0.936642000">
        <ele>253.00000</ele>
        <time>2010-01-01T01:29:39Z</time>
      </trkpt>
      <trkpt lat="41.14197900" lon="0.936787000">
        <ele>255.00000</ele>
        <time>2010-01-01T01:29:45Z</time>
      </trkpt>
      <trkpt lat="41.14185800" lon="0.936926000">
        <ele>257.00000</ele>
        <time>2010-01-01T01:29:51Z</time>
      </trkpt>
      <trkpt lat="41.14161400" lon="0.937011000">
        <ele>264.00000</ele>
        <time>2010-01-01T01:30:01Z</time>
      </trkpt>
      <trkpt lat="41.14156900" lon="0.937111000">
        <ele>261.00000</ele>
        <time>2010-01-01T01:30:05Z</time>
      </trkpt>
      <trkpt lat="41.14131000" lon="0.937237000">
        <ele>260.00000</ele>
        <time>2010-01-01T01:30:16Z</time>
      </trkpt>
      <trkpt lat="41.14108900" lon="0.937390000">
        <ele>260.00000</ele>
        <time>2010-01-01T01:30:26Z</time>
      </trkpt>
      <trkpt lat="41.14108600" lon="0.937418000">
        <ele>259.00000</ele>
        <time>2010-01-01T01:30:27Z</time>
      </trkpt>
      <trkpt lat="41.14101000" lon="0.937667000">
        <ele>258.00000</ele>
        <time>2010-01-01T01:30:35Z</time>
      </trkpt>
      <trkpt lat="41.14090700" lon="0.937778000">
        <ele>261.00000</ele>
        <time>2010-01-01T01:30:40Z</time>
      </trkpt>
      <trkpt lat="41.14081900" lon="0.938034000">
        <ele>261.00000</ele>
        <time>2010-01-01T01:30:49Z</time>
      </trkpt>
      <trkpt lat="41.14077800" lon="0.938287000">
        <ele>261.00000</ele>
        <time>2010-01-01T01:30:56Z</time>
      </trkpt>
      <trkpt lat="41.14076400" lon="0.938400000">
        <ele>261.00000</ele>
        <time>2010-01-01T01:31:00Z</time>
      </trkpt>
      <trkpt lat="41.14075000" lon="0.938798000">
        <ele>259.00000</ele>
        <time>2010-01-01T01:31:12Z</time>
      </trkpt>
      <trkpt lat="41.14077800" lon="0.938843000">
        <ele>258.00000</ele>
        <time>2010-01-01T01:31:14Z</time>
      </trkpt>
      <trkpt lat="41.14083500" lon="0.938931000">
        <ele>257.00000</ele>
        <time>2010-01-01T01:31:17Z</time>
      </trkpt>
      <trkpt lat="41.14087200" lon="0.939292000">
        <ele>250.00000</ele>
        <time>2010-01-01T01:31:28Z</time>
      </trkpt>
      <trkpt lat="41.14066900" lon="0.939551000">
        <ele>253.00000</ele>
        <time>2010-01-01T01:31:39Z</time>
      </trkpt>
      <trkpt lat="41.14067100" lon="0.939605000">
        <ele>253.00000</ele>
        <time>2010-01-01T01:31:41Z</time>
      </trkpt>
      <trkpt lat="41.14071100" lon="0.939860000">
        <ele>253.00000</ele>
        <time>2010-01-01T01:31:49Z</time>
      </trkpt>
      <trkpt lat="41.14082500" lon="0.940163000">
        <ele>251.00000</ele>
        <time>2010-01-01T01:31:59Z</time>
      </trkpt>
      <trkpt lat="41.14083800" lon="0.940207000">
        <ele>250.00000</ele>
        <time>2010-01-01T01:32:00Z</time>
      </trkpt>
      <trkpt lat="41.14088500" lon="0.940574000">
        <ele>246.00000</ele>
        <time>2010-01-01T01:32:12Z</time>
      </trkpt>
      <trkpt lat="41.14088600" lon="0.940725000">
        <ele>245.00000</ele>
        <time>2010-01-01T01:32:16Z</time>
      </trkpt>
      <trkpt lat="41.14090900" lon="0.940842000">
        <ele>243.00000</ele>
        <time>2010-01-01T01:32:20Z</time>
      </trkpt>
      <trkpt lat="41.14091000" lon="0.940907000">
        <ele>243.00000</ele>
        <time>2010-01-01T01:32:22Z</time>
      </trkpt>
      <trkpt lat="41.14090500" lon="0.941168000">
        <ele>243.00000</ele>
        <time>2010-01-01T01:32:30Z</time>
      </trkpt>
      <trkpt lat="41.14087500" lon="0.941410000">
        <ele>244.00000</ele>
        <time>2010-01-01T01:32:37Z</time>
      </trkpt>
      <trkpt lat="41.14086100" lon="0.941549000">
        <ele>241.00000</ele>
        <time>2010-01-01T01:32:41Z</time>
      </trkpt>
      <trkpt lat="41.14081000" lon="0.941700000">
        <ele>239.00000</ele>
        <time>2010-01-01T01:32:46Z</time>
      </trkpt>
      <trkpt lat="41.14069900" lon="0.941901000">
        <ele>236.00000</ele>
        <time>2010-01-01T01:32:54Z</time>
      </trkpt>
      <trkpt lat="41.14053600" lon="0.942322000">
        <ele>231.00000</ele>
        <time>2010-01-01T01:33:08Z</time>
      </trkpt>
      <trkpt lat="41.14055300" lon="0.942477000">
        <ele>231.00000</ele>
        <time>2010-01-01T01:33:13Z</time>
      </trkpt>
      <trkpt lat="41.14054300" lon="0.942792000">
        <ele>230.00000</ele>
        <time>2010-01-01T01:33:22Z</time>
      </trkpt>
      <trkpt lat="41.14050600" lon="0.942958000">
        <ele>228.00000</ele>
        <time>2010-01-01T01:33:27Z</time>
      </trkpt>
      <trkpt lat="41.14044300" lon="0.943039000">
        <ele>229.00000</ele>
        <time>2010-01-01T01:33:31Z</time>
      </trkpt>
      <trkpt lat="41.14027400" lon="0.943295000">
        <ele>228.00000</ele>
        <time>2010-01-01T01:33:41Z</time>
      </trkpt>
      <trkpt lat="41.14022800" lon="0.943500000">
        <ele>227.00000</ele>
        <time>2010-01-01T01:33:48Z</time>
      </trkpt>
      <trkpt lat="41.14015400" lon="0.943641000">
        <ele>228.00000</ele>
        <time>2010-01-01T01:33:53Z</time>
      </trkpt>
      <trkpt lat="41.14000900" lon="0.943987000">
        <ele>225.00000</ele>
        <time>2010-01-01T01:34:05Z</time>
      </trkpt>
      <trkpt lat="41.13997600" lon="0.944213000">
        <ele>222.00000</ele>
        <time>2010-01-01T01:34:12Z</time>
      </trkpt>
      <trkpt lat="41.13995100" lon="0.944391000">
        <ele>220.00000</ele>
        <time>2010-01-01T01:34:17Z</time>
      </trkpt>
      <trkpt lat="41.13988700" lon="0.944638000">
        <ele>218.00000</ele>
        <time>2010-01-01T01:34:25Z</time>
      </trkpt>
      <trkpt lat="41.13979300" lon="0.944927000">
        <ele>216.00000</ele>
        <time>2010-01-01T01:34:35Z</time>
      </trkpt>
      <trkpt lat="41.13968400" lon="0.945145000">
        <ele>215.00000</ele>
        <time>2010-01-01T01:34:42Z</time>
      </trkpt>
      <trkpt lat="41.13939500" lon="0.945379000">
        <ele>219.00000</ele>
        <time>2010-01-01T01:34:56Z</time>
      </trkpt>
      <trkpt lat="41.13928300" lon="0.945425000">
        <ele>222.00000</ele>
        <time>2010-01-01T01:35:01Z</time>
      </trkpt>
      <trkpt lat="41.13884500" lon="0.945870000">
        <ele>223.00000</ele>
        <time>2010-01-01T01:35:23Z</time>
      </trkpt>
      <trkpt lat="41.13867300" lon="0.946070000">
        <ele>223.00000</ele>
        <time>2010-01-01T01:35:32Z</time>
      </trkpt>
      <trkpt lat="41.13856600" lon="0.946175000">
        <ele>222.00000</ele>
        <time>2010-01-01T01:35:37Z</time>
      </trkpt>
      <trkpt lat="41.13848300" lon="0.946218000">
        <ele>222.00000</ele>
        <time>2010-01-01T01:35:41Z</time>
      </trkpt>
      <trkpt lat="41.13789500" lon="0.946629000">
        <ele>218.00000</ele>
        <time>2010-01-01T01:36:07Z</time>
      </trkpt>
      <trkpt lat="41.13751800" lon="0.946577000">
        <ele>218.00000</ele>
        <time>2010-01-01T01:36:23Z</time>
      </trkpt>
      <trkpt lat="41.13744700" lon="0.946621000">
        <ele>219.00000</ele>
        <time>2010-01-01T01:36:26Z</time>
      </trkpt>
      <trkpt lat="41.13726400" lon="0.947023000">
        <ele>219.00000</ele>
        <time>2010-01-01T01:36:40Z</time>
      </trkpt>
      <trkpt lat="41.13727000" lon="0.947058000">
        <ele>219.00000</ele>
        <time>2010-01-01T01:36:41Z</time>
      </trkpt>
      <trkpt lat="41.13718200" lon="0.947429000">
        <ele>219.00000</ele>
        <time>2010-01-01T01:36:53Z</time>
      </trkpt>
      <trkpt lat="41.13685200" lon="0.947481000">
        <ele>221.00000</ele>
        <time>2010-01-01T01:37:06Z</time>
      </trkpt>
      <trkpt lat="41.13667000" lon="0.947395000">
        <ele>223.00000</ele>
        <time>2010-01-01T01:37:14Z</time>
      </trkpt>
      <trkpt lat="41.13633700" lon="0.947501000">
        <ele>224.00000</ele>
        <time>2010-01-01T01:37:27Z</time>
      </trkpt>
      <trkpt lat="41.13616200" lon="0.947707000">
        <ele>225.00000</ele>
        <time>2010-01-01T01:37:37Z</time>
      </trkpt>
      <trkpt lat="41.13603600" lon="0.947884000">
        <ele>224.00000</ele>
        <time>2010-01-01T01:37:44Z</time>
      </trkpt>
      <trkpt lat="41.13577100" lon="0.948343000">
        <ele>226.00000</ele>
        <time>2010-01-01T01:38:02Z</time>
      </trkpt>
      <trkpt lat="41.13552800" lon="0.949007000">
        <ele>220.00000</ele>
        <time>2010-01-01T01:38:24Z</time>
      </trkpt>
      <trkpt lat="41.13538800" lon="0.949418000">
        <ele>217.00000</ele>
        <time>2010-01-01T01:38:37Z</time>
      </trkpt>
      <trkpt lat="41.13511000" lon="0.949744000">
        <ele>217.00000</ele>
        <time>2010-01-01T01:38:52Z</time>
      </trkpt>
      <trkpt lat="41.13497800" lon="0.949961000">
        <ele>218.00000</ele>
        <time>2010-01-01T01:39:01Z</time>
      </trkpt>
      <trkpt lat="41.13496900" lon="0.950289000">
        <ele>221.00000</ele>
        <time>2010-01-01T01:39:11Z</time>
      </trkpt>
      <trkpt lat="41.13512200" lon="0.950762000">
        <ele>218.00000</ele>
        <time>2010-01-01T01:39:26Z</time>
      </trkpt>
      <trkpt lat="41.13485600" lon="0.951085000">
        <ele>223.00000</ele>
        <time>2010-01-01T01:39:41Z</time>
      </trkpt>
      <trkpt lat="41.13463500" lon="0.951459000">
        <ele>223.00000</ele>
        <time>2010-01-01T01:39:55Z</time>
      </trkpt>
      <trkpt lat="41.13452000" lon="0.951760000">
        <ele>221.00000</ele>
        <time>2010-01-01T01:40:05Z</time>
      </trkpt>
      <trkpt lat="41.13421600" lon="0.952226000">
        <ele>217.00000</ele>
        <time>2010-01-01T01:40:24Z</time>
      </trkpt>
      <trkpt lat="41.13385700" lon="0.952352000">
        <ele>222.00000</ele>
        <time>2010-01-01T01:40:39Z</time>
      </trkpt>
      <trkpt lat="41.13375500" lon="0.952404000">
        <ele>222.00000</ele>
        <time>2010-01-01T01:40:43Z</time>
      </trkpt>
      <trkpt lat="41.13349300" lon="0.952607000">
        <ele>222.00000</ele>
        <time>2010-01-01T01:40:55Z</time>
      </trkpt>
      <trkpt lat="41.13321100" lon="0.953278000">
        <ele>219.00000</ele>
        <time>2010-01-01T01:41:18Z</time>
      </trkpt>
      <trkpt lat="41.13306900" lon="0.953620000">
        <ele>222.00000</ele>
        <time>2010-01-01T01:41:30Z</time>
      </trkpt>
      <trkpt lat="41.13292200" lon="0.953895000">
        <ele>221.00000</ele>
        <time>2010-01-01T01:41:40Z</time>
      </trkpt>
      <trkpt lat="41.13255000" lon="0.954596000">
        <ele>222.00000</ele>
        <time>2010-01-01T01:42:06Z</time>
      </trkpt>
      <trkpt lat="41.13258100" lon="0.954997000">
        <ele>221.00000</ele>
        <time>2010-01-01T01:42:18Z</time>
      </trkpt>
      <trkpt lat="41.13283000" lon="0.955542000">
        <ele>216.00000</ele>
        <time>2010-01-01T01:42:37Z</time>
      </trkpt>
      <trkpt lat="41.13291900" lon="0.956158000">
        <ele>216.00000</ele>
        <time>2010-01-01T01:42:56Z</time>
      </trkpt>
      <trkpt lat="41.13301500" lon="0.956588000">
        <ele>215.00000</ele>
        <time>2010-01-01T01:43:10Z</time>
      </trkpt>
      <trkpt lat="41.13304800" lon="0.956947000">
        <ele>217.00000</ele>
        <time>2010-01-01T01:43:21Z</time>
      </trkpt>
      <trkpt lat="41.13302800" lon="0.957187000">
        <ele>219.00000</ele>
        <time>2010-01-01T01:43:28Z</time>
      </trkpt>
      <trkpt lat="41.13294300" lon="0.957522000">
        <ele>218.00000</ele>
        <time>2010-01-01T01:43:39Z</time>
      </trkpt>
      <trkpt lat="41.13290000" lon="0.957668000">
        <ele>217.00000</ele>
        <time>2010-01-01T01:43:43Z</time>
      </trkpt>
      <trkpt lat="41.13284600" lon="0.957807000">
        <ele>216.00000</ele>
        <time>2010-01-01T01:43:48Z</time>
      </trkpt>
      <trkpt lat="41.13261100" lon="0.958288000">
        <ele>215.00000</ele>
        <time>2010-01-01T01:44:05Z</time>
      </trkpt>
      <trkpt lat="41.13246300" lon="0.958481000">
        <ele>216.00000</ele>
        <time>2010-01-01T01:44:14Z</time>
      </trkpt>
      <trkpt lat="41.13233500" lon="0.958663000">
        <ele>215.00000</ele>
        <time>2010-01-01T01:44:21Z</time>
      </trkpt>
      <trkpt lat="41.13218200" lon="0.958910000">
        <ele>213.00000</ele>
        <time>2010-01-01T01:44:31Z</time>
      </trkpt>
      <trkpt lat="41.13209500" lon="0.959007000">
        <ele>211.00000</ele>
        <time>2010-01-01T01:44:35Z</time>
      </trkpt>
      <trkpt lat="41.13196800" lon="0.959065000">
        <ele>212.00000</ele>
        <time>2010-01-01T01:44:41Z</time>
      </trkpt>
      <trkpt lat="41.13187300" lon="0.959095000">
        <ele>211.00000</ele>
        <time>2010-01-01T01:44:45Z</time>
      </trkpt>
      <trkpt lat="41.13161100" lon="0.959115000">
        <ele>208.00000</ele>
        <time>2010-01-01T01:44:55Z</time>
      </trkpt>
      <trkpt lat="41.13133600" lon="0.959070000">
        <ele>204.00000</ele>
        <time>2010-01-01T01:45:06Z</time>
      </trkpt>
      <trkpt lat="41.13116500" lon="0.959048000">
        <ele>201.00000</ele>
        <time>2010-01-01T01:45:13Z</time>
      </trkpt>
      <trkpt lat="41.13086200" lon="0.959172000">
        <ele>197.00000</ele>
        <time>2010-01-01T01:45:26Z</time>
      </trkpt>
      <trkpt lat="41.13050500" lon="0.959567000">
        <ele>195.00000</ele>
        <time>2010-01-01T01:45:44Z</time>
      </trkpt>
      <trkpt lat="41.13038400" lon="0.959711000">
        <ele>196.00000</ele>
        <time>2010-01-01T01:45:51Z</time>
      </trkpt>
      <trkpt lat="41.13022200" lon="0.960020000">
        <ele>197.00000</ele>
        <time>2010-01-01T01:46:02Z</time>
      </trkpt>
      <trkpt lat="41.13021300" lon="0.960227000">
        <ele>198.00000</ele>
        <time>2010-01-01T01:46:09Z</time>
      </trkpt>
      <trkpt lat="41.13020800" lon="0.960336000">
        <ele>199.00000</ele>
        <time>2010-01-01T01:46:12Z</time>
      </trkpt>
      <trkpt lat="41.13017100" lon="0.960788000">
        <ele>200.00000</ele>
        <time>2010-01-01T01:46:26Z</time>
      </trkpt>
      <trkpt lat="41.12996600" lon="0.961255000">
        <ele>200.00000</ele>
        <time>2010-01-01T01:46:42Z</time>
      </trkpt>
      <trkpt lat="41.12983700" lon="0.961506000">
        <ele>201.00000</ele>
        <time>2010-01-01T01:46:51Z</time>
      </trkpt>
      <trkpt lat="41.13000900" lon="0.961747000">
        <ele>199.00000</ele>
        <time>2010-01-01T01:47:01Z</time>
      </trkpt>
      <trkpt lat="41.13002900" lon="0.961798000">
        <ele>199.00000</ele>
        <time>2010-01-01T01:47:03Z</time>
      </trkpt>
      <trkpt lat="41.13005400" lon="0.961835000">
        <ele>199.00000</ele>
        <time>2010-01-01T01:47:04Z</time>
      </trkpt>
      <trkpt lat="41.13035800" lon="0.962267000">
        <ele>195.00000</ele>
        <time>2010-01-01T01:47:22Z</time>
      </trkpt>
      <trkpt lat="41.13044600" lon="0.962380000">
        <ele>193.00000</ele>
        <time>2010-01-01T01:47:27Z</time>
      </trkpt>
      <trkpt lat="41.13047400" lon="0.962671000">
        <ele>191.00000</ele>
        <time>2010-01-01T01:47:36Z</time>
      </trkpt>
      <trkpt lat="41.13040600" lon="0.962818000">
        <ele>189.00000</ele>
        <time>2010-01-01T01:47:41Z</time>
      </trkpt>
      <trkpt lat="41.12990700" lon="0.963113000">
        <ele>190.00000</ele>
        <time>2010-01-01T01:48:03Z</time>
      </trkpt>
      <trkpt lat="41.12986400" lon="0.963129000">
        <ele>190.00000</ele>
        <time>2010-01-01T01:48:05Z</time>
      </trkpt>
      <trkpt lat="41.12970600" lon="0.963221000">
        <ele>190.00000</ele>
        <time>2010-01-01T01:48:12Z</time>
      </trkpt>
      <trkpt lat="41.12936600" lon="0.963396000">
        <ele>190.00000</ele>
        <time>2010-01-01T01:48:26Z</time>
      </trkpt>
      <trkpt lat="41.12859400" lon="0.963794000">
        <ele>185.00000</ele>
        <time>2010-01-01T01:48:59Z</time>
      </trkpt>
      <trkpt lat="41.12836600" lon="0.963925000">
        <ele>183.00000</ele>
        <time>2010-01-01T01:49:09Z</time>
      </trkpt>
      <trkpt lat="41.12817700" lon="0.964023000">
        <ele>183.00000</ele>
        <time>2010-01-01T01:49:17Z</time>
      </trkpt>
      <trkpt lat="41.12802800" lon="0.964121000">
        <ele>183.00000</ele>
        <time>2010-01-01T01:49:24Z</time>
      </trkpt>
      <trkpt lat="41.12770200" lon="0.964344000">
        <ele>184.00000</ele>
        <time>2010-01-01T01:49:39Z</time>
      </trkpt>
      <trkpt lat="41.12779000" lon="0.964396000">
        <ele>183.00000</ele>
        <time>2010-01-01T01:49:43Z</time>
      </trkpt>
      <trkpt lat="41.12783800" lon="0.964472000">
        <ele>183.00000</ele>
        <time>2010-01-01T01:49:46Z</time>
      </trkpt>
      <trkpt lat="41.12781700" lon="0.964616000">
        <ele>182.00000</ele>
        <time>2010-01-01T01:49:50Z</time>
      </trkpt>
      <trkpt lat="41.12768800" lon="0.964957000">
        <ele>178.00000</ele>
        <time>2010-01-01T01:50:02Z</time>
      </trkpt>
      <trkpt lat="41.12745200" lon="0.965405000">
        <ele>174.00000</ele>
        <time>2010-01-01T01:50:18Z</time>
      </trkpt>
      <trkpt lat="41.12744700" lon="0.965437000">
        <ele>174.00000</ele>
        <time>2010-01-01T01:50:19Z</time>
      </trkpt>
      <trkpt lat="41.12734100" lon="0.965506000">
        <ele>173.00000</ele>
        <time>2010-01-01T01:50:24Z</time>
      </trkpt>
      <trkpt lat="41.12726600" lon="0.965581000">
        <ele>173.00000</ele>
        <time>2010-01-01T01:50:27Z</time>
      </trkpt>
      <trkpt lat="41.12719300" lon="0.965686000">
        <ele>172.00000</ele>
        <time>2010-01-01T01:50:32Z</time>
      </trkpt>
      <trkpt lat="41.12691300" lon="0.965961000">
        <ele>173.00000</ele>
        <time>2010-01-01T01:50:46Z</time>
      </trkpt>
      <trkpt lat="41.12674400" lon="0.966037000">
        <ele>173.00000</ele>
        <time>2010-01-01T01:50:53Z</time>
      </trkpt>
      <trkpt lat="41.12630700" lon="0.966315000">
        <ele>172.00000</ele>
        <time>2010-01-01T01:51:12Z</time>
      </trkpt>
      <trkpt lat="41.12614900" lon="0.966511000">
        <ele>172.00000</ele>
        <time>2010-01-01T01:51:21Z</time>
      </trkpt>
      <trkpt lat="41.12611500" lon="0.966578000">
        <ele>171.00000</ele>
        <time>2010-01-01T01:51:23Z</time>
      </trkpt>
      <trkpt lat="41.12605800" lon="0.966724000">
        <ele>170.00000</ele>
        <time>2010-01-01T01:51:28Z</time>
      </trkpt>
      <trkpt lat="41.12594000" lon="0.967019000">
        <ele>171.00000</ele>
        <time>2010-01-01T01:51:38Z</time>
      </trkpt>
      <trkpt lat="41.12582000" lon="0.967462000">
        <ele>169.00000</ele>
        <time>2010-01-01T01:51:53Z</time>
      </trkpt>
      <trkpt lat="41.12562200" lon="0.967859000">
        <ele>172.00000</ele>
        <time>2010-01-01T01:52:07Z</time>
      </trkpt>
      <trkpt lat="41.12560000" lon="0.967908000">
        <ele>172.00000</ele>
        <time>2010-01-01T01:52:09Z</time>
      </trkpt>
      <trkpt lat="41.12547700" lon="0.968267000">
        <ele>166.00000</ele>
        <time>2010-01-01T01:52:21Z</time>
      </trkpt>
      <trkpt lat="41.12539300" lon="0.968515000">
        <ele>164.00000</ele>
        <time>2010-01-01T01:52:29Z</time>
      </trkpt>
      <trkpt lat="41.12535200" lon="0.968800000">
        <ele>161.00000</ele>
        <time>2010-01-01T01:52:37Z</time>
      </trkpt>
      <trkpt lat="41.12529900" lon="0.969099000">
        <ele>160.00000</ele>
        <time>2010-01-01T01:52:47Z</time>
      </trkpt>
      <trkpt lat="41.12489300" lon="0.969902000">
        <ele>159.00000</ele>
        <time>2010-01-01T01:53:16Z</time>
      </trkpt>
      <trkpt lat="41.12481700" lon="0.970090000">
        <ele>159.00000</ele>
        <time>2010-01-01T01:53:22Z</time>
      </trkpt>
      <trkpt lat="41.12472700" lon="0.970282000">
        <ele>158.00000</ele>
        <time>2010-01-01T01:53:29Z</time>
      </trkpt>
      <trkpt lat="41.12443000" lon="0.970737000">
        <ele>159.00000</ele>
        <time>2010-01-01T01:53:47Z</time>
      </trkpt>
      <trkpt lat="41.12429600" lon="0.970898000">
        <ele>159.00000</ele>
        <time>2010-01-01T01:53:55Z</time>
      </trkpt>
      <trkpt lat="41.12399600" lon="0.971293000">
        <ele>159.00000</ele>
        <time>2010-01-01T01:54:11Z</time>
      </trkpt>
      <trkpt lat="41.12383400" lon="0.971553000">
        <ele>160.00000</ele>
        <time>2010-01-01T01:54:22Z</time>
      </trkpt>
      <trkpt lat="41.12374700" lon="0.971805000">
        <ele>161.00000</ele>
        <time>2010-01-01T01:54:30Z</time>
      </trkpt>
      <trkpt lat="41.12372100" lon="0.972038000">
        <ele>160.00000</ele>
        <time>2010-01-01T01:54:37Z</time>
      </trkpt>
      <trkpt lat="41.12363400" lon="0.972327000">
        <ele>159.00000</ele>
        <time>2010-01-01T01:54:46Z</time>
      </trkpt>
      <trkpt lat="41.12341500" lon="0.972514000">
        <ele>160.00000</ele>
        <time>2010-01-01T01:54:57Z</time>
      </trkpt>
      <trkpt lat="41.12320400" lon="0.972815000">
        <ele>157.00000</ele>
        <time>2010-01-01T01:55:09Z</time>
      </trkpt>
      <trkpt lat="41.12309400" lon="0.972899000">
        <ele>157.00000</ele>
        <time>2010-01-01T01:55:14Z</time>
      </trkpt>
      <trkpt lat="41.12283100" lon="0.973060000">
        <ele>156.00000</ele>
        <time>2010-01-01T01:55:26Z</time>
      </trkpt>
      <trkpt lat="41.12258400" lon="0.973220000">
        <ele>154.00000</ele>
        <time>2010-01-01T01:55:37Z</time>
      </trkpt>
      <trkpt lat="41.12234000" lon="0.973292000">
        <ele>153.00000</ele>
        <time>2010-01-01T01:55:47Z</time>
      </trkpt>
      <trkpt lat="41.12208500" lon="0.973477000">
        <ele>149.00000</ele>
        <time>2010-01-01T01:55:59Z</time>
      </trkpt>
      <trkpt lat="41.12201300" lon="0.973575000">
        <ele>147.00000</ele>
        <time>2010-01-01T01:56:03Z</time>
      </trkpt>
      <trkpt lat="41.12206600" lon="0.973643000">
        <ele>146.00000</ele>
        <time>2010-01-01T01:56:06Z</time>
      </trkpt>
      <trkpt lat="41.12213500" lon="0.973676000">
        <ele>146.00000</ele>
        <time>2010-01-01T01:56:09Z</time>
      </trkpt>
      <trkpt lat="41.12225200" lon="0.974045000">
        <ele>142.00000</ele>
        <time>2010-01-01T01:56:21Z</time>
      </trkpt>
      <trkpt lat="41.12224300" lon="0.974109000">
        <ele>142.00000</ele>
        <time>2010-01-01T01:56:23Z</time>
      </trkpt>
      <trkpt lat="41.12223700" lon="0.974246000">
        <ele>142.00000</ele>
        <time>2010-01-01T01:56:27Z</time>
      </trkpt>
      <trkpt lat="41.12224400" lon="0.974353000">
        <ele>142.00000</ele>
        <time>2010-01-01T01:56:30Z</time>
      </trkpt>
      <trkpt lat="41.12223900" lon="0.974462000">
        <ele>143.00000</ele>
        <time>2010-01-01T01:56:33Z</time>
      </trkpt>
      <trkpt lat="41.12222300" lon="0.974465000">
        <ele>143.00000</ele>
        <time>2010-01-01T01:56:34Z</time>
      </trkpt>
      <trkpt lat="41.12215200" lon="0.974485000">
        <ele>142.00000</ele>
        <time>2010-01-01T01:56:37Z</time>
      </trkpt>
      <trkpt lat="41.12199000" lon="0.974563000">
        <ele>142.00000</ele>
        <time>2010-01-01T01:56:44Z</time>
      </trkpt>
      <trkpt lat="41.12171000" lon="0.974807000">
        <ele>142.00000</ele>
        <time>2010-01-01T01:56:57Z</time>
      </trkpt>
      <trkpt lat="41.12175700" lon="0.974953000">
        <ele>143.00000</ele>
        <time>2010-01-01T01:57:02Z</time>
      </trkpt>
      <trkpt lat="41.12198000" lon="0.975392000">
        <ele>145.00000</ele>
        <time>2010-01-01T01:57:18Z</time>
      </trkpt>
      <trkpt lat="41.12210000" lon="0.975857000">
        <ele>146.00000</ele>
        <time>2010-01-01T01:57:33Z</time>
      </trkpt>
      <trkpt lat="41.12181900" lon="0.976591000">
        <ele>148.00000</ele>
        <time>2010-01-01T01:57:58Z</time>
      </trkpt>
      <trkpt lat="41.12186200" lon="0.977065000">
        <ele>149.00000</ele>
        <time>2010-01-01T01:58:12Z</time>
      </trkpt>
      <trkpt lat="41.12206500" lon="0.977413000">
        <ele>150.00000</ele>
        <time>2010-01-01T01:58:25Z</time>
      </trkpt>
      <trkpt lat="41.12242200" lon="0.977580000">
        <ele>150.00000</ele>
        <time>2010-01-01T01:58:40Z</time>
      </trkpt>
      <trkpt lat="41.12283500" lon="0.977503000">
        <ele>151.00000</ele>
        <time>2010-01-01T01:58:57Z</time>
      </trkpt>
      <trkpt lat="41.12326700" lon="0.977283000">
        <ele>153.00000</ele>
        <time>2010-01-01T01:59:16Z</time>
      </trkpt>
      <trkpt lat="41.12377200" lon="0.977079000">
        <ele>153.00000</ele>
        <time>2010-01-01T01:59:37Z</time>
      </trkpt>
      <trkpt lat="41.12420800" lon="0.976978000">
        <ele>155.00000</ele>
        <time>2010-01-01T01:59:55Z</time>
      </trkpt>
      <trkpt lat="41.12470700" lon="0.977083000">
        <ele>156.00000</ele>
        <time>2010-01-01T02:00:15Z</time>
      </trkpt>
      <trkpt lat="41.12509100" lon="0.977149000">
        <ele>157.00000</ele>
        <time>2010-01-01T02:00:30Z</time>
      </trkpt>
      <trkpt lat="41.12535300" lon="0.977474000">
        <ele>159.00000</ele>
        <time>2010-01-01T02:00:45Z</time>
      </trkpt>
      <trkpt lat="41.12555900" lon="0.977545000">
        <ele>160.00000</ele>
        <time>2010-01-01T02:00:53Z</time>
      </trkpt>
      <trkpt lat="41.12577800" lon="0.977289000">
        <ele>160.00000</ele>
        <time>2010-01-01T02:01:05Z</time>
      </trkpt>
      <trkpt lat="41.12580700" lon="0.976910000">
        <ele>159.00000</ele>
        <time>2010-01-01T02:01:16Z</time>
      </trkpt>
      <trkpt lat="41.12578300" lon="0.976498000">
        <ele>159.00000</ele>
        <time>2010-01-01T02:01:29Z</time>
      </trkpt>
      <trkpt lat="41.12617500" lon="0.976230000">
        <ele>161.00000</ele>
        <time>2010-01-01T02:01:46Z</time>
      </trkpt>
      <trkpt lat="41.12671100" lon="0.975939000">
        <ele>163.00000</ele>
        <time>2010-01-01T02:02:10Z</time>
      </trkpt>
      <trkpt lat="41.12711000" lon="0.975639000">
        <ele>165.00000</ele>
        <time>2010-01-01T02:02:28Z</time>
      </trkpt>
      <trkpt lat="41.12736800" lon="0.975531000">
        <ele>167.00000</ele>
        <time>2010-01-01T02:02:39Z</time>
      </trkpt>
      <trkpt lat="41.12739500" lon="0.975491000">
        <ele>167.00000</ele>
        <time>2010-01-01T02:02:40Z</time>
      </trkpt>
      <trkpt lat="41.12749400" lon="0.975346000">
        <ele>167.00000</ele>
        <time>2010-01-01T02:02:46Z</time>
      </trkpt>
      <trkpt lat="41.12772000" lon="0.975020000">
        <ele>167.00000</ele>
        <time>2010-01-01T02:03:00Z</time>
      </trkpt>
      <trkpt lat="41.12775300" lon="0.974985000">
        <ele>167.00000</ele>
        <time>2010-01-01T02:03:01Z</time>
      </trkpt>
      <trkpt lat="41.12799100" lon="0.974995000">
        <ele>167.00000</ele>
        <time>2010-01-01T02:03:11Z</time>
      </trkpt>
      <trkpt lat="41.12799000" lon="0.975026000">
        <ele>167.00000</ele>
        <time>2010-01-01T02:03:12Z</time>
      </trkpt>
      <trkpt lat="41.12799400" lon="0.975103000">
        <ele>167.00000</ele>
        <time>2010-01-01T02:03:14Z</time>
      </trkpt>
      <trkpt lat="41.12795100" lon="0.975383000">
        <ele>168.00000</ele>
        <time>2010-01-01T02:03:23Z</time>
      </trkpt>
      <trkpt lat="41.12786500" lon="0.975554000">
        <ele>169.00000</ele>
        <time>2010-01-01T02:03:29Z</time>
      </trkpt>
      <trkpt lat="41.12781400" lon="0.975878000">
        <ele>171.00000</ele>
        <time>2010-01-01T02:03:39Z</time>
      </trkpt>
      <trkpt lat="41.12772400" lon="0.976257000">
        <ele>172.00000</ele>
        <time>2010-01-01T02:03:51Z</time>
      </trkpt>
      <trkpt lat="41.12771700" lon="0.976288000">
        <ele>172.00000</ele>
        <time>2010-01-01T02:03:52Z</time>
      </trkpt>
      <trkpt lat="41.12753600" lon="0.976552000">
        <ele>171.00000</ele>
        <time>2010-01-01T02:04:03Z</time>
      </trkpt>
      <trkpt lat="41.12747200" lon="0.977049000">
        <ele>170.00000</ele>
        <time>2010-01-01T02:04:18Z</time>
      </trkpt>
      <trkpt lat="41.12732200" lon="0.978060000">
        <ele>170.00000</ele>
        <time>2010-01-01T02:04:49Z</time>
      </trkpt>
      <trkpt lat="41.12707600" lon="0.979301000">
        <ele>171.00000</ele>
        <time>2010-01-01T02:05:28Z</time>
      </trkpt>
      <trkpt lat="41.12684100" lon="0.980413000">
        <ele>171.00000</ele>
        <time>2010-01-01T02:06:02Z</time>
      </trkpt>
      <trkpt lat="41.12680600" lon="0.980663000">
        <ele>171.00000</ele>
        <time>2010-01-01T02:06:10Z</time>
      </trkpt>
      <trkpt lat="41.12695200" lon="0.980772000">
        <ele>172.00000</ele>
        <time>2010-01-01T02:06:17Z</time>
      </trkpt>
      <trkpt lat="41.12715900" lon="0.980886000">
        <ele>172.00000</ele>
        <time>2010-01-01T02:06:26Z</time>
      </trkpt>
      <trkpt lat="41.12744800" lon="0.981196000">
        <ele>174.00000</ele>
        <time>2010-01-01T02:06:41Z</time>
      </trkpt>
      <trkpt lat="41.12779500" lon="0.981493000">
        <ele>175.00000</ele>
        <time>2010-01-01T02:06:57Z</time>
      </trkpt>
      <trkpt lat="41.12805100" lon="0.981836000">
        <ele>175.00000</ele>
        <time>2010-01-01T02:07:12Z</time>
      </trkpt>
      <trkpt lat="41.12828600" lon="0.982200000">
        <ele>176.00000</ele>
        <time>2010-01-01T02:07:26Z</time>
      </trkpt>
      <trkpt lat="41.12848000" lon="0.982610000">
        <ele>177.00000</ele>
        <time>2010-01-01T02:07:41Z</time>
      </trkpt>
      <trkpt lat="41.12868100" lon="0.982948000">
        <ele>177.00000</ele>
        <time>2010-01-01T02:07:54Z</time>
      </trkpt>
      <trkpt lat="41.12897900" lon="0.983148000">
        <ele>177.00000</ele>
        <time>2010-01-01T02:08:07Z</time>
      </trkpt>
      <trkpt lat="41.12921800" lon="0.983220000">
        <ele>178.00000</ele>
        <time>2010-01-01T02:08:17Z</time>
      </trkpt>
      <trkpt lat="41.12926200" lon="0.983442000">
        <ele>177.00000</ele>
        <time>2010-01-01T02:08:24Z</time>
      </trkpt>
      <trkpt lat="41.12926900" lon="0.983516000">
        <ele>177.00000</ele>
        <time>2010-01-01T02:08:26Z</time>
      </trkpt>
      <trkpt lat="41.12931600" lon="0.983682000">
        <ele>178.00000</ele>
        <time>2010-01-01T02:08:31Z</time>
      </trkpt>
      <trkpt lat="41.12935100" lon="0.983752000">
        <ele>178.00000</ele>
        <time>2010-01-01T02:08:34Z</time>
      </trkpt>
      <trkpt lat="41.12935900" lon="0.983801000">
        <ele>178.00000</ele>
        <time>2010-01-01T02:08:35Z</time>
      </trkpt>
      <trkpt lat="41.12939600" lon="0.983884000">
        <ele>178.00000</ele>
        <time>2010-01-01T02:08:38Z</time>
      </trkpt>
      <trkpt lat="41.12945800" lon="0.983985000">
        <ele>178.00000</ele>
        <time>2010-01-01T02:08:42Z</time>
      </trkpt>
      <trkpt lat="41.12956600" lon="0.984212000">
        <ele>178.00000</ele>
        <time>2010-01-01T02:08:50Z</time>
      </trkpt>
      <trkpt lat="41.12976200" lon="0.984673000">
        <ele>179.00000</ele>
        <time>2010-01-01T02:09:06Z</time>
      </trkpt>
      <trkpt lat="41.12996000" lon="0.985070000">
        <ele>179.00000</ele>
        <time>2010-01-01T02:09:21Z</time>
      </trkpt>
      <trkpt lat="41.12993900" lon="0.985582000">
        <ele>178.00000</ele>
        <time>2010-01-01T02:09:36Z</time>
      </trkpt>
      <trkpt lat="41.12991700" lon="0.985726000">
        <ele>177.00000</ele>
        <time>2010-01-01T02:09:41Z</time>
      </trkpt>
      <trkpt lat="41.12994600" lon="0.985998000">
        <ele>176.00000</ele>
        <time>2010-01-01T02:09:49Z</time>
      </trkpt>
      <trkpt lat="41.13005400" lon="0.986276000">
        <ele>176.00000</ele>
        <time>2010-01-01T02:09:58Z</time>
      </trkpt>
      <trkpt lat="41.13031100" lon="0.986848000">
        <ele>176.00000</ele>
        <time>2010-01-01T02:10:18Z</time>
      </trkpt>
      <trkpt lat="41.13076700" lon="0.987614000">
        <ele>176.00000</ele>
        <time>2010-01-01T02:10:48Z</time>
      </trkpt>
      <trkpt lat="41.13094600" lon="0.987911000">
        <ele>175.00000</ele>
        <time>2010-01-01T02:10:59Z</time>
      </trkpt>
      <trkpt lat="41.13120200" lon="0.988272000">
        <ele>175.00000</ele>
        <time>2010-01-01T02:11:14Z</time>
      </trkpt>
      <trkpt lat="41.13162400" lon="0.989073000">
        <ele>173.00000</ele>
        <time>2010-01-01T02:11:44Z</time>
      </trkpt>
      <trkpt lat="41.13165100" lon="0.989128000">
        <ele>173.00000</ele>
        <time>2010-01-01T02:11:46Z</time>
      </trkpt>
      <trkpt lat="41.13174200" lon="0.989346000">
        <ele>172.00000</ele>
        <time>2010-01-01T02:11:53Z</time>
      </trkpt>
      <trkpt lat="41.13180700" lon="0.989464000">
        <ele>171.00000</ele>
        <time>2010-01-01T02:11:58Z</time>
      </trkpt>
      <trkpt lat="41.13190000" lon="0.989625000">
        <ele>171.00000</ele>
        <time>2010-01-01T02:12:04Z</time>
      </trkpt>
      <trkpt lat="41.13190800" lon="0.989642000">
        <ele>171.00000</ele>
        <time>2010-01-01T02:12:04Z</time>
      </trkpt>
      <trkpt lat="41.13195000" lon="0.989696000">
        <ele>171.00000</ele>
        <time>2010-01-01T02:12:07Z</time>
      </trkpt>
      <trkpt lat="41.13197500" lon="0.989721000">
        <ele>171.00000</ele>
        <time>2010-01-01T02:12:08Z</time>
      </trkpt>
      <trkpt lat="41.13201200" lon="0.989734000">
        <ele>171.00000</ele>
        <time>2010-01-01T02:12:10Z</time>
      </trkpt>
      <trkpt lat="41.13207500" lon="0.989708000">
        <ele>171.00000</ele>
        <time>2010-01-01T02:12:12Z</time>
      </trkpt>
      <trkpt lat="41.13210600" lon="0.989690000">
        <ele>172.00000</ele>
        <time>2010-01-01T02:12:14Z</time>
      </trkpt>
      <trkpt lat="41.13217300" lon="0.989669000">
        <ele>172.00000</ele>
        <time>2010-01-01T02:12:16Z</time>
      </trkpt>
      <trkpt lat="41.13231300" lon="0.990057000">
        <ele>175.00000</ele>
        <time>2010-01-01T02:12:29Z</time>
      </trkpt>
      <trkpt lat="41.13234800" lon="0.990068000">
        <ele>175.00000</ele>
        <time>2010-01-01T02:12:31Z</time>
      </trkpt>
      <trkpt lat="41.13242100" lon="0.990008000">
        <ele>176.00000</ele>
        <time>2010-01-01T02:12:34Z</time>
      </trkpt>
      <trkpt lat="41.13251100" lon="0.989931000">
        <ele>178.00000</ele>
        <time>2010-01-01T02:12:38Z</time>
      </trkpt>
      <trkpt lat="41.13255900" lon="0.990169000">
        <ele>177.00000</ele>
        <time>2010-01-01T02:12:46Z</time>
      </trkpt>
      <trkpt lat="41.13261800" lon="0.990367000">
        <ele>177.00000</ele>
        <time>2010-01-01T02:12:52Z</time>
      </trkpt>
      <trkpt lat="41.13271000" lon="0.990666000">
        <ele>177.00000</ele>
        <time>2010-01-01T02:13:02Z</time>
      </trkpt>
      <trkpt lat="41.13279200" lon="0.991025000">
        <ele>176.00000</ele>
        <time>2010-01-01T02:13:13Z</time>
      </trkpt>
      <trkpt lat="41.13284500" lon="0.991317000">
        <ele>175.00000</ele>
        <time>2010-01-01T02:13:22Z</time>
      </trkpt>
      <trkpt lat="41.13284600" lon="0.991338000">
        <ele>175.00000</ele>
        <time>2010-01-01T02:13:23Z</time>
      </trkpt>
      <trkpt lat="41.13291300" lon="0.991457000">
        <ele>175.00000</ele>
        <time>2010-01-01T02:13:27Z</time>
      </trkpt>
      <trkpt lat="41.13305000" lon="0.991866000">
        <ele>175.00000</ele>
        <time>2010-01-01T02:13:41Z</time>
      </trkpt>
      <trkpt lat="41.13319300" lon="0.992392000">
        <ele>175.00000</ele>
        <time>2010-01-01T02:13:58Z</time>
      </trkpt>
      <trkpt lat="41.13332000" lon="0.992712000">
        <ele>175.00000</ele>
        <time>2010-01-01T02:14:09Z</time>
      </trkpt>
      <trkpt lat="41.13341000" lon="0.992681000">
        <ele>175.00000</ele>
        <time>2010-01-01T02:14:12Z</time>
      </trkpt>
      <trkpt lat="41.13375100" lon="0.992359000">
        <ele>177.00000</ele>
        <time>2010-01-01T02:14:29Z</time>
      </trkpt>
      <trkpt lat="41.13411500" lon="0.991964000">
        <ele>178.00000</ele>
        <time>2010-01-01T02:14:48Z</time>
      </trkpt>
      <trkpt lat="41.13446900" lon="0.991528000">
        <ele>178.00000</ele>
        <time>2010-01-01T02:15:07Z</time>
      </trkpt>
      <trkpt lat="41.13480300" lon="0.991142000">
        <ele>183.00000</ele>
        <time>2010-01-01T02:15:25Z</time>
      </trkpt>
      <trkpt lat="41.13508200" lon="0.990765000">
        <ele>186.00000</ele>
        <time>2010-01-01T02:15:41Z</time>
      </trkpt>
      <trkpt lat="41.13537400" lon="0.990404000">
        <ele>188.00000</ele>
        <time>2010-01-01T02:15:57Z</time>
      </trkpt>
      <trkpt lat="41.13566400" lon="0.990146000">
        <ele>191.00000</ele>
        <time>2010-01-01T02:16:11Z</time>
      </trkpt>
      <trkpt lat="41.13571700" lon="0.990103000">
        <ele>192.00000</ele>
        <time>2010-01-01T02:16:13Z</time>
      </trkpt>
      <trkpt lat="41.13595900" lon="0.990275000">
        <ele>193.00000</ele>
        <time>2010-01-01T02:16:24Z</time>
      </trkpt>
    </trkseg>
  </trk>
</gpx>
